Air Quality Table

TIMESTAMP NO2 SO2 O3 PM10 PM2.5 CO TEMP HUM AIRPRES WS WD NO BENZENE
2022-06-26 10:00 15.76 µg/m3 -0.16 µg/m3 64.96 µg/m3 81.41 µg/m3 22.91 µg/m3 0.19 mg/m3 33.26 °C 29.18 % 1,014.51 mbar 2.04 m/s 188.65 Deg 6.15 µg/m3 0.68 µg/m3
2022-06-26 09:00 14.11 µg/m3 -0.15 µg/m3 71.96 µg/m3 84.92 µg/m3 23.38 µg/m3 0.17 mg/m3 32.27 °C 27.65 % 1,014.35 mbar 2.17 m/s 199.23 Deg 3.31 µg/m3 1.63 µg/m3
2022-06-26 08:00 39.44 µg/m3 0.05 µg/m3 50.16 µg/m3 90.93 µg/m3 23.31 µg/m3 0.46 mg/m3 30.28 °C 44.65 % 1,014.44 mbar 1.03 m/s 172.68 Deg 15.61 µg/m3 3.83 µg/m3
2022-06-26 07:00 64.66 µg/m3 0.18 µg/m3 23.85 µg/m3 88.44 µg/m3 23.51 µg/m3 0.36 mg/m3 28.24 °C 49.43 % 1,014.15 mbar 0.65 m/s 202.08 Deg 22.91 µg/m3 8.45 µg/m3
2022-06-26 06:00 61.81 µg/m3 0.4 µg/m3 4.61 µg/m3 58.55 µg/m3 19.72 µg/m3 0.44 mg/m3 26.16 °C 66.8 % 1,013.61 mbar 0.57 m/s 108.67 Deg 41.9 µg/m3 6.67 µg/m3
2022-06-26 05:00 49.77 µg/m3 0.06 µg/m3 15.15 µg/m3 44.25 µg/m3 14 µg/m3 0.27 mg/m3 26.38 °C 65.61 % 1,013.22 mbar 0.56 m/s 40.31 Deg 14.6 µg/m3 2.99 µg/m3
2022-06-26 04:00 31.6 µg/m3 0 µg/m3 39.41 µg/m3 59.82 µg/m3 14.11 µg/m3 0.21 mg/m3 26.95 °C 53.36 % 1,012.98 mbar 0.53 m/s 40.33 Deg 7.21 µg/m3 2.26 µg/m3
2022-06-26 03:00 35.57 µg/m3 -0.03 µg/m3 34.23 µg/m3 79.98 µg/m3 21.5 µg/m3 0.23 mg/m3 27.54 °C 40.32 % 1,012.84 mbar 1.02 m/s 240.97 Deg 5.13 µg/m3 3.62 µg/m3
2022-06-26 02:00 78.64 µg/m3 0.07 µg/m3 11.21 µg/m3 115.18 µg/m3 41.56 µg/m3 0.43 mg/m3 28.01 °C 34.64 % 1,013.08 mbar 0.79 m/s 232.57 Deg 15.05 µg/m3 6.25 µg/m3
2022-06-26 01:00 72.9 µg/m3 0.19 µg/m3 12.6 µg/m3 86.74 µg/m3 23.78 µg/m3 0.53 mg/m3 27.78 °C 44.57 % 1,013.33 mbar 0.92 m/s 91.3 Deg 20.83 µg/m3 4.99 µg/m3
2022-06-26 00:00 79.81 µg/m3 0.65 µg/m3 11.21 µg/m3 81.22 µg/m3 28.1 µg/m3 0.82 mg/m3 27.42 °C 57.55 % 1,013.60 mbar 1.32 m/s 53.8 Deg 56.87 µg/m3 11.91 µg/m3
2022-06-25 23:00 78.16 µg/m3 0.55 µg/m3 16.93 µg/m3 74.77 µg/m3 18.56 µg/m3 0.67 mg/m3 28.13 °C 52.65 % 1,013.92 mbar 1.04 m/s 53.53 Deg 46.19 µg/m3 5.98 µg/m3
2022-06-25 22:00 80.4 µg/m3 0.48 µg/m3 14.92 µg/m3 73.45 µg/m3 19.19 µg/m3 0.65 mg/m3 28.97 °C 43.64 % 1,014.01 mbar 1.17 m/s 50.18 Deg 40.8 µg/m3 6.25 µg/m3
2022-06-25 21:00 67.99 µg/m3 0.4 µg/m3 29.19 µg/m3 74.11 µg/m3 18.29 µg/m3 0.71 mg/m3 29.24 °C 48 % 1,013.84 mbar 1.05 m/s 129.37 Deg 37.45 µg/m3 3.31 µg/m3
2022-06-25 20:00 41.47 µg/m3 0.02 µg/m3 54.56 µg/m3 89.61 µg/m3 16.13 µg/m3 0.3 mg/m3 30.91 °C 24.89 % 1,013.42 mbar 1.08 m/s 214.95 Deg 5.37 µg/m3 1 µg/m3
2022-06-25 19:00 29.09 µg/m3 -0.01 µg/m3 67.7 µg/m3 76.04 µg/m3 13.16 µg/m3 0.26 mg/m3 31.8 °C 25.44 % 1,013.33 mbar 1.37 m/s 169.63 Deg 9.58 µg/m3 0.89 µg/m3
2022-06-25 18:00 34.29 µg/m3 0.07 µg/m3 68.88 µg/m3 65.22 µg/m3 13.31 µg/m3 0.25 mg/m3 32.48 °C 25.32 % 1,013.31 mbar 1.63 m/s 151.73 Deg 15.67 µg/m3 1.05 µg/m3
2022-06-25 17:00 30.74 µg/m3 0.07 µg/m3 72.68 µg/m3 63.38 µg/m3 12.41 µg/m3 0.25 mg/m3 33.25 °C 24.84 % 1,013.36 mbar 1.76 m/s 139.55 Deg 16.3 µg/m3 0.73 µg/m3
2022-06-25 16:00 31.66 µg/m3 0.06 µg/m3 83.33 µg/m3 53.03 µg/m3 11.76 µg/m3 0.22 mg/m3 33.61 °C 25.9 % 1,013.76 mbar 1.99 m/s 169.38 Deg 15.39 µg/m3 1.15 µg/m3
2022-06-25 15:00 37.22 µg/m3 0.11 µg/m3 72.23 µg/m3 40.49 µg/m3 9.58 µg/m3 0.25 mg/m3 33.25 °C 22.44 % 1,013.93 mbar 2.85 m/s 101.82 Deg 20.25 µg/m3 1.47 µg/m3
2022-06-25 14:00 27.31 µg/m3 0.11 µg/m3 67.38 µg/m3 25.16 µg/m3 6.36 µg/m3 0.3 mg/m3 30.77 °C 29.62 % 1,014.35 mbar 3.59 m/s 50.5 Deg 21.71 µg/m3 2.2 µg/m3
2022-06-25 13:00 34.63 µg/m3 0.4 µg/m3 50.69 µg/m3 26.3 µg/m3 5.61 µg/m3 0.36 mg/m3 31 °C 25.42 % 1,014.76 mbar 2.91 m/s 59.45 Deg 35.97 µg/m3 11.07 µg/m3
2022-06-25 12:00 47.54 µg/m3 0.56 µg/m3 39.33 µg/m3 24.72 µg/m3 7.97 µg/m3 0.63 mg/m3 29.53 °C 41.36 % 1,015.06 mbar 3.1 m/s 62.92 Deg 47.44 µg/m3 3.62 µg/m3
2022-06-25 11:00 46.41 µg/m3 0.37 µg/m3 37.33 µg/m3 27.5 µg/m3 9.82 µg/m3 0.34 mg/m3 29.15 °C 48.7 % 1,015.09 mbar 3.25 m/s 50.15 Deg 41.24 µg/m3 2.83 µg/m3
2022-06-25 10:00 67.97 µg/m3 0.56 µg/m3 28.87 µg/m3 34.89 µg/m3 9.59 µg/m3 0.38 mg/m3 30.3 °C 35.86 % 1,014.68 mbar 2.47 m/s 54.77 Deg 54.32 µg/m3 4.09 µg/m3
2022-06-25 09:00 91.46 µg/m3 1.64 µg/m3 13.36 µg/m3 44.55 µg/m3 12.27 µg/m3 0.47 mg/m3 30.68 °C 28.03 % 1,014.45 mbar 1.53 m/s 57.62 Deg 130.88 µg/m3 6.3 µg/m3
2022-06-25 08:00 92.27 µg/m3 1.78 µg/m3 8.38 µg/m3 72.79 µg/m3 16.54 µg/m3 0.55 mg/m3 30.19 °C 27.51 % 1,014.24 mbar 0.69 m/s 48.98 Deg 141.33 µg/m3 14.7 µg/m3
2022-06-25 07:00 80.65 µg/m3 2.43 µg/m3 4.95 µg/m3 96.11 µg/m3 23.47 µg/m3 0.95 mg/m3 28.41 °C 32.29 % 1,013.95 mbar 0.23 m/s 54.11 Deg 180.6 µg/m3 9.82 µg/m3
2022-06-25 06:00 61.04 µg/m3 1.4 µg/m3 3.55 µg/m3 76.68 µg/m3 18.8 µg/m3 0.63 mg/m3 26.98 °C 33.87 % 1,013.53 mbar 0.47 m/s 243.17 Deg 115.39 µg/m3 4.62 µg/m3
2022-06-25 05:00 47.64 µg/m3 0.1 µg/m3 5.14 µg/m3 49 µg/m3 15.07 µg/m3 0.28 mg/m3 26.72 °C 36.85 % 1,013.20 mbar 0.86 m/s 236.53 Deg 14.69 µg/m3 4.46 µg/m3
2022-06-25 04:00 43.86 µg/m3 -0.01 µg/m3 9.82 µg/m3 35.88 µg/m3 11.47 µg/m3 0.23 mg/m3 26.97 °C 41.98 % 1,013.04 mbar 0.78 m/s 231.75 Deg 6.38 µg/m3 4.83 µg/m3
2022-06-25 03:00 55.65 µg/m3 0.2 µg/m3 5.62 µg/m3 32.78 µg/m3 11.65 µg/m3 0.42 mg/m3 27.2 °C 47.88 % 1,013.14 mbar 0.35 m/s 233.32 Deg 25.71 µg/m3 3.31 µg/m3
2022-06-25 02:00 25.96 µg/m3 -0.11 µg/m3 29.29 µg/m3 23.82 µg/m3 8.64 µg/m3 0.19 mg/m3 27.56 °C 45.22 % 1,013.29 mbar 0.65 m/s 221.47 Deg 1.05 µg/m3 1.15 µg/m3
2022-06-25 01:00 38.73 µg/m3 0.06 µg/m3 35.71 µg/m3 21 µg/m3 7.69 µg/m3 0.24 mg/m3 27.91 °C 45.82 % 1,013.62 mbar 0.71 m/s 301.03 Deg 16.38 µg/m3 2.89 µg/m3
2022-06-25 00:00 64.15 µg/m3 0.57 µg/m3 7.2 µg/m3 50.23 µg/m3 16.1 µg/m3 0.56 mg/m3 28 °C 51.26 % 1,013.67 mbar 1.31 m/s 123.57 Deg 54.51 µg/m3 8.24 µg/m3
2022-06-24 23:00 72.93 µg/m3 0.63 µg/m3 2.97 µg/m3 69.71 µg/m3 19.44 µg/m3 0.66 mg/m3 28.81 °C 46 % 1,013.63 mbar 0.59 m/s 151.29 Deg 55.49 µg/m3 5.62 µg/m3
2022-06-24 22:00 59.39 µg/m3 0.41 µg/m3 14.52 µg/m3 45.42 µg/m3 13.21 µg/m3 0.44 mg/m3 29.65 °C 34.96 % 1,013.51 mbar 0.87 m/s 205.18 Deg 39.91 µg/m3 2.94 µg/m3
2022-06-24 21:00 61.98 µg/m3 0.32 µg/m3 12.18 µg/m3 54.6 µg/m3 13.06 µg/m3 0.48 mg/m3 29.75 °C 39.83 % 1,013.18 mbar 1.09 m/s 192.42 Deg 28.7 µg/m3 6.46 µg/m3
2022-06-24 20:00 49.91 µg/m3 0.45 µg/m3 24.33 µg/m3 41.07 µg/m3 11.75 µg/m3 0.6 mg/m3 28.11 °C 56.74 % 1,012.95 mbar 1.43 m/s 115.83 Deg 45.13 µg/m3 4.46 µg/m3
2022-06-24 19:00 55.53 µg/m3 0.49 µg/m3 40.03 µg/m3 38.57 µg/m3 12.14 µg/m3 0.55 mg/m3 30.01 °C 48.1 % 1,012.59 mbar 2.05 m/s 52.28 Deg 40.02 µg/m3 4.36 µg/m3
2022-06-24 18:00 40.58 µg/m3 0.36 µg/m3 65.48 µg/m3 35.72 µg/m3 11.2 µg/m3 0.39 mg/m3 30.54 °C 42.75 % 1,012.65 mbar 3.13 m/s 51.6 Deg 30.5 µg/m3 3.15 µg/m3
2022-06-24 17:00 45.62 µg/m3 0.33 µg/m3 60.48 µg/m3 45.85 µg/m3 10.33 µg/m3 0.4 mg/m3 35.16 °C 19.61 % 1,012.64 mbar 1.82 m/s 220.73 Deg 27.94 µg/m3 0.84 µg/m3
2022-06-24 16:00 37.99 µg/m3 0.07 µg/m3 63.58 µg/m3 52.5 µg/m3 10.51 µg/m3 0.19 mg/m3 36.06 °C 14.14 % 1,013.03 mbar 1.92 m/s 247.9 Deg 11.28 µg/m3 0.84 µg/m3
2022-06-24 15:00 36.41 µg/m3 0.06 µg/m3 63.66 µg/m3 68.61 µg/m3 14.79 µg/m3 0.2 mg/m3 36.75 °C 11.98 % 1,013.46 mbar 2.05 m/s 265.83 Deg 10.09 µg/m3 0.68 µg/m3
2022-06-24 14:00 34.25 µg/m3 0.08 µg/m3 56.36 µg/m3 62.53 µg/m3 13.46 µg/m3 0.2 mg/m3 35.44 °C 16.95 % 1,013.76 mbar 2.29 m/s 263.13 Deg 11.48 µg/m3 0.79 µg/m3
2022-06-24 13:00 37.37 µg/m3 0.11 µg/m3 58.59 µg/m3 60.22 µg/m3 10.36 µg/m3 0.2 mg/m3 34.68 °C 21.52 % 1,013.93 mbar 2.47 m/s 278.3 Deg 13.36 µg/m3 0.79 µg/m3
2022-06-24 12:00 41.79 µg/m3 0.15 µg/m3 59.72 µg/m3 57.61 µg/m3 10.75 µg/m3 0.25 mg/m3 33.23 °C 30.63 % 1,014.09 mbar 2.19 m/s 282.03 Deg 16.07 µg/m3 1.15 µg/m3
2022-06-24 11:00 35.23 µg/m3 0.21 µg/m3 61.98 µg/m3 41.75 µg/m3 9.88 µg/m3 0.24 mg/m3 31.14 °C 41.29 % 1,014.30 mbar 1.83 m/s 256.57 Deg 20.51 µg/m3 1.15 µg/m3
2022-06-24 10:00 44.07 µg/m3 0.12 µg/m3 69.45 µg/m3 64.83 µg/m3 8.51 µg/m3 0.22 mg/m3 33.06 °C 18.29 % 1,014.15 mbar 2.04 m/s 246.63 Deg 12.39 µg/m3 1.05 µg/m3
2022-06-24 09:00 56 µg/m3 0.24 µg/m3 56.86 µg/m3 80.86 µg/m3 11.52 µg/m3 0.23 mg/m3 32.63 °C 18.82 % 1,013.90 mbar 1.6 m/s 269.32 Deg 17.94 µg/m3 1.73 µg/m3
2022-06-24 08:00 67.74 µg/m3 0.27 µg/m3 45.48 µg/m3 117.16 µg/m3 17.07 µg/m3 0.28 mg/m3 31.13 °C 23.15 % 1,013.62 mbar 1.37 m/s 234.23 Deg 20.59 µg/m3 2.52 µg/m3
2022-06-24 07:00 88.7 µg/m3 0.44 µg/m3 27.26 µg/m3 178.32 µg/m3 23.56 µg/m3 0.39 mg/m3 29.38 °C 19.91 % 1,013.29 mbar 0.98 m/s 221.17 Deg 29.2 µg/m3 3.25 µg/m3
2022-06-24 06:00 94.85 µg/m3 0.55 µg/m3 15.5 µg/m3 85.91 µg/m3 13.07 µg/m3 0.45 mg/m3 27.75 °C 19.98 % 1,013.01 mbar 0.73 m/s 226.91 Deg 42.3 µg/m3 1.89 µg/m3
2022-06-24 05:00 50.93 µg/m3 0.01 µg/m3 40.61 µg/m3 55.42 µg/m3 8.93 µg/m3 0.18 mg/m3 27.5 °C 20.13 % 1,012.94 mbar 1.07 m/s 224.38 Deg 5.05 µg/m3 0.89 µg/m3
2022-06-24 04:00 11.08 µg/m3 -0.04 µg/m3 77.25 µg/m3 30.12 µg/m3 5.65 µg/m3 0.11 mg/m3 27.71 °C 19.25 % 1,012.91 mbar 1.59 m/s 215.7 Deg 0.06 µg/m3 0.63 µg/m3
2022-06-24 03:00 7.98 µg/m3 -0.13 µg/m3 72.91 µg/m3 28.71 µg/m3 6.17 µg/m3 0.11 mg/m3 27.45 °C 23.04 % 1,013.33 mbar 1.58 m/s 212.58 Deg 0 µg/m3 0.73 µg/m3
2022-06-24 02:00 17.66 µg/m3 -0.14 µg/m3 63.2 µg/m3 25.94 µg/m3 7.62 µg/m3 0.15 mg/m3 27.1 °C 30.9 % 1,013.83 mbar 1.77 m/s 232.88 Deg 0.39 µg/m3 1.05 µg/m3
2022-06-24 01:00 25.54 µg/m3 -0.14 µg/m3 55.42 µg/m3 30.02 µg/m3 9.87 µg/m3 0.21 mg/m3 27.44 °C 38.61 % 1,014.35 mbar 0.94 m/s 228.08 Deg 0.3 µg/m3 0.89 µg/m3
2022-06-24 00:00 25.49 µg/m3 -0.18 µg/m3 59.21 µg/m3 28.95 µg/m3 11.04 µg/m3 0.22 mg/m3 27.39 °C 48.13 % 1,014.71 mbar 0.77 m/s 240.79 Deg 0.99 µg/m3 1.05 µg/m3
2022-06-23 23:00 24.04 µg/m3 -0.16 µg/m3 63.9 µg/m3 26.35 µg/m3 10.23 µg/m3 0.22 mg/m3 27.44 °C 52.29 % 1,015.05 mbar 1.08 m/s 233.62 Deg 1.58 µg/m3 0.84 µg/m3
2022-06-23 22:00 23.86 µg/m3 -0.07 µg/m3 69.09 µg/m3 32.13 µg/m3 11.34 µg/m3 0.23 mg/m3 28.16 °C 44.93 % 1,015.00 mbar 1.23 m/s 298.03 Deg 3.34 µg/m3 2.62 µg/m3
2022-06-23 21:00 63.19 µg/m3 0.38 µg/m3 41.09 µg/m3 46.68 µg/m3 14.7 µg/m3 0.55 mg/m3 29.5 °C 34.53 % 1,014.60 mbar 1.1 m/s 110.08 Deg 26.13 µg/m3 10.92 µg/m3
2022-06-23 20:00 46.58 µg/m3 0.04 µg/m3 57.28 µg/m3 41.1 µg/m3 10.14 µg/m3 0.33 mg/m3 30.42 °C 27.74 % 1,013.80 mbar 1.13 m/s 210.28 Deg 11.73 µg/m3 1.15 µg/m3
2022-06-23 19:00 28.58 µg/m3 -0.1 µg/m3 75.66 µg/m3 35.41 µg/m3 8.78 µg/m3 0.23 mg/m3 31.11 °C 26.75 % 1,013.65 mbar 2 m/s 226.58 Deg 3.02 µg/m3 0.84 µg/m3
2022-06-23 18:00 33.91 µg/m3 -0.03 µg/m3 72.53 µg/m3 33.79 µg/m3 8.75 µg/m3 0.25 mg/m3 32.44 °C 26.01 % 1,013.48 mbar 2 m/s 238.55 Deg 5.81 µg/m3 1.05 µg/m3
2022-06-23 17:00 32.66 µg/m3 -0.05 µg/m3 72.52 µg/m3 28.68 µg/m3 8.87 µg/m3 0.25 mg/m3 32.19 °C 29.97 % 1,013.95 mbar 2.27 m/s 249.77 Deg 6.16 µg/m3 0.89 µg/m3
2022-06-23 16:00 32.96 µg/m3 -0.06 µg/m3 74.51 µg/m3 40.8 µg/m3 11.19 µg/m3 0.25 mg/m3 32.01 °C 29.9 % 1,014.43 mbar 2.91 m/s 262.73 Deg 7.51 µg/m3 0.84 µg/m3
2022-06-23 15:00 28.07 µg/m3 -0.02 µg/m3 77.54 µg/m3 37.49 µg/m3 10.5 µg/m3 0.23 mg/m3 31.66 °C 32.68 % 1,014.54 mbar 3.05 m/s 256.97 Deg 6.26 µg/m3 0.79 µg/m3
2022-06-23 14:00 31.37 µg/m3 -0.02 µg/m3 74.65 µg/m3 45.82 µg/m3 10.83 µg/m3 0.22 mg/m3 31.34 °C 34.92 % 1,014.88 mbar 3.34 m/s 252.08 Deg 9.36 µg/m3 0.79 µg/m3
2022-06-23 13:00 34.97 µg/m3 -0.05 µg/m3 73.77 µg/m3 40.31 µg/m3 9.82 µg/m3 0.23 mg/m3 31.71 °C 32.63 % 1,014.89 mbar 2.97 m/s 242.72 Deg 9.23 µg/m3 0.79 µg/m3
2022-06-23 12:00 33.41 µg/m3 0 µg/m3 78.91 µg/m3 41.14 µg/m3 8.52 µg/m3 0.21 mg/m3 31.82 °C 26.76 % 1,014.95 mbar 3.42 m/s 249.42 Deg 9.28 µg/m3 0.73 µg/m3
2022-06-23 11:00 30.62 µg/m3 -0.01 µg/m3 81.58 µg/m3 39.67 µg/m3 8.81 µg/m3 0.19 mg/m3 31.76 °C 27.52 % 1,014.87 mbar 2.63 m/s 232.75 Deg 6.41 µg/m3 0.84 µg/m3
2022-06-23 10:00 33.87 µg/m3 0.02 µg/m3 76.01 µg/m3 53.97 µg/m3 12.23 µg/m3 0.21 mg/m3 30.91 °C 33.9 % 1,014.97 mbar 2.27 m/s 236.45 Deg 8.16 µg/m3 1.05 µg/m3
2022-06-23 09:00 42.35 µg/m3 0.05 µg/m3 68.22 µg/m3 47.73 µg/m3 12.77 µg/m3 0.25 mg/m3 29.94 °C 36.78 % 1,014.97 mbar 2.22 m/s 244.55 Deg 11.16 µg/m3 1.31 µg/m3
2022-06-23 08:00 51.43 µg/m3 0.11 µg/m3 53.69 µg/m3 55.25 µg/m3 13.63 µg/m3 0.28 mg/m3 28.5 °C 43.08 % 1,014.75 mbar 1.75 m/s 241.88 Deg 15.29 µg/m3 2.31 µg/m3
2022-06-23 07:00 77.08 µg/m3 0.38 µg/m3 30.22 µg/m3 58.79 µg/m3 14.58 µg/m3 0.37 mg/m3 27.14 °C 37.96 % 1,014.31 mbar 1.27 m/s 235.05 Deg 31.88 µg/m3 1.68 µg/m3
2022-06-23 06:00 53.35 µg/m3 0 µg/m3 38.13 µg/m3 49.07 µg/m3 12.37 µg/m3 0.28 mg/m3 25.49 °C 44.05 % 1,014.02 mbar 1.38 m/s 221.45 Deg 10.04 µg/m3 1.94 µg/m3
2022-06-23 05:00 44.74 µg/m3 -0.1 µg/m3 39.23 µg/m3 42.67 µg/m3 12.88 µg/m3 0.23 mg/m3 25.32 °C 37.7 % 1,013.63 mbar 0.94 m/s 231.42 Deg 2.86 µg/m3 3.04 µg/m3
2022-06-23 04:00 20.48 µg/m3 -0.09 µg/m3 66.16 µg/m3 23.21 µg/m3 11.3 µg/m3 0.17 mg/m3 25.66 °C 34.57 % 1,013.09 mbar 1.04 m/s 234 Deg 1 µg/m3 1 µg/m3
2022-06-23 03:00 8.09 µg/m3 -0.17 µg/m3 81.2 µg/m3 18.94 µg/m3 10.01 µg/m3 0.12 mg/m3 26.12 °C 32.3 % 1,013.22 mbar 0.99 m/s 233.07 Deg 0.02 µg/m3 0.79 µg/m3
2022-06-23 02:00 18.44 µg/m3 -0.14 µg/m3 71.32 µg/m3 30.24 µg/m3 10.68 µg/m3 0.16 mg/m3 26.59 °C 33.16 % 1,013.42 mbar 0.65 m/s 232.75 Deg 0.18 µg/m3 0.89 µg/m3
2022-06-23 01:00 24.31 µg/m3 -0.21 µg/m3 67.2 µg/m3 23.18 µg/m3 9.46 µg/m3 0.19 mg/m3 26.91 °C 33.28 % 1,013.67 mbar 0.61 m/s 231.14 Deg 0.24 µg/m3 0.73 µg/m3
2022-06-23 00:00 16.41 µg/m3 -0.19 µg/m3 73.98 µg/m3 24.14 µg/m3 9 µg/m3 0.17 mg/m3 26.92 °C 37.64 % 1,014.03 mbar 0.95 m/s 212.02 Deg 2.11 µg/m3 0.58 µg/m3
2022-06-22 23:00 13.8 µg/m3 -0.22 µg/m3 72.35 µg/m3 15.16 µg/m3 7.98 µg/m3 0.16 mg/m3 26.54 °C 49.9 % 1,014.32 mbar 1.23 m/s 214.65 Deg 0.34 µg/m3 0.63 µg/m3
2022-06-22 22:00 20.44 µg/m3 -0.21 µg/m3 66.86 µg/m3 20.05 µg/m3 9.65 µg/m3 0.19 mg/m3 26.87 °C 45.72 % 1,014.36 mbar 1.22 m/s 214.55 Deg 0.66 µg/m3 0.94 µg/m3
2022-06-22 21:00 23.3 µg/m3 -0.18 µg/m3 65.21 µg/m3 20.62 µg/m3 10.98 µg/m3 0.21 mg/m3 27.05 °C 49.3 % 1,013.97 mbar 1.39 m/s 230.3 Deg 1.33 µg/m3 1.05 µg/m3
2022-06-22 20:00 30.83 µg/m3 -0.16 µg/m3 64.84 µg/m3 23.49 µg/m3 11.67 µg/m3 0.25 mg/m3 27.64 °C 45.31 % 1,013.74 mbar 1.5 m/s 246.98 Deg 2.57 µg/m3 1.21 µg/m3
2022-06-22 19:00 31.79 µg/m3 -0.13 µg/m3 71.98 µg/m3 25.02 µg/m3 10.4 µg/m3 0.25 mg/m3 28.94 °C 35.82 % 1,013.66 mbar 2.19 m/s 256.4 Deg 4.2 µg/m3 1 µg/m3
2022-06-22 18:00 33.86 µg/m3 -0.18 µg/m3 77.44 µg/m3 25.76 µg/m3 9.58 µg/m3 0.26 mg/m3 30.48 °C 30.19 % 1,013.55 mbar 2.36 m/s 264.05 Deg 4.56 µg/m3 1.05 µg/m3
2022-06-22 17:00 32.56 µg/m3 -0.15 µg/m3 82.49 µg/m3 20.57 µg/m3 8.53 µg/m3 0.24 mg/m3 30.67 °C 29.96 % 1,013.74 mbar 2.54 m/s 250.52 Deg 6.91 µg/m3 0.73 µg/m3
2022-06-22 16:00 25.37 µg/m3 -0.17 µg/m3 84.7 µg/m3 21.74 µg/m3 8.76 µg/m3 0.21 mg/m3 30.62 °C 33.38 % 1,014.34 mbar 2.67 m/s 247.43 Deg 5.36 µg/m3 0.84 µg/m3
2022-06-22 15:00 28.5 µg/m3 -0.14 µg/m3 83.64 µg/m3 24.84 µg/m3 9.34 µg/m3 0.21 mg/m3 30.81 °C 33.97 % 1,014.41 mbar 2.71 m/s 256.42 Deg 6.62 µg/m3 0.63 µg/m3
2022-06-22 14:00 22.84 µg/m3 -0.2 µg/m3 84.25 µg/m3 26.72 µg/m3 8.6 µg/m3 0.19 mg/m3 30.84 °C 34.51 % 1,014.19 mbar 2.46 m/s 235.5 Deg 5.21 µg/m3 0.73 µg/m3
2022-06-22 13:00 26.69 µg/m3 -0.22 µg/m3 83.56 µg/m3 29.32 µg/m3 10.34 µg/m3 0.21 mg/m3 30.14 °C 38.45 % 1,014.32 mbar 2.8 m/s 242.1 Deg 6.24 µg/m3 0.84 µg/m3
2022-06-22 12:00 31.8 µg/m3 -0.19 µg/m3 80.27 µg/m3 46.37 µg/m3 11.94 µg/m3 0.21 mg/m3 30.34 °C 36.31 % 1,014.57 mbar 3.01 m/s 233.95 Deg 7.87 µg/m3 0.63 µg/m3
2022-06-22 11:00 28.74 µg/m3 -0.22 µg/m3 83.25 µg/m3 42.23 µg/m3 10.95 µg/m3 0.23 mg/m3 30.5 °C 34.45 % 1,014.67 mbar 2.37 m/s 239.5 Deg 6.41 µg/m3 1.26 µg/m3
2022-06-22 10:00 39.45 µg/m3 -0.02 µg/m3 73.29 µg/m3 48.3 µg/m3 12.93 µg/m3 0.29 mg/m3 29.88 °C 34.27 % 1,014.51 mbar 2.59 m/s 262 Deg 8.93 µg/m3 0.63 µg/m3
2022-06-22 09:00 29.65 µg/m3 -0.98 µg/m3 45.05 µg/m3 38.91 µg/m3 10.87 µg/m3 0.29 mg/m3 28.63 °C 39.99 % 1,014.38 mbar 2.65 m/s 241.17 Deg 10.35 µg/m3 2.2 µg/m3
2022-06-22 08:00 57.34 µg/m3 0.14 µg/m3 43.49 µg/m3 47.62 µg/m3 13.65 µg/m3 0.38 mg/m3 27.28 °C 49.31 % 1,014.14 mbar 1.44 m/s 213.93 Deg 33.31 µg/m3 5.16 µg/m3
2022-06-22 07:00 76.33 µg/m3 0.38 µg/m3 21.98 µg/m3 52.41 µg/m3 16.73 µg/m3 0.64 mg/m3 25.93 °C 58.33 % 1,013.56 mbar 0.65 m/s 95.22 Deg 50.83 µg/m3 2.78 µg/m3
2022-06-22 06:00 56.22 µg/m3 -0.11 µg/m3 27.22 µg/m3 38.61 µg/m3 14.4 µg/m3 0.36 mg/m3 24.79 °C 60.95 % 1,013.25 mbar 0.44 m/s 219.56 Deg 11.39 µg/m3 2.15 µg/m3
2022-06-22 05:00 29.06 µg/m3 -0.23 µg/m3 41.34 µg/m3 21.56 µg/m3 12.18 µg/m3 0.17 mg/m3 24.26 °C 66.22 % 1,013.08 mbar 0.38 m/s 209.62 Deg 4.72 µg/m3 0.47 µg/m3
2022-06-22 04:00 11.75 µg/m3 -0.33 µg/m3 62.37 µg/m3 15.71 µg/m3 10.34 µg/m3 0.14 mg/m3 24.3 °C 70.98 % 1,013.10 mbar 0.81 m/s 224.92 Deg 0.41 µg/m3 0.31 µg/m3
2022-06-22 03:00 5.7 µg/m3 -0.34 µg/m3 62.56 µg/m3 12.84 µg/m3 10.09 µg/m3 0.13 mg/m3 24.26 °C 76.18 % 1,013.54 mbar 0.84 m/s 231 Deg 0.22 µg/m3 0.31 µg/m3
2022-06-22 02:00 4.52 µg/m3 -0.36 µg/m3 63.83 µg/m3 12.95 µg/m3 10.36 µg/m3 0.13 mg/m3 24.47 °C 77.61 % 1,013.88 mbar 1.06 m/s 242.98 Deg 0.11 µg/m3 0.34 µg/m3
2022-06-22 01:00 7.87 µg/m3 -0.38 µg/m3 64.26 µg/m3 13 µg/m3 9.44 µg/m3 0.14 mg/m3 24.92 °C 71.16 % 1,014.25 mbar 0.93 m/s 246.52 Deg 0.43 µg/m3 0.42 µg/m3
2022-06-22 00:00 9.24 µg/m3 -0.27 µg/m3 66.72 µg/m3 16.12 µg/m3 9.81 µg/m3 0.16 mg/m3 25.1 °C 68.44 % 1,014.70 mbar 1.21 m/s 237.25 Deg 0.31 µg/m3 0.68 µg/m3
2022-06-21 23:00 15.21 µg/m3 -0.24 µg/m3 63.3 µg/m3 17.58 µg/m3 10.54 µg/m3 0.19 mg/m3 25.35 °C 66.37 % 1,014.95 mbar 1.17 m/s 235.98 Deg 0.53 µg/m3 0.68 µg/m3
2022-06-21 22:00 18.05 µg/m3 -0.22 µg/m3 63.48 µg/m3 17.89 µg/m3 9.58 µg/m3 0.2 mg/m3 25.69 °C 62.81 % 1,015.11 mbar 1.27 m/s 234.07 Deg 1.03 µg/m3 0.86 µg/m3
2022-06-21 21:00 17.4 µg/m3 -0.28 µg/m3 67.07 µg/m3 18.52 µg/m3 10.58 µg/m3 0.21 mg/m3 25.88 °C 60.34 % 1,015.03 mbar 1.73 m/s 239.23 Deg 1.23 µg/m3 0.73 µg/m3
2022-06-21 20:00 18.49 µg/m3 -0.28 µg/m3 68.97 µg/m3 23.64 µg/m3 11.24 µg/m3 0.21 mg/m3 26.36 °C 55.57 % 1,014.95 mbar 2.15 m/s 230.53 Deg 1.79 µg/m3 1.07 µg/m3
2022-06-21 19:00 26.3 µg/m3 -0.23 µg/m3 68.72 µg/m3 25.3 µg/m3 13.01 µg/m3 0.23 mg/m3 27.68 °C 46.37 % 1,014.96 mbar 2.2 m/s 255.87 Deg 3.77 µg/m3 0.92 µg/m3
2022-06-21 18:00 25.16 µg/m3 -0.25 µg/m3 77.22 µg/m3 25.88 µg/m3 11.38 µg/m3 0.23 mg/m3 28.94 °C 41.66 % 1,014.84 mbar 2.28 m/s 243.71 Deg 4.25 µg/m3 0.98 µg/m3
2022-06-21 17:00 22.07 µg/m3 -0.24 µg/m3 85.62 µg/m3 22.5 µg/m3 10.42 µg/m3 0.23 mg/m3 28.88 °C 42.15 % 1,015.08 mbar 3.37 m/s 251.2 Deg 4.36 µg/m3 0.94 µg/m3
2022-06-21 16:00 26.66 µg/m3 -0.21 µg/m3 84.39 µg/m3 27.03 µg/m3 10.29 µg/m3 0.21 mg/m3 29.91 °C 40.15 % 1,015.44 mbar 2.89 m/s 250.47 Deg 5.59 µg/m3 0.76 µg/m3
2022-06-21 15:00 26.77 µg/m3 -0.2 µg/m3 87.91 µg/m3 36.54 µg/m3 12.05 µg/m3 0.21 mg/m3 30.38 °C 36.6 % 1,015.58 mbar 2.63 m/s 255.3 Deg 5.55 µg/m3 0.61 µg/m3
2022-06-21 14:00 23.77 µg/m3 0.02 µg/m3 93.67 µg/m3 31.37 µg/m3 11.59 µg/m3 0.19 mg/m3 29.76 °C 40.53 % 1,015.89 mbar 2.96 m/s 240.05 Deg 5.01 µg/m3 0.73 µg/m3
2022-06-21 13:00 25.74 µg/m3 -0.03 µg/m3 97.17 µg/m3 37.05 µg/m3 12.39 µg/m3 0.21 mg/m3 29.83 °C 40.91 % 1,015.94 mbar 2.79 m/s 257.98 Deg 5.77 µg/m3 0.89 µg/m3
2022-06-21 12:00 27.79 µg/m3 -0.16 µg/m3 101.24 µg/m3 31.4 µg/m3 11.39 µg/m3 0.21 mg/m3 29.73 °C 38.67 % 1,016.18 mbar 2 m/s 249.92 Deg 7.35 µg/m3 0.79 µg/m3
2022-06-21 11:00 27.24 µg/m3 -0.2 µg/m3 102.3 µg/m3 36.12 µg/m3 12.01 µg/m3 0.17 mg/m3 29.12 °C 42.75 % 1,016.51 mbar 1.92 m/s 235.85 Deg 5.61 µg/m3 1 µg/m3
2022-06-21 10:00 39.66 µg/m3 -0.2 µg/m3 88.86 µg/m3 38.91 µg/m3 13.1 µg/m3 0.24 mg/m3 28.6 °C 45.36 % 1,016.73 mbar 1.93 m/s 280.75 Deg 10.44 µg/m3 1.12 µg/m3
2022-06-21 09:00 45.05 µg/m3 -0.15 µg/m3 82.52 µg/m3 40.37 µg/m3 14.12 µg/m3 0.26 mg/m3 27.82 °C 47.91 % 1,016.72 mbar 2.02 m/s 258.85 Deg 11.02 µg/m3 1.78 µg/m3
2022-06-21 08:00 64.18 µg/m3 -0.06 µg/m3 66.73 µg/m3 56.86 µg/m3 16.79 µg/m3 0.35 mg/m3 27.17 °C 49.02 % 1,016.32 mbar 1.26 m/s 275.08 Deg 16.14 µg/m3 2.31 µg/m3
2022-06-21 07:00 58.4 µg/m3 -0.12 µg/m3 61.19 µg/m3 59.55 µg/m3 18.73 µg/m3 0.35 mg/m3 25.32 °C 64.82 % 1,015.74 mbar 0.87 m/s 229.98 Deg 8.92 µg/m3 2.39 µg/m3
2022-06-21 06:00 55.94 µg/m3 -0.16 µg/m3 53.83 µg/m3 37.74 µg/m3 20.13 µg/m3 0.33 mg/m3 24.16 °C 72.13 % 1,015.42 mbar 0.9 m/s 230.17 Deg 5.41 µg/m3 1.36 µg/m3
2022-06-21 05:00 31.07 µg/m3 -0.27 µg/m3 71.44 µg/m3 21.92 µg/m3 15.3 µg/m3 0.18 mg/m3 23.79 °C 72.31 % 1,015.24 mbar 0.81 m/s 247.63 Deg 1.74 µg/m3 0.63 µg/m3
2022-06-21 04:00 9.77 µg/m3 -0.22 µg/m3 87.83 µg/m3 21.31 µg/m3 14.14 µg/m3 0.13 mg/m3 23.87 °C 70.53 % 1,015.24 mbar 0.78 m/s 228.78 Deg 0.09 µg/m3 0.52 µg/m3
2022-06-21 03:00 8.21 µg/m3 -0.26 µg/m3 98.09 µg/m3 21.22 µg/m3 14.86 µg/m3 0.14 mg/m3 24.15 °C 70.98 % 1,015.70 mbar 0.8 m/s 255.22 Deg 0.07 µg/m3 0.44 µg/m3
2022-06-21 02:00 10.73 µg/m3 -0.29 µg/m3 102.75 µg/m3 20.68 µg/m3 13.63 µg/m3 0.14 mg/m3 24.49 °C 68.69 % 1,015.80 mbar 0.96 m/s 255.8 Deg 0.1 µg/m3 0.47 µg/m3
2022-06-21 01:00 10.4 µg/m3 -0.28 µg/m3 109.16 µg/m3 20.85 µg/m3 13.87 µg/m3 0.16 mg/m3 24.74 °C 67.98 % 1,016.08 mbar 0.89 m/s 268.55 Deg 0.14 µg/m3 0.52 µg/m3
2022-06-21 00:00 13.6 µg/m3 -0.26 µg/m3 102.99 µg/m3 23.14 µg/m3 14.1 µg/m3 0.18 mg/m3 24.92 °C 67.03 % 1,016.43 mbar 0.82 m/s 250.57 Deg 0.26 µg/m3 0.7 µg/m3
2022-06-20 23:00 14.98 µg/m3 -0.28 µg/m3 105.72 µg/m3 21.38 µg/m3 13.4 µg/m3 0.2 mg/m3 25.08 °C 66.62 % 1,016.74 mbar 1.15 m/s 255.98 Deg 0.35 µg/m3 1 µg/m3
2022-06-20 22:00 26.84 µg/m3 -0.22 µg/m3 102.14 µg/m3 23.91 µg/m3 13.82 µg/m3 0.26 mg/m3 25.34 °C 64.99 % 1,016.65 mbar 0.99 m/s 329.67 Deg 5.83 µg/m3 1.29 µg/m3
2022-06-20 21:00 29.51 µg/m3 -0.18 µg/m3 94.43 µg/m3 23.89 µg/m3 12.85 µg/m3 0.26 mg/m3 25.45 °C 64.45 % 1,016.31 mbar 1.2 m/s 168.05 Deg 8.52 µg/m3 1.45 µg/m3
2022-06-20 20:00 36.98 µg/m3 -0.07 µg/m3 83.74 µg/m3 24.34 µg/m3 12.12 µg/m3 0.3 mg/m3 26.08 °C 62.52 % 1,015.87 mbar 1.29 m/s 340.37 Deg 13.36 µg/m3 1.81 µg/m3
2022-06-20 19:00 33.59 µg/m3 -0.04 µg/m3 78.25 µg/m3 23.16 µg/m3 10.87 µg/m3 0.3 mg/m3 27.06 °C 55.63 % 1,015.62 mbar 1.16 m/s 141.68 Deg 16.6 µg/m3 1.97 µg/m3
2022-06-20 18:00 37.67 µg/m3 -0.06 µg/m3 79.55 µg/m3 26.23 µg/m3 12.24 µg/m3 0.35 mg/m3 27.72 °C 56.6 % 1,015.50 mbar 1.69 m/s 62.97 Deg 19.26 µg/m3 2.1 µg/m3
2022-06-20 17:00 40.96 µg/m3 0.06 µg/m3 84.32 µg/m3 20.59 µg/m3 11.93 µg/m3 0.34 mg/m3 27.06 °C 56.91 % 1,015.33 mbar 2.91 m/s 49.38 Deg 30.11 µg/m3 1.36 µg/m3
2022-06-20 16:00 26.87 µg/m3 -0.01 µg/m3 97.97 µg/m3 15.61 µg/m3 9.9 µg/m3 0.28 mg/m3 25.93 °C 61.29 % 1,015.56 mbar 3.62 m/s 52.58 Deg 24.25 µg/m3 1.42 µg/m3
2022-06-20 15:00 28.2 µg/m3 -0.03 µg/m3 101.73 µg/m3 16.49 µg/m3 10.22 µg/m3 0.28 mg/m3 25.9 °C 60.92 % 1,015.78 mbar 3.64 m/s 54.72 Deg 20.47 µg/m3 1.65 µg/m3
2022-06-20 14:00 32.88 µg/m3 0 µg/m3 100.29 µg/m3 18.82 µg/m3 10.8 µg/m3 0.26 mg/m3 25.72 °C 60.26 % 1,015.99 mbar 3.69 m/s 57.2 Deg 23.94 µg/m3 1.54 µg/m3
2022-06-20 13:00 29.88 µg/m3 -0.02 µg/m3 95.23 µg/m3 17.32 µg/m3 10.06 µg/m3 0.26 mg/m3 25.87 °C 51.5 % 1,016.10 mbar 3.65 m/s 52.97 Deg 25.11 µg/m3 1.55 µg/m3
2022-06-20 12:00 37.24 µg/m3 0.05 µg/m3 88.46 µg/m3 20.84 µg/m3 10.37 µg/m3 0.28 mg/m3 26.03 °C 49.57 % 1,016.26 mbar 3.34 m/s 50.88 Deg 28.15 µg/m3 1.57 µg/m3
2022-06-20 11:00 36.19 µg/m3 -0.01 µg/m3 85.19 µg/m3 20.48 µg/m3 10.54 µg/m3 0.24 mg/m3 25.33 °C 52.37 % 1,016.35 mbar 3.52 m/s 51.73 Deg 28.09 µg/m3 1.57 µg/m3
2022-06-20 10:00 34.08 µg/m3 -0.06 µg/m3 75.22 µg/m3 17.41 µg/m3 10.52 µg/m3 0.31 mg/m3 24.72 °C 62.49 % 1,016.27 mbar 3.16 m/s 62.25 Deg 30.8 µg/m3 1.76 µg/m3
2022-06-20 09:00 49.58 µg/m3 0.15 µg/m3 59.07 µg/m3 20.08 µg/m3 12.22 µg/m3 0.36 mg/m3 24.66 °C 67.1 % 1,016.07 mbar 2.96 m/s 59.08 Deg 39.31 µg/m3 2.02 µg/m3
2022-06-20 08:00 40.63 µg/m3 0.06 µg/m3 59.74 µg/m3 24.96 µg/m3 13.08 µg/m3 0.39 mg/m3 24.63 °C 65.39 % 1,015.77 mbar 2.06 m/s 60.22 Deg 40.5 µg/m3 2.28 µg/m3
2022-06-20 07:00 52.12 µg/m3 0 µg/m3 54.65 µg/m3 31.84 µg/m3 15.82 µg/m3 0.42 mg/m3 24.47 °C 70.73 % 1,015.22 mbar 0.62 m/s 167.05 Deg 23.65 µg/m3 2.89 µg/m3
2022-06-20 06:00 41.4 µg/m3 -0.08 µg/m3 50.62 µg/m3 26.02 µg/m3 18.03 µg/m3 0.4 mg/m3 23.59 °C 79.06 % 1,014.71 mbar 0.62 m/s 115.83 Deg 20.14 µg/m3 1.92 µg/m3
2022-06-20 05:00 30.42 µg/m3 -0.2 µg/m3 54.19 µg/m3 26.26 µg/m3 18.26 µg/m3 0.28 mg/m3 23.25 °C 79.78 % 1,014.40 mbar 0.47 m/s 25.71 Deg 11.13 µg/m3 0.92 µg/m3
2022-06-20 04:00 10.48 µg/m3 -0.24 µg/m3 84.25 µg/m3 19.86 µg/m3 14.43 µg/m3 0.14 mg/m3 23.28 °C 79.93 % 1,014.25 mbar 0.73 m/s 111.23 Deg 1.43 µg/m3 1 µg/m3
2022-06-20 03:00 8 µg/m3 -0.26 µg/m3 86.59 µg/m3 18.67 µg/m3 14.16 µg/m3 0.13 mg/m3 23.18 °C 80.42 % 1,014.45 mbar 1.35 m/s 55.53 Deg 4.46 µg/m3 1 µg/m3
2022-06-20 02:00 20.8 µg/m3 -0.24 µg/m3 82.67 µg/m3 18.92 µg/m3 14.46 µg/m3 0.17 mg/m3 23.13 °C 80.8 % 1,014.62 mbar 1.23 m/s 61.83 Deg 11.78 µg/m3 1.03 µg/m3
2022-06-20 01:00 15.58 µg/m3 -0.27 µg/m3 81.17 µg/m3 21.94 µg/m3 16.76 µg/m3 0.19 mg/m3 23.15 °C 84.76 % 1,014.94 mbar 1.42 m/s 63.18 Deg 4.62 µg/m3 1.08 µg/m3
2022-06-20 00:00 19.06 µg/m3 -0.24 µg/m3 79 µg/m3 21.42 µg/m3 15.81 µg/m3 0.23 mg/m3 23.33 °C 84.23 % 1,015.15 mbar 1.37 m/s 61.18 Deg 7.52 µg/m3 1.76 µg/m3
2022-06-19 23:00 34.33 µg/m3 -0.21 µg/m3 63.21 µg/m3 21.29 µg/m3 15.35 µg/m3 0.29 mg/m3 23.62 °C 83.13 % 1,015.34 mbar 1.41 m/s 57.97 Deg 12.4 µg/m3 2.23 µg/m3
2022-06-19 22:00 50.71 µg/m3 -0.03 µg/m3 52.97 µg/m3 25.95 µg/m3 18.33 µg/m3 0.39 mg/m3 24.06 °C 77.59 % 1,015.28 mbar 1.29 m/s 58.57 Deg 23.91 µg/m3 3.15 µg/m3
2022-06-19 21:00 38.49 µg/m3 -0.02 µg/m3 65.69 µg/m3 24.41 µg/m3 16.72 µg/m3 0.44 mg/m3 24.3 °C 74.45 % 1,015.00 mbar 1.5 m/s 61.6 Deg 24.25 µg/m3 2.26 µg/m3
2022-06-19 20:00 37.01 µg/m3 -0.06 µg/m3 75.85 µg/m3 24.48 µg/m3 15.78 µg/m3 0.42 mg/m3 24.69 °C 69.12 % 1,014.55 mbar 1.96 m/s 68.53 Deg 22.68 µg/m3 1.97 µg/m3
2022-06-19 19:00 40.31 µg/m3 -0.09 µg/m3 81.25 µg/m3 27.36 µg/m3 17.44 µg/m3 0.37 mg/m3 25.68 °C 59.81 % 1,014.30 mbar 2.32 m/s 107.6 Deg 18.3 µg/m3 1.52 µg/m3
2022-06-19 18:00 29.31 µg/m3 -0.11 µg/m3 89.7 µg/m3 19.3 µg/m3 11.37 µg/m3 0.34 mg/m3 26.2 °C 57.52 % 1,014.06 mbar 2.8 m/s 87.17 Deg 17.9 µg/m3 1.71 µg/m3
2022-06-19 17:00 23.23 µg/m3 -0.15 µg/m3 95.41 µg/m3 18.4 µg/m3 11.19 µg/m3 0.36 mg/m3 25.84 °C 63.57 % 1,014.14 mbar 3.83 m/s 51.87 Deg 15.26 µg/m3 0.94 µg/m3
2022-06-19 16:00 22.98 µg/m3 -0.18 µg/m3 102.05 µg/m3 17.33 µg/m3 11.1 µg/m3 0.23 mg/m3 25.26 °C 69.56 % 1,014.41 mbar 4.31 m/s 49.97 Deg 10.48 µg/m3 0.94 µg/m3
2022-06-19 15:00 15.21 µg/m3 -0.24 µg/m3 112.42 µg/m3 16.42 µg/m3 11.31 µg/m3 0.3 mg/m3 24.83 °C 74.04 % 1,014.85 mbar 4.81 m/s 49.9 Deg 8.99 µg/m3 0.84 µg/m3
2022-06-19 14:00 13.15 µg/m3 -0.22 µg/m3 116.45 µg/m3 15.5 µg/m3 10.9 µg/m3 0.23 mg/m3 24.7 °C 75.19 % 1,015.26 mbar 4.8 m/s 53.3 Deg 6.96 µg/m3 0.73 µg/m3
2022-06-19 13:00 10.99 µg/m3 -0.25 µg/m3 114.02 µg/m3 15.31 µg/m3 10.83 µg/m3 0.23 mg/m3 24.37 °C 77.16 % 1,015.53 mbar 5.58 m/s 52.2 Deg 8.97 µg/m3 0.89 µg/m3
2022-06-19 12:00 15.56 µg/m3 -0.24 µg/m3 114.89 µg/m3 15.04 µg/m3 10.72 µg/m3 0.31 mg/m3 24.45 °C 77.39 % 1,015.63 mbar 5.59 m/s 52.83 Deg 10.04 µg/m3 0.94 µg/m3
2022-06-19 11:00 19.05 µg/m3 -0.22 µg/m3 113.01 µg/m3 15.77 µg/m3 11.24 µg/m3 0.21 mg/m3 24.36 °C 78.17 % 1,015.48 mbar 5.29 m/s 49.65 Deg 9.48 µg/m3 1.1 µg/m3
2022-06-19 10:00 22.43 µg/m3 -0.2 µg/m3 109.24 µg/m3 16.34 µg/m3 11.1 µg/m3 0.28 mg/m3 24.44 °C 77.31 % 1,015.54 mbar 4.48 m/s 52.55 Deg 11.05 µg/m3 1.21 µg/m3
2022-06-19 09:00 18.79 µg/m3 -0.22 µg/m3 104.53 µg/m3 17.03 µg/m3 11.19 µg/m3 0.26 mg/m3 24.1 °C 79.59 % 1,015.52 mbar 3.53 m/s 56.32 Deg 11.5 µg/m3 1.07 µg/m3
2022-06-19 08:00 15.98 µg/m3 -0.3 µg/m3 107.66 µg/m3 16.61 µg/m3 10.85 µg/m3 0.22 mg/m3 23.7 °C 80.06 % 1,015.34 mbar 3.54 m/s 52.53 Deg 6.7 µg/m3 0.68 µg/m3
2022-06-19 07:00 10.19 µg/m3 -0.3 µg/m3 108.3 µg/m3 18.11 µg/m3 12.04 µg/m3 0.2 mg/m3 23.66 °C 80.46 % 1,014.98 mbar 3.24 m/s 55.18 Deg 5.17 µg/m3 0.79 µg/m3
2022-06-19 06:00 14.64 µg/m3 -0.25 µg/m3 92.91 µg/m3 18.41 µg/m3 13.62 µg/m3 0.23 mg/m3 23.15 °C 84.97 % 1,014.65 mbar 2.66 m/s 51.58 Deg 4.28 µg/m3 0.87 µg/m3
2022-06-19 05:00 13.66 µg/m3 -0.29 µg/m3 81.44 µg/m3 18.97 µg/m3 14.45 µg/m3 0.21 mg/m3 22.87 °C 88.23 % 1,014.28 mbar 2.69 m/s 50.83 Deg 5.72 µg/m3 0.94 µg/m3
2022-06-19 04:00 18.31 µg/m3 -0.27 µg/m3 80.13 µg/m3 19.23 µg/m3 14.55 µg/m3 0.2 mg/m3 23.02 °C 87.46 % 1,014.29 mbar 1.92 m/s 57.12 Deg 4.25 µg/m3 1.02 µg/m3
2022-06-19 03:00 15.32 µg/m3 -0.28 µg/m3 82.82 µg/m3 20.13 µg/m3 15.34 µg/m3 0.22 mg/m3 23.06 °C 86.58 % 1,014.43 mbar 1.66 m/s 64.77 Deg 7.22 µg/m3 0.97 µg/m3
2022-06-19 02:00 15.7 µg/m3 -0.28 µg/m3 86.13 µg/m3 18.99 µg/m3 14.89 µg/m3 0.18 mg/m3 23.22 °C 84.76 % 1,014.59 mbar 2.28 m/s 62.67 Deg 7.28 µg/m3 1.36 µg/m3
2022-06-19 01:00 17.62 µg/m3 -0.24 µg/m3 100.45 µg/m3 17.1 µg/m3 13.9 µg/m3 0.29 mg/m3 23.41 °C 83.6 % 1,014.86 mbar 2.91 m/s 56.05 Deg 5.95 µg/m3 2.1 µg/m3
2022-06-19 00:00 22.79 µg/m3 -0.24 µg/m3 97.53 µg/m3 16.03 µg/m3 12.96 µg/m3 0.28 mg/m3 23.66 °C 80.55 % 1,014.94 mbar 2.93 m/s 63.95 Deg 11.85 µg/m3 1.97 µg/m3
2022-06-18 23:00 34.33 µg/m3 -0.15 µg/m3 84.59 µg/m3 18.5 µg/m3 14.09 µg/m3 0.34 mg/m3 23.94 °C 77.23 % 1,014.94 mbar 2.66 m/s 58.38 Deg 14.88 µg/m3 1.99 µg/m3
2022-06-18 22:00 40.81 µg/m3 -0.21 µg/m3 71.87 µg/m3 17.91 µg/m3 13.69 µg/m3 0.37 mg/m3 24.12 °C 77.18 % 1,014.91 mbar 2.25 m/s 70.9 Deg 13.65 µg/m3 1.63 µg/m3
2022-06-18 21:00 50.18 µg/m3 -0.15 µg/m3 70.77 µg/m3 17.97 µg/m3 13.81 µg/m3 0.35 mg/m3 24.13 °C 77.71 % 1,014.66 mbar 2.91 m/s 52.58 Deg 17.18 µg/m3 1.45 µg/m3
2022-06-18 20:00 21.76 µg/m3 -0.15 µg/m3 98.38 µg/m3 16.37 µg/m3 12.57 µg/m3 0.35 mg/m3 23.99 °C 80.64 % 1,014.00 mbar 4.66 m/s 62.83 Deg 14.11 µg/m3 1.61 µg/m3
2022-06-18 19:00 20.12 µg/m3 -0.21 µg/m3 103.71 µg/m3 17.69 µg/m3 13.75 µg/m3 0.34 mg/m3 23.96 °C 83.48 % 1,014.24 mbar 5.2 m/s 50.9 Deg 12.58 µg/m3 1.1 µg/m3
2022-06-18 18:00 19.84 µg/m3 -0.23 µg/m3 89.38 µg/m3 15.81 µg/m3 13.19 µg/m3 0.28 mg/m3 23.98 °C 85.92 % 1,014.16 mbar 6.07 m/s 51.52 Deg 9.22 µg/m3 1.03 µg/m3
2022-06-18 17:00 11.28 µg/m3 -0.2 µg/m3 87.91 µg/m3 14.18 µg/m3 11.82 µg/m3 0.27 mg/m3 24.43 °C 82.14 % 1,014.35 mbar 5.5 m/s 52.23 Deg 11.11 µg/m3 1.68 µg/m3
2022-06-18 16:00 14.25 µg/m3 -0.17 µg/m3 96.26 µg/m3 14.67 µg/m3 11.57 µg/m3 0.37 mg/m3 25.01 °C 76.87 % 1,014.03 mbar 5.2 m/s 50.3 Deg 10.48 µg/m3 1.52 µg/m3
2022-06-18 15:00 22.12 µg/m3 -0.14 µg/m3 96.74 µg/m3 17.45 µg/m3 11.41 µg/m3 0.3 mg/m3 26.05 °C 69.3 % 1,014.06 mbar 4.22 m/s 53.1 Deg 14.22 µg/m3 1.52 µg/m3
2022-06-18 14:00 16.32 µg/m3 -0.12 µg/m3 101.64 µg/m3 18.77 µg/m3 11.63 µg/m3 0.31 mg/m3 25.72 °C 70.79 % 1,013.95 mbar 4.66 m/s 47.93 Deg 13.78 µg/m3 1.31 µg/m3
2022-06-18 13:00 15.75 µg/m3 -0.16 µg/m3 92.54 µg/m3 17.72 µg/m3 12.36 µg/m3 0.31 mg/m3 24.69 °C 80.18 % 1,014.44 mbar 4.72 m/s 49.88 Deg 15.05 µg/m3 1.1 µg/m3
2022-06-18 12:00 19.34 µg/m3 -0.15 µg/m3 89.05 µg/m3 16.14 µg/m3 10.31 µg/m3 0.31 mg/m3 24.83 °C 76.74 % 1,014.79 mbar 5.06 m/s 49.68 Deg 15.82 µg/m3 1.23 µg/m3
2022-06-18 11:00 21.98 µg/m3 -0.1 µg/m3 82.81 µg/m3 15.27 µg/m3 9.61 µg/m3 0.22 mg/m3 24.73 °C 76.53 % 1,014.90 mbar 4.79 m/s 56.02 Deg 19.09 µg/m3 1.44 µg/m3
2022-06-18 10:00 32.35 µg/m3 -0.09 µg/m3 84.75 µg/m3 15.64 µg/m3 9.6 µg/m3 0.32 mg/m3 25.05 °C 70.14 % 1,014.94 mbar 3.94 m/s 56.68 Deg 20.57 µg/m3 2.15 µg/m3
2022-06-18 09:00 32.73 µg/m3 0 µg/m3 72.6 µg/m3 17.75 µg/m3 11.13 µg/m3 0.4 mg/m3 24.88 °C 74.46 % 1,014.95 mbar 2.86 m/s 62.07 Deg 29.74 µg/m3 2.28 µg/m3
2022-06-18 08:00 27.71 µg/m3 -0.07 µg/m3 74.38 µg/m3 23.17 µg/m3 13.15 µg/m3 0.34 mg/m3 24.79 °C 75.95 % 1,014.96 mbar 1.71 m/s 56.35 Deg 18.84 µg/m3 1.52 µg/m3
2022-06-18 07:00 21.89 µg/m3 -0.19 µg/m3 68.75 µg/m3 23.44 µg/m3 13.91 µg/m3 0.26 mg/m3 24.79 °C 77.44 % 1,014.76 mbar 0.91 m/s 218.55 Deg 7.74 µg/m3 0.89 µg/m3
2022-06-18 06:00 23.28 µg/m3 -0.26 µg/m3 64.47 µg/m3 18.37 µg/m3 12.72 µg/m3 0.21 mg/m3 24.36 °C 76.35 % 1,014.38 mbar 0.99 m/s 266.1 Deg 2.9 µg/m3 0.79 µg/m3
2022-06-18 05:00 15 µg/m3 -0.25 µg/m3 68.12 µg/m3 15.96 µg/m3 11.46 µg/m3 0.19 mg/m3 24.31 °C 74.44 % 1,014.15 mbar 0.8 m/s 268.1 Deg 2.54 µg/m3 0.47 µg/m3
2022-06-18 04:00 7.52 µg/m3 -0.2 µg/m3 73.6 µg/m3 13.44 µg/m3 10.18 µg/m3 0.14 mg/m3 24.33 °C 75.38 % 1,014.15 mbar 1.45 m/s 226.42 Deg 0.19 µg/m3 0.31 µg/m3
2022-06-18 03:00 6.23 µg/m3 -0.28 µg/m3 79.27 µg/m3 12.61 µg/m3 8.89 µg/m3 0.15 mg/m3 24.63 °C 70.36 % 1,014.59 mbar 1.85 m/s 229.22 Deg 0.19 µg/m3 0.44 µg/m3
2022-06-18 02:00 9.14 µg/m3 -0.25 µg/m3 85.55 µg/m3 15.5 µg/m3 9.65 µg/m3 0.15 mg/m3 24.92 °C 62.3 % 1,015.18 mbar 1.51 m/s 219 Deg 0.27 µg/m3 0.58 µg/m3
2022-06-18 01:00 12.91 µg/m3 -0.25 µg/m3 84.07 µg/m3 16.06 µg/m3 9.81 µg/m3 0.18 mg/m3 25.11 °C 62.91 % 1,015.53 mbar 1.55 m/s 224.65 Deg 0.53 µg/m3 0.73 µg/m3
2022-06-18 00:00 18.07 µg/m3 -0.26 µg/m3 77.41 µg/m3 16.65 µg/m3 10.7 µg/m3 0.21 mg/m3 25.15 °C 66.19 % 1,015.74 mbar 1.63 m/s 234.97 Deg 1.01 µg/m3 0.84 µg/m3
2022-06-17 23:00 15.11 µg/m3 -0.24 µg/m3 78.31 µg/m3 16.07 µg/m3 10.3 µg/m3 0.21 mg/m3 25.26 °C 70.18 % 1,016.29 mbar 1.47 m/s 241.85 Deg 0.76 µg/m3 0.84 µg/m3
2022-06-17 22:00 15.86 µg/m3 -0.27 µg/m3 82.15 µg/m3 17.85 µg/m3 11.6 µg/m3 0.21 mg/m3 25.58 °C 64.33 % 1,016.46 mbar 1.81 m/s 239.3 Deg 1.01 µg/m3 1.03 µg/m3
2022-06-17 21:00 23.92 µg/m3 -0.21 µg/m3 73.53 µg/m3 21.04 µg/m3 10.32 µg/m3 0.25 mg/m3 26.38 °C 51.67 % 1,016.30 mbar 1.53 m/s 232.52 Deg 1.82 µg/m3 1.1 µg/m3
2022-06-17 20:00 27.31 µg/m3 -0.15 µg/m3 69.27 µg/m3 19.86 µg/m3 10.61 µg/m3 0.27 mg/m3 26.49 °C 55.38 % 1,015.97 mbar 2.26 m/s 241.27 Deg 5.28 µg/m3 1.15 µg/m3
2022-06-17 19:00 29.66 µg/m3 -0.2 µg/m3 68.28 µg/m3 23.4 µg/m3 10.95 µg/m3 0.25 mg/m3 27.54 °C 51.3 % 1,016.03 mbar 2.27 m/s 253.25 Deg 4.94 µg/m3 N/A
2022-06-17 18:00 28.1 µg/m3 -0.2 µg/m3 74.41 µg/m3 18.95 µg/m3 8.17 µg/m3 0.25 mg/m3 28.89 °C 41.06 % 1,015.91 mbar 2.17 m/s 262.47 Deg 4.76 µg/m3 N/A
2022-06-17 17:00 25.37 µg/m3 -0.21 µg/m3 77.47 µg/m3 19.42 µg/m3 7.21 µg/m3 0.22 mg/m3 29.46 °C 37.29 % 1,015.88 mbar 2.51 m/s 245.4 Deg 5.54 µg/m3 N/A
2022-06-17 16:00 30.69 µg/m3 -0.17 µg/m3 74.68 µg/m3 27.94 µg/m3 8.5 µg/m3 0.21 mg/m3 29.65 °C 35.69 % 1,016.25 mbar 3.06 m/s 246.6 Deg 8.7 µg/m3 N/A
2022-06-17 15:00 27.03 µg/m3 -0.16 µg/m3 74.97 µg/m3 26.02 µg/m3 6.35 µg/m3 0.2 mg/m3 30.82 °C 29.06 % 1,016.60 mbar 2.73 m/s 257.63 Deg 7.02 µg/m3 N/A
2022-06-17 14:00 26 µg/m3 -0.22 µg/m3 82.65 µg/m3 36.14 µg/m3 7.55 µg/m3 0.2 mg/m3 31.18 °C 30.18 % 1,016.89 mbar 2.35 m/s 259.88 Deg 6.27 µg/m3 N/A
2022-06-17 13:00 24.3 µg/m3 -0.14 µg/m3 87.48 µg/m3 33.27 µg/m3 7.41 µg/m3 0.19 mg/m3 30.66 °C 31.64 % 1,017.26 mbar 2.24 m/s 235.25 Deg 4.55 µg/m3 N/A
2022-06-17 12:00 35.78 µg/m3 -0.17 µg/m3 83.74 µg/m3 29.99 µg/m3 8.12 µg/m3 0.23 mg/m3 30.51 °C 35.71 % 1,017.60 mbar 1.8 m/s 264.15 Deg 7.85 µg/m3 N/A
2022-06-17 11:00 42.23 µg/m3 -0.05 µg/m3 79.79 µg/m3 35.68 µg/m3 10.66 µg/m3 0.23 mg/m3 29.03 °C 45.9 % 1,017.47 mbar 1.91 m/s 340.6 Deg 20.81 µg/m3 N/A
2022-06-17 10:00 43.04 µg/m3 0.23 µg/m3 62.76 µg/m3 24.29 µg/m3 9.64 µg/m3 0.51 mg/m3 26.42 °C 62.26 % 1,017.39 mbar 3 m/s 53.85 Deg 36.5 µg/m3 9.34 µg/m3
2022-06-17 09:00 56.28 µg/m3 0.23 µg/m3 53.77 µg/m3 35.24 µg/m3 11.33 µg/m3 0.41 mg/m3 27.11 °C 56.21 % 1,017.41 mbar 1.68 m/s 32.73 Deg 38.03 µg/m3 2.13 µg/m3
2022-06-17 08:00 57.99 µg/m3 0.02 µg/m3 51.29 µg/m3 46.03 µg/m3 11.63 µg/m3 0.3 mg/m3 27.04 °C 48.96 % 1,017.50 mbar 0.97 m/s 306.3 Deg 21.97 µg/m3 1.31 µg/m3
2022-06-17 07:00 54.15 µg/m3 -0.03 µg/m3 52.21 µg/m3 28.77 µg/m3 8.46 µg/m3 0.33 mg/m3 25.77 °C 51.32 % 1,017.32 mbar 0.94 m/s 290.87 Deg 17 µg/m3 1.31 µg/m3
2022-06-17 06:00 66.57 µg/m3 0.05 µg/m3 39.92 µg/m3 38 µg/m3 11.83 µg/m3 0.44 mg/m3 24.93 °C 49.94 % 1,017.02 mbar 0.54 m/s 124.22 Deg 19.16 µg/m3 1.07 µg/m3
2022-06-17 05:00 34.72 µg/m3 -0.2 µg/m3 48.89 µg/m3 16.98 µg/m3 8.16 µg/m3 0.17 mg/m3 24 °C 61.1 % 1,016.79 mbar 0.69 m/s 246.55 Deg 1.49 µg/m3 0.49 µg/m3
2022-06-17 04:00 13.37 µg/m3 -0.2 µg/m3 73.75 µg/m3 11.69 µg/m3 6.75 µg/m3 0.13 mg/m3 24.03 °C 64.36 % 1,016.63 mbar 0.81 m/s 253.25 Deg 0.42 µg/m3 0.26 µg/m3
2022-06-17 03:00 6.09 µg/m3 -0.27 µg/m3 79.66 µg/m3 9.15 µg/m3 5.54 µg/m3 0.12 mg/m3 23.96 °C 66.46 % 1,016.70 mbar 1.01 m/s 250.23 Deg 0.13 µg/m3 0.28 µg/m3
2022-06-17 02:00 7.39 µg/m3 -0.23 µg/m3 77.27 µg/m3 10.22 µg/m3 6.17 µg/m3 0.13 mg/m3 24.27 °C 65.46 % 1,017.09 mbar 1.01 m/s 242.27 Deg 0.17 µg/m3 0.47 µg/m3
2022-06-17 01:00 21.9 µg/m3 -0.23 µg/m3 67.54 µg/m3 16.16 µg/m3 7.15 µg/m3 0.15 mg/m3 24.77 °C 51.36 % 1,017.58 mbar 0.93 m/s 238.1 Deg 2.47 µg/m3 0.68 µg/m3
2022-06-17 00:00 24.13 µg/m3 -0.26 µg/m3 67.49 µg/m3 16.03 µg/m3 7.33 µg/m3 0.2 mg/m3 25.23 °C 51.33 % 1,017.80 mbar 0.85 m/s 239 Deg 0.8 µg/m3 0.92 µg/m3
2022-06-16 23:00 18.53 µg/m3 -0.25 µg/m3 68.63 µg/m3 18.68 µg/m3 7.91 µg/m3 0.2 mg/m3 24.88 °C 64.1 % 1,017.80 mbar 1.14 m/s 227.02 Deg 0.45 µg/m3 0.79 µg/m3
2022-06-16 22:00 21.55 µg/m3 -0.24 µg/m3 69.3 µg/m3 14.7 µg/m3 7.54 µg/m3 0.23 mg/m3 24.94 °C 66.07 % 1,017.96 mbar 1.25 m/s 249.17 Deg 1.59 µg/m3 0.89 µg/m3
2022-06-16 21:00 25.01 µg/m3 -0.22 µg/m3 67.58 µg/m3 19.71 µg/m3 9.46 µg/m3 0.24 mg/m3 25.13 °C 68.26 % 1,017.59 mbar 1.2 m/s 284.15 Deg 1.95 µg/m3 1 µg/m3
2022-06-16 20:00 26.76 µg/m3 -0.16 µg/m3 69.16 µg/m3 20.7 µg/m3 8.63 µg/m3 0.3 mg/m3 25.43 °C 65.62 % 1,017.32 mbar 1.35 m/s 228.5 Deg 9.11 µg/m3 1.78 µg/m3
2022-06-16 19:00 28.2 µg/m3 -0.11 µg/m3 75.76 µg/m3 21.51 µg/m3 7.29 µg/m3 0.25 mg/m3 26.78 °C 52.12 % 1,017.09 mbar 1.91 m/s 311.17 Deg 8.67 µg/m3 0.65 µg/m3
2022-06-16 18:00 28.16 µg/m3 -0.18 µg/m3 79.91 µg/m3 19.7 µg/m3 5.61 µg/m3 0.19 mg/m3 28.04 °C 37.3 % 1,016.84 mbar 2.28 m/s 262.3 Deg 5.79 µg/m3 0.97 µg/m3
2022-06-16 17:00 31.08 µg/m3 -0.19 µg/m3 81.33 µg/m3 22.28 µg/m3 5.86 µg/m3 0.22 mg/m3 29.62 °C 34 % 1,016.62 mbar 2.23 m/s 249.43 Deg 6.46 µg/m3 0.66 µg/m3
2022-06-16 16:00 26.94 µg/m3 -0.18 µg/m3 88.24 µg/m3 22.75 µg/m3 5.28 µg/m3 0.2 mg/m3 30.11 °C 28.2 % 1,016.79 mbar 2.25 m/s 249.87 Deg 5.5 µg/m3 0.52 µg/m3
2022-06-16 15:00 26.07 µg/m3 -0.19 µg/m3 86.53 µg/m3 24.14 µg/m3 4.75 µg/m3 0.18 mg/m3 29.86 °C 28.01 % 1,017.24 mbar 2.5 m/s 244.45 Deg 5.65 µg/m3 0.65 µg/m3
2022-06-16 14:00 22.13 µg/m3 -0.22 µg/m3 92.35 µg/m3 26.52 µg/m3 5.31 µg/m3 0.16 mg/m3 29.9 °C 29.22 % 1,017.46 mbar 2.41 m/s 240.37 Deg 4.71 µg/m3 0.5 µg/m3
2022-06-16 13:00 29.52 µg/m3 -0.15 µg/m3 85.62 µg/m3 23.55 µg/m3 5.41 µg/m3 0.21 mg/m3 29.29 °C 34.43 % 1,017.60 mbar 2.41 m/s 259.1 Deg 7.19 µg/m3 1.12 µg/m3
2022-06-16 12:00 33.24 µg/m3 -0.07 µg/m3 78.36 µg/m3 28.43 µg/m3 8.38 µg/m3 0.28 mg/m3 27.87 °C 58.24 % 1,017.67 mbar 2.04 m/s 336.83 Deg 17.22 µg/m3 0.97 µg/m3
2022-06-16 11:00 37.84 µg/m3 0.05 µg/m3 78.67 µg/m3 28.99 µg/m3 9.24 µg/m3 0.34 mg/m3 27.1 °C 58.32 % 1,017.57 mbar 2.72 m/s 107.55 Deg 28.18 µg/m3 1.71 µg/m3
2022-06-16 10:00 38.72 µg/m3 0.07 µg/m3 75.97 µg/m3 32.24 µg/m3 9.57 µg/m3 0.31 mg/m3 26.78 °C 59.58 % 1,017.43 mbar 2.4 m/s 27.58 Deg 29.5 µg/m3 0.94 µg/m3
2022-06-16 09:00 40.13 µg/m3 -0.05 µg/m3 72.23 µg/m3 34.6 µg/m3 8.99 µg/m3 0.22 mg/m3 27.2 °C 48.49 % 1,017.47 mbar 1.85 m/s 204.67 Deg 18.23 µg/m3 0.94 µg/m3
2022-06-16 08:00 47.99 µg/m3 -0.15 µg/m3 65.47 µg/m3 32.88 µg/m3 8.03 µg/m3 0.26 mg/m3 26.34 °C 47.54 % 1,017.37 mbar 2.12 m/s 266.05 Deg 11.39 µg/m3 1.84 µg/m3
2022-06-16 07:00 76.08 µg/m3 0.09 µg/m3 41.69 µg/m3 52.59 µg/m3 13.79 µg/m3 0.4 mg/m3 24.96 °C 55.78 % 1,017.08 mbar 1.52 m/s 259.72 Deg 22.47 µg/m3 2.49 µg/m3
2022-06-16 06:00 76.55 µg/m3 -0.03 µg/m3 28.61 µg/m3 57.04 µg/m3 14.89 µg/m3 0.39 mg/m3 23.99 °C 55.63 % 1,016.93 mbar 0.9 m/s 236.67 Deg 16.75 µg/m3 1.66 µg/m3
2022-06-16 05:00 32.82 µg/m3 -0.24 µg/m3 53.67 µg/m3 23.02 µg/m3 9.26 µg/m3 0.15 mg/m3 23.59 °C 63.62 % 1,016.71 mbar 0.71 m/s 225.78 Deg 1.08 µg/m3 0.79 µg/m3
2022-06-16 04:00 14.22 µg/m3 -0.18 µg/m3 82.74 µg/m3 10.94 µg/m3 6.56 µg/m3 0.12 mg/m3 23.74 °C 66.72 % 1,016.68 mbar 1 m/s 249.13 Deg 0.22 µg/m3 0.39 µg/m3
2022-06-16 03:00 11.6 µg/m3 -0.24 µg/m3 86.76 µg/m3 9.6 µg/m3 5.38 µg/m3 0.12 mg/m3 24.18 °C 61.58 % 1,016.73 mbar 0.77 m/s 216.92 Deg 0.09 µg/m3 2.62 µg/m3
2022-06-16 02:00 21.22 µg/m3 -0.15 µg/m3 75.76 µg/m3 10.02 µg/m3 5.72 µg/m3 0.21 mg/m3 24.18 °C 65.72 % 1,016.91 mbar 0.89 m/s 60.75 Deg 2.66 µg/m3 2.62 µg/m3
2022-06-16 01:00 21.5 µg/m3 -0.19 µg/m3 86.03 µg/m3 11.94 µg/m3 5.8 µg/m3 0.23 mg/m3 24.76 °C 58.79 % 1,017.29 mbar 0.45 m/s 190.67 Deg 3.11 µg/m3 4.2 µg/m3
2022-06-16 00:00 25.52 µg/m3 -0.17 µg/m3 86.33 µg/m3 13.41 µg/m3 6.23 µg/m3 0.23 mg/m3 24.98 °C 57.49 % 1,017.94 mbar 0.81 m/s 229.1 Deg 2.25 µg/m3 3.28 µg/m3
2022-06-15 23:00 31.25 µg/m3 -0.09 µg/m3 82.99 µg/m3 12.18 µg/m3 6.41 µg/m3 0.27 mg/m3 25.12 °C 60.29 % 1,018.03 mbar 0.85 m/s 37.85 Deg 12.12 µg/m3 0.76 µg/m3
2022-06-15 22:00 27.85 µg/m3 -0.11 µg/m3 88.78 µg/m3 12.12 µg/m3 5.99 µg/m3 0.24 mg/m3 25.45 °C 56.65 % 1,018.12 mbar 0.86 m/s 332.53 Deg 10 µg/m3 1.33 µg/m3
2022-06-15 21:00 39.15 µg/m3 -0.12 µg/m3 86.23 µg/m3 13.82 µg/m3 6.01 µg/m3 0.29 mg/m3 25.72 °C 54.75 % 1,017.83 mbar 1.03 m/s 340.1 Deg 10.69 µg/m3 0.71 µg/m3
2022-06-15 20:00 31.08 µg/m3 -0.18 µg/m3 98.36 µg/m3 14.29 µg/m3 5.89 µg/m3 0.22 mg/m3 26.23 °C 46.24 % 1,017.41 mbar 1.63 m/s 320.8 Deg 4.21 µg/m3 0.84 µg/m3
2022-06-15 19:00 50.18 µg/m3 -0.08 µg/m3 80.99 µg/m3 18.09 µg/m3 6.9 µg/m3 0.32 mg/m3 27.56 °C 36.88 % 1,017.27 mbar 1.27 m/s 253.37 Deg 18.42 µg/m3 0.89 µg/m3
2022-06-15 18:00 40.88 µg/m3 -0.03 µg/m3 90.1 µg/m3 19.44 µg/m3 7.22 µg/m3 0.31 mg/m3 27.66 °C 47.58 % 1,017.25 mbar 1.72 m/s 340.47 Deg 16.4 µg/m3 1.18 µg/m3
2022-06-15 17:00 39.6 µg/m3 0.08 µg/m3 90.81 µg/m3 18.02 µg/m3 7.29 µg/m3 0.41 mg/m3 27.8 °C 46.86 % 1,017.27 mbar 2.39 m/s 111.55 Deg 24.46 µg/m3 3.83 µg/m3
2022-06-15 16:00 42.36 µg/m3 0.07 µg/m3 98.72 µg/m3 16.15 µg/m3 7.68 µg/m3 0.39 mg/m3 27.24 °C 46.52 % 1,017.45 mbar 3.15 m/s 52.78 Deg 28.45 µg/m3 1.45 µg/m3
2022-06-15 15:00 49.39 µg/m3 0.1 µg/m3 95.28 µg/m3 15.72 µg/m3 7.41 µg/m3 0.32 mg/m3 27.23 °C 44.09 % 1,017.74 mbar 3.2 m/s 55 Deg 28.36 µg/m3 1.36 µg/m3
2022-06-15 14:00 44.07 µg/m3 0.09 µg/m3 94.7 µg/m3 13.76 µg/m3 5.96 µg/m3 0.31 mg/m3 27.22 °C 40.61 % 1,018.14 mbar 2.72 m/s 47.73 Deg 26.94 µg/m3 8.08 µg/m3
2022-06-15 13:00 31.39 µg/m3 0.13 µg/m3 91.89 µg/m3 15.77 µg/m3 6.65 µg/m3 0.32 mg/m3 26.65 °C 49.15 % 1,018.36 mbar 2.86 m/s 44.53 Deg 32.09 µg/m3 2.36 µg/m3
2022-06-15 12:00 45.59 µg/m3 0.2 µg/m3 78.43 µg/m3 19.32 µg/m3 7.31 µg/m3 0.36 mg/m3 27.9 °C 41.13 % 1,018.34 mbar 2.52 m/s 32.6 Deg 34.97 µg/m3 2.99 µg/m3
2022-06-15 11:00 45.07 µg/m3 0.18 µg/m3 79.45 µg/m3 25.74 µg/m3 8.88 µg/m3 0.24 mg/m3 28.31 °C 40.59 % 1,018.36 mbar 2.35 m/s 106.77 Deg 33.46 µg/m3 36.11 µg/m3
2022-06-15 10:00 40.1 µg/m3 0.12 µg/m3 79.41 µg/m3 24.95 µg/m3 8.48 µg/m3 0.27 mg/m3 28.07 °C 40.65 % 1,018.00 mbar 1.76 m/s 259.88 Deg 27.38 µg/m3 0 µg/m3
2022-06-15 09:00 0 µg/m3 0 µg/m3 0 µg/m3 29.89 µg/m3 9.7 µg/m3 0 mg/m3 27.59 °C 42.83 % 1,017.60 mbar 1.4 m/s 103.13 Deg 0 µg/m3 1.68 µg/m3
2022-06-15 08:00 0 µg/m3 0 µg/m3 0 µg/m3 52.46 µg/m3 14.95 µg/m3 0 mg/m3 27.04 °C 49.76 % 1,017.41 mbar 0.94 m/s 247.53 Deg 0 µg/m3 1.5 µg/m3
2022-06-15 07:00 76.31 µg/m3 0.4 µg/m3 37.57 µg/m3 50.47 µg/m3 14.38 µg/m3 0.52 mg/m3 26.01 °C 49.63 % 1,017.15 mbar 0.65 m/s 217.95 Deg 28.96 µg/m3 5.95 µg/m3
2022-06-15 06:00 106.81 µg/m3 1.22 µg/m3 4.75 µg/m3 64.68 µg/m3 22.3 µg/m3 0.79 mg/m3 24.45 °C 52.41 % 1,016.79 mbar 0.17 m/s 182.77 Deg 105.97 µg/m3 5.32 µg/m3
2022-06-15 05:00 54.25 µg/m3 -0.06 µg/m3 30.21 µg/m3 33.58 µg/m3 14.07 µg/m3 0.24 mg/m3 23.89 °C 50.55 % 1,016.47 mbar 0.58 m/s 226.28 Deg 9.91 µg/m3 1.94 µg/m3
2022-06-15 04:00 30.02 µg/m3 -0.14 µg/m3 58.57 µg/m3 22.08 µg/m3 10.28 µg/m3 0.17 mg/m3 24.15 °C 49.91 % 1,016.18 mbar 0.7 m/s 235.23 Deg 1.23 µg/m3 0.98 µg/m3
2022-06-15 03:00 9.34 µg/m3 -0.22 µg/m3 82.83 µg/m3 19.27 µg/m3 9.7 µg/m3 0.15 mg/m3 24.08 °C 53.82 % 1,016.16 mbar 0.77 m/s 221.73 Deg 0.01 µg/m3 0.79 µg/m3
2022-06-15 02:00 13.99 µg/m3 -0.31 µg/m3 81.65 µg/m3 21.89 µg/m3 12.46 µg/m3 0.18 mg/m3 24.21 °C 66.5 % 1,016.29 mbar 0.56 m/s 245.5 Deg 0.19 µg/m3 0.77 µg/m3
2022-06-15 01:00 11.83 µg/m3 -0.22 µg/m3 104.12 µg/m3 17.26 µg/m3 10.16 µg/m3 0.18 mg/m3 24.25 °C 68.06 % 1,016.46 mbar 0.82 m/s 293.43 Deg 0.62 µg/m3 0.52 µg/m3
2022-06-15 00:00 9.64 µg/m3 -0.33 µg/m3 109.16 µg/m3 16.63 µg/m3 11.66 µg/m3 0.18 mg/m3 24.24 °C 73.33 % 1,016.66 mbar 0.86 m/s 257.55 Deg 0.2 µg/m3 0.47 µg/m3
2022-06-14 23:00 17.82 µg/m3 -0.22 µg/m3 103.84 µg/m3 16.32 µg/m3 11.69 µg/m3 0.24 mg/m3 24.36 °C 77.01 % 1,016.77 mbar 0.96 m/s 310.38 Deg 2.52 µg/m3 0.86 µg/m3
2022-06-14 22:00 25.05 µg/m3 -0.2 µg/m3 101.98 µg/m3 18.5 µg/m3 12.21 µg/m3 0.27 mg/m3 24.87 °C 73.01 % 1,016.53 mbar 1.17 m/s 322.57 Deg 5.26 µg/m3 0.98 µg/m3
2022-06-14 21:00 29.88 µg/m3 -0.19 µg/m3 97.28 µg/m3 25.08 µg/m3 13.03 µg/m3 0.28 mg/m3 25.13 °C 69.44 % 1,015.83 mbar 1.2 m/s 293.32 Deg 3.54 µg/m3 1.08 µg/m3
2022-06-14 20:00 36.8 µg/m3 -0.17 µg/m3 88.48 µg/m3 25.31 µg/m3 11.63 µg/m3 0.27 mg/m3 25.9 °C 65.82 % 1,015.32 mbar 1.18 m/s 290.62 Deg 6.62 µg/m3 1.15 µg/m3
2022-06-14 19:00 40.58 µg/m3 -0.06 µg/m3 81.45 µg/m3 27.58 µg/m3 10.84 µg/m3 0.31 mg/m3 27.08 °C 49.05 % 1,014.96 mbar 1.5 m/s 138.13 Deg 18.6 µg/m3 0.81 µg/m3
2022-06-14 18:00 42.44 µg/m3 0.01 µg/m3 81.21 µg/m3 23.96 µg/m3 9.48 µg/m3 0.31 mg/m3 28.13 °C 40.35 % 1,014.64 mbar 2.1 m/s 271.45 Deg 18.95 µg/m3 1.75 µg/m3
2022-06-14 17:00 38.4 µg/m3 0.06 µg/m3 83.18 µg/m3 21.62 µg/m3 9.83 µg/m3 0.45 mg/m3 27.74 °C 46.4 % 1,014.50 mbar 3 m/s 50.02 Deg 29.71 µg/m3 2.05 µg/m3
2022-06-14 16:00 37.86 µg/m3 -0.04 µg/m3 103.96 µg/m3 21.76 µg/m3 9.99 µg/m3 0.33 mg/m3 26.59 °C 62.52 % 1,014.65 mbar 3.14 m/s 47.87 Deg 23.08 µg/m3 0.7 µg/m3
2022-06-14 15:00 27.64 µg/m3 -0.1 µg/m3 100 µg/m3 16.21 µg/m3 8.83 µg/m3 0.31 mg/m3 25.51 °C 66.87 % 1,014.96 mbar 4.17 m/s 50.13 Deg 23.43 µg/m3 1 µg/m3
2022-06-14 14:00 32.66 µg/m3 -0.07 µg/m3 98.73 µg/m3 15.94 µg/m3 8.45 µg/m3 0.3 mg/m3 25.38 °C 64.56 % 1,015.23 mbar 3.78 m/s 54.72 Deg 25.24 µg/m3 0.77 µg/m3
2022-06-14 13:00 38.85 µg/m3 0.01 µg/m3 95.76 µg/m3 17.14 µg/m3 9.55 µg/m3 0.33 mg/m3 24.71 °C 69.81 % 1,015.40 mbar 3.36 m/s 64.4 Deg 30.47 µg/m3 4.34 µg/m3
2022-06-14 12:00 42.59 µg/m3 0.04 µg/m3 94.09 µg/m3 17.77 µg/m3 10.06 µg/m3 0.33 mg/m3 24.5 °C 70.68 % 1,015.40 mbar 3.02 m/s 62.18 Deg 30.44 µg/m3 1 µg/m3
2022-06-14 11:00 36.96 µg/m3 -0 µg/m3 89.88 µg/m3 22.77 µg/m3 11.23 µg/m3 0.25 mg/m3 24.61 °C 68.88 % 1,015.40 mbar 3.03 m/s 55.92 Deg 31.32 µg/m3 0.63 µg/m3
2022-06-14 10:00 52.28 µg/m3 0.08 µg/m3 86.92 µg/m3 20.29 µg/m3 10.47 µg/m3 0.31 mg/m3 24.62 °C 64.1 % 1,015.30 mbar 2.27 m/s 57.82 Deg 30.51 µg/m3 1.71 µg/m3
2022-06-14 09:00 43.9 µg/m3 0.1 µg/m3 81.99 µg/m3 21.69 µg/m3 10.89 µg/m3 0.41 mg/m3 23.72 °C 70.91 % 1,015.09 mbar 1.98 m/s 57.9 Deg 33.08 µg/m3 0.68 µg/m3
2022-06-14 08:00 41.05 µg/m3 0.06 µg/m3 74.22 µg/m3 28.35 µg/m3 12.73 µg/m3 0.35 mg/m3 23.22 °C 76.81 % 1,014.83 mbar 1.93 m/s 42.45 Deg 29.57 µg/m3 3.7 µg/m3
2022-06-14 07:00 49.08 µg/m3 0.08 µg/m3 59.53 µg/m3 26.88 µg/m3 14.56 µg/m3 0.41 mg/m3 23.31 °C 77.36 % 1,014.58 mbar 1.45 m/s 179.3 Deg 29.14 µg/m3 1.96 µg/m3
2022-06-14 06:00 42.83 µg/m3 -0.02 µg/m3 54.64 µg/m3 22.74 µg/m3 15.22 µg/m3 0.36 mg/m3 22.69 °C 80.54 % 1,013.89 mbar 0.96 m/s 39.98 Deg 22.48 µg/m3 1.18 µg/m3
2022-06-14 05:00 21.95 µg/m3 -0.08 µg/m3 77.63 µg/m3 19.08 µg/m3 12.95 µg/m3 0.23 mg/m3 22.36 °C 79.32 % 1,013.68 mbar 1.07 m/s 57.32 Deg 9.51 µg/m3 1.6 µg/m3
2022-06-14 04:00 17.76 µg/m3 -0.11 µg/m3 81.3 µg/m3 16.87 µg/m3 11.5 µg/m3 0.16 mg/m3 22.71 °C 75.77 % 1,013.54 mbar 0.71 m/s 116.01 Deg 3.45 µg/m3 1.57 µg/m3
2022-06-14 03:00 12.02 µg/m3 -0.25 µg/m3 85.9 µg/m3 15.79 µg/m3 10.69 µg/m3 0.15 mg/m3 22.76 °C 75.29 % 1,013.53 mbar 0.56 m/s 137.35 Deg 1.8 µg/m3 0.49 µg/m3
2022-06-14 02:00 4.85 µg/m3 -0.23 µg/m3 100.12 µg/m3 15.33 µg/m3 10.31 µg/m3 0.12 mg/m3 22.87 °C 75.23 % 1,013.68 mbar 0.76 m/s 183.1 Deg 0.01 µg/m3 0.39 µg/m3
2022-06-14 01:00 7.48 µg/m3 -0.26 µg/m3 99.06 µg/m3 16.79 µg/m3 10.53 µg/m3 0.15 mg/m3 23.12 °C 71.7 % 1,013.93 mbar 0.7 m/s 208.37 Deg 0.24 µg/m3 0.58 µg/m3
2022-06-14 00:00 6.96 µg/m3 -0.2 µg/m3 103.31 µg/m3 19.03 µg/m3 10.04 µg/m3 0.14 mg/m3 23.21 °C 69.74 % 1,014.09 mbar 1.54 m/s 225.08 Deg 0.17 µg/m3 0.42 µg/m3
2022-06-13 23:00 10.47 µg/m3 -0.14 µg/m3 98.6 µg/m3 19.58 µg/m3 9.96 µg/m3 0.15 mg/m3 24.04 °C 64.31 % 1,014.12 mbar 2.03 m/s 206.1 Deg 0.19 µg/m3 0.63 µg/m3
2022-06-13 22:00 22.18 µg/m3 -0.16 µg/m3 85.55 µg/m3 35.13 µg/m3 13.63 µg/m3 0.21 mg/m3 25.34 °C 51.29 % 1,014.39 mbar 1.55 m/s 224.1 Deg 0.62 µg/m3 1.42 µg/m3
2022-06-13 21:00 53.58 µg/m3 0.02 µg/m3 67.55 µg/m3 39.25 µg/m3 14.05 µg/m3 0.35 mg/m3 25.29 °C 60.11 % 1,014.18 mbar 1.1 m/s 83.78 Deg 10.68 µg/m3 4.09 µg/m3
2022-06-13 20:00 51.84 µg/m3 0.02 µg/m3 75.72 µg/m3 31.89 µg/m3 13.18 µg/m3 0.46 mg/m3 25.85 °C 58.7 % 1,014.08 mbar 1.39 m/s 110.4 Deg 16.46 µg/m3 1.66 µg/m3
2022-06-13 19:00 34.21 µg/m3 -0.12 µg/m3 91.9 µg/m3 35.41 µg/m3 12.35 µg/m3 0.26 mg/m3 27.77 °C 42.86 % 1,013.91 mbar 1.3 m/s 265.72 Deg 4.61 µg/m3 1.28 µg/m3
2022-06-13 18:00 40.53 µg/m3 -0.08 µg/m3 91.57 µg/m3 36.06 µg/m3 12.11 µg/m3 0.25 mg/m3 28.04 °C 45.1 % 1,013.86 mbar 1.6 m/s 283.08 Deg 7.13 µg/m3 1.36 µg/m3
2022-06-13 17:00 28.03 µg/m3 -0.1 µg/m3 93.78 µg/m3 24 µg/m3 8.39 µg/m3 0.22 mg/m3 28.54 °C 37.44 % 1,013.83 mbar 2.55 m/s 253.4 Deg 4.39 µg/m3 1 µg/m3
2022-06-13 16:00 47.69 µg/m3 0.06 µg/m3 83.89 µg/m3 32.15 µg/m3 11.44 µg/m3 0.32 mg/m3 27.7 °C 48.86 % 1,013.95 mbar 2.34 m/s 74.07 Deg 24.76 µg/m3 2.5 µg/m3
2022-06-13 15:00 34.17 µg/m3 -0.02 µg/m3 98.8 µg/m3 32.66 µg/m3 10.51 µg/m3 0.28 mg/m3 28.91 °C 41.2 % 1,014.10 mbar 1.95 m/s 265.23 Deg 15.1 µg/m3 2.12 µg/m3
2022-06-13 14:00 47.52 µg/m3 0.16 µg/m3 89.37 µg/m3 29.26 µg/m3 10.52 µg/m3 0.32 mg/m3 28.03 °C 42.17 % 1,014.55 mbar 2.08 m/s 184.28 Deg 31.48 µg/m3 0.82 µg/m3
2022-06-13 13:00 31.27 µg/m3 0.02 µg/m3 95.23 µg/m3 26.47 µg/m3 9.77 µg/m3 0.24 mg/m3 27.5 °C 42.15 % 1,014.97 mbar 2.24 m/s 242.33 Deg 11.25 µg/m3 1.52 µg/m3
2022-06-13 12:00 43.78 µg/m3 0.1 µg/m3 83.98 µg/m3 30.17 µg/m3 11.64 µg/m3 0.31 mg/m3 27.17 °C 43.97 % 1,015.27 mbar 2.31 m/s 184.83 Deg 25.82 µg/m3 0.92 µg/m3
2022-06-13 11:00 33.43 µg/m3 -0.05 µg/m3 91.97 µg/m3 59.07 µg/m3 14.54 µg/m3 0.21 mg/m3 26.54 °C 46.21 % 1,015.40 mbar 2.05 m/s 250.67 Deg 16.21 µg/m3 2.55 µg/m3
2022-06-13 10:00 35.84 µg/m3 0.04 µg/m3 85.47 µg/m3 37.18 µg/m3 12.92 µg/m3 0.29 mg/m3 26.12 °C 47.82 % 1,015.28 mbar 1.98 m/s 86.15 Deg 22.81 µg/m3 0.89 µg/m3
2022-06-13 09:00 35.09 µg/m3 -0.1 µg/m3 79.43 µg/m3 32.96 µg/m3 11.63 µg/m3 0.24 mg/m3 25.33 °C 54.71 % 1,015.15 mbar 1.85 m/s 311.35 Deg 12.1 µg/m3 1.33 µg/m3
2022-06-13 08:00 41 µg/m3 -0.06 µg/m3 69.82 µg/m3 33.38 µg/m3 12.34 µg/m3 0.25 mg/m3 24.56 °C 60.44 % 1,014.92 mbar 1.89 m/s 314.48 Deg 14.95 µg/m3 1.02 µg/m3
2022-06-13 07:00 52.27 µg/m3 0.1 µg/m3 61.42 µg/m3 40.07 µg/m3 15.62 µg/m3 0.4 mg/m3 23.85 °C 61.49 % 1,014.52 mbar 1.49 m/s 105.97 Deg 26.96 µg/m3 3.88 µg/m3
2022-06-13 06:00 58.35 µg/m3 -0 µg/m3 54.42 µg/m3 26.87 µg/m3 13.28 µg/m3 0.36 mg/m3 23.18 °C 64.97 % 1,013.95 mbar 1.19 m/s 49.85 Deg 24.47 µg/m3 1.87 µg/m3
2022-06-13 05:00 32.78 µg/m3 -0.08 µg/m3 68.6 µg/m3 23.11 µg/m3 12.41 µg/m3 0.21 mg/m3 22.72 °C 68.08 % 1,013.62 mbar 1.13 m/s 56.07 Deg 16.19 µg/m3 1.03 µg/m3
2022-06-13 04:00 14.76 µg/m3 -0.16 µg/m3 91.88 µg/m3 20.22 µg/m3 12.01 µg/m3 0.15 mg/m3 22.76 °C 69.93 % 1,013.40 mbar 1.6 m/s 50.63 Deg 4.76 µg/m3 0.86 µg/m3
2022-06-13 03:00 9.82 µg/m3 -0.24 µg/m3 91 µg/m3 22.86 µg/m3 13.43 µg/m3 0.14 mg/m3 22.81 °C 72.02 % 1,013.52 mbar 1.43 m/s 50.27 Deg 3.38 µg/m3 0.39 µg/m3
2022-06-13 02:00 9.57 µg/m3 -0.19 µg/m3 90.05 µg/m3 22.67 µg/m3 14.25 µg/m3 0.14 mg/m3 23.1 °C 72.61 % 1,013.88 mbar 0.81 m/s 98.08 Deg 0.54 µg/m3 0.31 µg/m3
2022-06-13 01:00 7.26 µg/m3 -0.24 µg/m3 94.22 µg/m3 21.2 µg/m3 14.15 µg/m3 0.14 mg/m3 22.92 °C 75.73 % 1,014.32 mbar 1.1 m/s 272.27 Deg 0.14 µg/m3 0.26 µg/m3
2022-06-13 00:00 11.81 µg/m3 -0.2 µg/m3 91.98 µg/m3 22.65 µg/m3 11.97 µg/m3 0.15 mg/m3 23.51 °C 66.38 % 1,014.77 mbar 1.55 m/s 251.6 Deg 0.67 µg/m3 0.52 µg/m3
2022-06-12 23:00 17.78 µg/m3 -0.18 µg/m3 86.81 µg/m3 23.63 µg/m3 12.65 µg/m3 0.18 mg/m3 23.79 °C 61.55 % 1,014.96 mbar 2.02 m/s 269.42 Deg 2.08 µg/m3 1.15 µg/m3
2022-06-12 22:00 20.47 µg/m3 -0.22 µg/m3 88.4 µg/m3 27.77 µg/m3 14.09 µg/m3 0.2 mg/m3 24.72 °C 57.11 % 1,014.93 mbar 2.09 m/s 274.78 Deg 1.68 µg/m3 0.79 µg/m3
2022-06-12 21:00 26.05 µg/m3 -0.21 µg/m3 89.42 µg/m3 28.17 µg/m3 14.35 µg/m3 0.26 mg/m3 25.16 °C 55.05 % 1,014.83 mbar 1.44 m/s 280.95 Deg 3.5 µg/m3 0.92 µg/m3
2022-06-12 20:00 22.42 µg/m3 -0.23 µg/m3 91.73 µg/m3 29.71 µg/m3 13.15 µg/m3 0.22 mg/m3 25.32 °C 56.7 % 1,014.43 mbar 2.24 m/s 251.97 Deg 1.78 µg/m3 1 µg/m3
2022-06-12 19:00 21.22 µg/m3 -0.15 µg/m3 92.31 µg/m3 32.85 µg/m3 13.74 µg/m3 0.23 mg/m3 26.26 °C 53.59 % 1,014.35 mbar 2.33 m/s 253.03 Deg 1.69 µg/m3 0.66 µg/m3
2022-06-12 18:00 19.46 µg/m3 -0.19 µg/m3 92.25 µg/m3 24.34 µg/m3 11.31 µg/m3 0.23 mg/m3 27.53 °C 46.66 % 1,014.33 mbar 2.46 m/s 259.2 Deg 2.74 µg/m3 0.68 µg/m3
2022-06-12 17:00 18.34 µg/m3 -0.18 µg/m3 98.98 µg/m3 26.85 µg/m3 11.43 µg/m3 0.2 mg/m3 28.06 °C 47.17 % 1,014.47 mbar 2.88 m/s 263.38 Deg 2.8 µg/m3 0.52 µg/m3
2022-06-12 16:00 17.4 µg/m3 -0.19 µg/m3 98.69 µg/m3 28.48 µg/m3 13.02 µg/m3 0.2 mg/m3 28.36 °C 50.96 % 1,014.76 mbar 2.23 m/s 297.23 Deg 3.77 µg/m3 0.52 µg/m3
2022-06-12 15:00 15.69 µg/m3 -0.15 µg/m3 97.66 µg/m3 19.68 µg/m3 9.22 µg/m3 0.2 mg/m3 28.72 °C 43.26 % 1,015.04 mbar 2.06 m/s 239.88 Deg 6.32 µg/m3 0.37 µg/m3
2022-06-12 14:00 16.82 µg/m3 -0.15 µg/m3 99.74 µg/m3 14.77 µg/m3 7.17 µg/m3 0.19 mg/m3 28.28 °C 37.11 % 1,015.32 mbar 2.22 m/s 328.45 Deg 5.78 µg/m3 0.39 µg/m3
2022-06-12 13:00 10.87 µg/m3 -0.19 µg/m3 100.61 µg/m3 15.63 µg/m3 6.92 µg/m3 0.17 mg/m3 27.55 °C 38.55 % 1,015.76 mbar 2.88 m/s 313.92 Deg 2.7 µg/m3 0.84 µg/m3
2022-06-12 12:00 13.55 µg/m3 -0.21 µg/m3 98.9 µg/m3 18.13 µg/m3 7.97 µg/m3 0.21 mg/m3 26.87 °C 43.9 % 1,016.15 mbar 2.49 m/s 312.88 Deg 3.96 µg/m3 0.55 µg/m3
2022-06-12 11:00 14.58 µg/m3 -0.2 µg/m3 96.86 µg/m3 15.51 µg/m3 7.09 µg/m3 0.16 mg/m3 26.33 °C 44.71 % 1,016.27 mbar 2.64 m/s 310.82 Deg 4.17 µg/m3 0.52 µg/m3
2022-06-12 10:00 15.57 µg/m3 -0.22 µg/m3 92.22 µg/m3 17.86 µg/m3 7.81 µg/m3 0.21 mg/m3 25.73 °C 47.61 % 1,016.26 mbar 2.68 m/s 305.75 Deg 3.4 µg/m3 1.03 µg/m3
2022-06-12 09:00 20.36 µg/m3 -0.23 µg/m3 82.46 µg/m3 24.37 µg/m3 10.64 µg/m3 0.26 mg/m3 26.03 °C 53.02 % 1,016.09 mbar 1.8 m/s 307.1 Deg 8.57 µg/m3 1 µg/m3
2022-06-12 08:00 18.73 µg/m3 -0.26 µg/m3 77.92 µg/m3 27.63 µg/m3 12.55 µg/m3 0.23 mg/m3 24.45 °C 65.07 % 1,015.93 mbar 1.82 m/s 259.47 Deg 2.7 µg/m3 0.89 µg/m3
2022-06-12 07:00 18.07 µg/m3 -0.32 µg/m3 71.24 µg/m3 25.4 µg/m3 15.22 µg/m3 0.2 mg/m3 23.21 °C 76.57 % 1,015.63 mbar 1.2 m/s 275.82 Deg 1.87 µg/m3 1.03 µg/m3
2022-06-12 06:00 26.27 µg/m3 -0.29 µg/m3 57.61 µg/m3 26.52 µg/m3 17.75 µg/m3 0.22 mg/m3 22.65 °C 77.52 % 1,015.35 mbar 0.81 m/s 275.58 Deg 2.43 µg/m3 0.94 µg/m3
2022-06-12 05:00 24.14 µg/m3 -0.23 µg/m3 62.31 µg/m3 25.6 µg/m3 17.14 µg/m3 0.21 mg/m3 22.25 °C 79.11 % 1,014.89 mbar 0.68 m/s 249.27 Deg 2.59 µg/m3 1.03 µg/m3
2022-06-12 04:00 20.8 µg/m3 -0.18 µg/m3 71.46 µg/m3 26.35 µg/m3 17.88 µg/m3 0.2 mg/m3 22.2 °C 80.14 % 1,014.76 mbar 0.7 m/s 45.72 Deg 6.28 µg/m3 0.68 µg/m3
2022-06-12 03:00 12.1 µg/m3 -0.27 µg/m3 79.15 µg/m3 26.76 µg/m3 18 µg/m3 0.16 mg/m3 21.96 °C 82.86 % 1,014.92 mbar 0.84 m/s 39.29 Deg 3.1 µg/m3 0.66 µg/m3
2022-06-12 02:00 19.19 µg/m3 -0.22 µg/m3 78.35 µg/m3 26.58 µg/m3 18.03 µg/m3 0.17 mg/m3 21.89 °C 82.52 % 1,015.00 mbar 1.37 m/s 55.3 Deg 7.15 µg/m3 0.58 µg/m3
2022-06-12 01:00 17.34 µg/m3 -0.16 µg/m3 82.55 µg/m3 24.73 µg/m3 16.92 µg/m3 0.22 mg/m3 22.16 °C 79.39 % 1,015.25 mbar 1.53 m/s 47.72 Deg 7.99 µg/m3 1.05 µg/m3
2022-06-12 00:00 21.59 µg/m3 -0.22 µg/m3 79.93 µg/m3 25.74 µg/m3 16.41 µg/m3 0.22 mg/m3 22.92 °C 74.99 % 1,015.18 mbar 1.13 m/s 168.62 Deg 5.5 µg/m3 0.89 µg/m3
2022-06-11 23:00 22.29 µg/m3 -0.24 µg/m3 77.29 µg/m3 31.74 µg/m3 17.23 µg/m3 0.26 mg/m3 23.14 °C 71.89 % 1,014.90 mbar 1.62 m/s 271.52 Deg 3.12 µg/m3 0.73 µg/m3
2022-06-11 22:00 15.79 µg/m3 -0.21 µg/m3 82.35 µg/m3 27.55 µg/m3 18.15 µg/m3 0.2 mg/m3 23 °C 74.78 % 1,014.68 mbar 3.03 m/s 259.97 Deg 1.45 µg/m3 0.79 µg/m3
2022-06-11 21:00 18.83 µg/m3 -0.19 µg/m3 83.58 µg/m3 29.83 µg/m3 17.92 µg/m3 0.21 mg/m3 23.23 °C 72.49 % 1,014.49 mbar 3.18 m/s 264.05 Deg 3.15 µg/m3 0.76 µg/m3
2022-06-11 20:00 18.64 µg/m3 -0.2 µg/m3 87.37 µg/m3 27.68 µg/m3 15.57 µg/m3 0.21 mg/m3 23.62 °C 69.37 % 1,014.23 mbar 3.61 m/s 251.65 Deg 2.07 µg/m3 0.81 µg/m3
2022-06-11 19:00 21.94 µg/m3 -0.2 µg/m3 86.06 µg/m3 27.76 µg/m3 14 µg/m3 0.23 mg/m3 24.79 °C 64.43 % 1,014.05 mbar 3.02 m/s 252.68 Deg 2.74 µg/m3 0.89 µg/m3
2022-06-11 18:00 16.51 µg/m3 -0.19 µg/m3 90.35 µg/m3 30.56 µg/m3 14.71 µg/m3 0.21 mg/m3 26.02 °C 59.8 % 1,013.85 mbar 2.98 m/s 255.95 Deg 2.44 µg/m3 0.6 µg/m3
2022-06-11 17:00 14.9 µg/m3 -0.19 µg/m3 90.1 µg/m3 33.45 µg/m3 15.42 µg/m3 0.2 mg/m3 27.28 °C 53 % 1,013.57 mbar 3.49 m/s 257.33 Deg 2.52 µg/m3 0.89 µg/m3
2022-06-11 16:00 15.9 µg/m3 -0.22 µg/m3 90.04 µg/m3 39.72 µg/m3 16.75 µg/m3 0.19 mg/m3 27.74 °C 52.02 % 1,013.58 mbar 3.37 m/s 267.4 Deg 2.93 µg/m3 0.89 µg/m3
2022-06-11 15:00 19.55 µg/m3 -0.16 µg/m3 90.25 µg/m3 46.9 µg/m3 19.2 µg/m3 0.21 mg/m3 27.71 °C 53.99 % 1,013.69 mbar 2.34 m/s 300.38 Deg 5.93 µg/m3 0.84 µg/m3
2022-06-11 14:00 20.1 µg/m3 -0.15 µg/m3 89.44 µg/m3 50.24 µg/m3 20.7 µg/m3 0.24 mg/m3 27.38 °C 55.96 % 1,013.85 mbar 2.34 m/s 310.78 Deg 6.77 µg/m3 0.71 µg/m3
2022-06-11 13:00 16.33 µg/m3 -0.15 µg/m3 90.16 µg/m3 38.2 µg/m3 14.56 µg/m3 0.2 mg/m3 26.94 °C 52.3 % 1,013.89 mbar 2.77 m/s 292.5 Deg 4.65 µg/m3 0.52 µg/m3
2022-06-11 12:00 17.97 µg/m3 -0.13 µg/m3 86.64 µg/m3 30.84 µg/m3 10.49 µg/m3 0.2 mg/m3 26.49 °C 48.87 % 1,014.09 mbar 3.16 m/s 279.28 Deg 4.61 µg/m3 0.66 µg/m3
2022-06-11 11:00 19.78 µg/m3 -0.11 µg/m3 84.14 µg/m3 41.68 µg/m3 12.03 µg/m3 0.15 mg/m3 25.57 °C 56.95 % 1,014.10 mbar 3.28 m/s 292.53 Deg 5.66 µg/m3 0.63 µg/m3
2022-06-11 10:00 18.77 µg/m3 -0.13 µg/m3 85.94 µg/m3 38.08 µg/m3 11.08 µg/m3 0.2 mg/m3 24.85 °C 60.71 % 1,013.93 mbar 3.7 m/s 299.6 Deg 5.27 µg/m3 0.81 µg/m3
2022-06-11 09:00 21.39 µg/m3 -0.18 µg/m3 80.31 µg/m3 39.88 µg/m3 10.77 µg/m3 0.19 mg/m3 24.62 °C 59.95 % 1,013.55 mbar 3.41 m/s 292.9 Deg 5.07 µg/m3 0.86 µg/m3
2022-06-11 08:00 22.82 µg/m3 -0.18 µg/m3 76.68 µg/m3 32.14 µg/m3 9.87 µg/m3 0.2 mg/m3 24.03 °C 63.47 % 1,013.24 mbar 2.71 m/s 276.15 Deg 5.43 µg/m3 0.63 µg/m3
2022-06-11 07:00 23.9 µg/m3 -0.22 µg/m3 72.43 µg/m3 30.15 µg/m3 10.26 µg/m3 0.18 mg/m3 23.16 °C 66.92 % 1,012.69 mbar 2.44 m/s 273.9 Deg 3.54 µg/m3 1.15 µg/m3
2022-06-11 06:00 29.52 µg/m3 -0.19 µg/m3 62.51 µg/m3 28.99 µg/m3 12.08 µg/m3 0.21 mg/m3 22.09 °C 72.51 % 1,012.31 mbar 1.85 m/s 246.53 Deg 4.04 µg/m3 0.68 µg/m3
2022-06-11 05:00 17.23 µg/m3 -0.27 µg/m3 73.38 µg/m3 17.85 µg/m3 11.92 µg/m3 0.13 mg/m3 21.61 °C 76.87 % 1,011.82 mbar 1.72 m/s 255.05 Deg 1.02 µg/m3 0.31 µg/m3
2022-06-11 04:00 11.06 µg/m3 -0.24 µg/m3 84.68 µg/m3 18.56 µg/m3 12.4 µg/m3 0.11 mg/m3 21.57 °C 79.09 % 1,011.39 mbar 1.93 m/s 263.18 Deg 0.61 µg/m3 0.23 µg/m3
2022-06-11 03:00 5.2 µg/m3 -0.31 µg/m3 90.28 µg/m3 18.35 µg/m3 12.32 µg/m3 0.11 mg/m3 21.75 °C 78.4 % 1,011.01 mbar 2.42 m/s 274.92 Deg 1.23 µg/m3 0.21 µg/m3
2022-06-11 02:00 6.6 µg/m3 -0.3 µg/m3 92.49 µg/m3 18.77 µg/m3 12.61 µg/m3 0.11 mg/m3 21.74 °C 78.9 % 1,011.15 mbar 2.75 m/s 274.47 Deg 0.21 µg/m3 0.28 µg/m3
2022-06-11 01:00 9.9 µg/m3 -0.28 µg/m3 87.69 µg/m3 19.83 µg/m3 13.31 µg/m3 0.13 mg/m3 21.96 °C 77.16 % 1,011.42 mbar 2.82 m/s 276.85 Deg 0.45 µg/m3 0.37 µg/m3
2022-06-11 00:00 11.39 µg/m3 -0.22 µg/m3 82.93 µg/m3 25.66 µg/m3 12.23 µg/m3 0.14 mg/m3 22.43 °C 72.8 % 1,011.47 mbar 3.07 m/s 280.75 Deg 0.65 µg/m3 0.49 µg/m3
2022-06-10 23:00 16.14 µg/m3 -0.21 µg/m3 78.24 µg/m3 26.57 µg/m3 12.33 µg/m3 0.16 mg/m3 22.57 °C 71.23 % 1,011.47 mbar 2.76 m/s 275.87 Deg 1.65 µg/m3 0.39 µg/m3
2022-06-10 22:00 14.84 µg/m3 -0.22 µg/m3 78.69 µg/m3 25.86 µg/m3 12.35 µg/m3 0.16 mg/m3 22.62 °C 70.8 % 1,011.20 mbar 3.22 m/s 266.05 Deg 1.22 µg/m3 0.49 µg/m3
2022-06-10 21:00 13.58 µg/m3 -0.25 µg/m3 79.83 µg/m3 27.38 µg/m3 13.13 µg/m3 0.16 mg/m3 22.96 °C 68.49 % 1,010.31 mbar 4.01 m/s 264.67 Deg 2.18 µg/m3 0.89 µg/m3
2022-06-10 20:00 19.15 µg/m3 -0.27 µg/m3 77.43 µg/m3 31.64 µg/m3 14.8 µg/m3 0.2 mg/m3 23.44 °C 66.22 % 1,009.49 mbar 3.75 m/s 268.15 Deg 2.29 µg/m3 0.7 µg/m3
2022-06-10 19:00 21.84 µg/m3 -0.2 µg/m3 75.03 µg/m3 40.53 µg/m3 14.53 µg/m3 0.23 mg/m3 23.93 °C 64.31 % 1,009.04 mbar 4.17 m/s 269.48 Deg 3.66 µg/m3 0.66 µg/m3
2022-06-10 18:00 18.71 µg/m3 -0.18 µg/m3 76.46 µg/m3 55.08 µg/m3 14.86 µg/m3 0.2 mg/m3 24.36 °C 63.17 % 1,008.36 mbar 4.73 m/s 269.32 Deg 3.86 µg/m3 0.65 µg/m3
2022-06-10 17:00 28.16 µg/m3 -0.18 µg/m3 71.86 µg/m3 61.6 µg/m3 16.2 µg/m3 0.23 mg/m3 24.58 °C 62.22 % 1,008.34 mbar 4.85 m/s 272.22 Deg 7.97 µg/m3 1.02 µg/m3
2022-06-10 16:00 29.3 µg/m3 -0.18 µg/m3 72.97 µg/m3 58.5 µg/m3 17.7 µg/m3 0.25 mg/m3 24.62 °C 62.87 % 1,008.50 mbar 4.35 m/s 262.5 Deg 8.38 µg/m3 1.07 µg/m3
2022-06-10 15:00 23.28 µg/m3 -0.19 µg/m3 73.46 µg/m3 66.24 µg/m3 18.9 µg/m3 0.2 mg/m3 24.22 °C 64.9 % 1,008.44 mbar 5.46 m/s 260.17 Deg 7.96 µg/m3 0.63 µg/m3
2022-06-10 14:00 22.56 µg/m3 -0.17 µg/m3 75.39 µg/m3 69.41 µg/m3 22.68 µg/m3 0.18 mg/m3 23.81 °C 67.78 % 1,008.78 mbar 5.89 m/s 257.97 Deg 7.85 µg/m3 0.56 µg/m3
2022-06-10 13:00 24.2 µg/m3 -0.15 µg/m3 76.23 µg/m3 87.64 µg/m3 23.66 µg/m3 0.18 mg/m3 24.61 °C 61.4 % 1,009.05 mbar 4.91 m/s 264.45 Deg 7.03 µg/m3 0.73 µg/m3
2022-06-10 12:00 24.11 µg/m3 -0.16 µg/m3 73.65 µg/m3 73 µg/m3 26.23 µg/m3 0.21 mg/m3 24.84 °C 58.78 % 1,009.08 mbar 4.56 m/s 260.97 Deg 7.09 µg/m3 0.68 µg/m3
2022-06-10 11:00 22.2 µg/m3 -0.17 µg/m3 70.41 µg/m3 58.87 µg/m3 20.05 µg/m3 0.15 mg/m3 24.31 °C 61.93 % 1,009.02 mbar 4.34 m/s 256.92 Deg 7.44 µg/m3 0.79 µg/m3
2022-06-10 10:00 24.07 µg/m3 -0.17 µg/m3 65.42 µg/m3 60 µg/m3 19.81 µg/m3 0.21 mg/m3 23.68 °C 64.1 % 1,008.82 mbar 4.48 m/s 262.85 Deg 8.56 µg/m3 0.7 µg/m3
2022-06-10 09:00 27.27 µg/m3 -0.14 µg/m3 59.74 µg/m3 65.67 µg/m3 20.68 µg/m3 0.22 mg/m3 23.41 °C 66.68 % 1,008.44 mbar 3.77 m/s 265.53 Deg 9.13 µg/m3 0.79 µg/m3
2022-06-10 08:00 31.03 µg/m3 -0.16 µg/m3 53.84 µg/m3 60.89 µg/m3 21.86 µg/m3 0.21 mg/m3 22.59 °C 71.23 % 1,008.34 mbar 3.89 m/s 269.6 Deg 11.62 µg/m3 0.89 µg/m3
2022-06-10 07:00 29.18 µg/m3 -0.13 µg/m3 51.84 µg/m3 39.64 µg/m3 21.33 µg/m3 0.22 mg/m3 21.71 °C 75.62 % 1,008.40 mbar 3.73 m/s 261.02 Deg 8.86 µg/m3 0.68 µg/m3
2022-06-10 06:00 23.87 µg/m3 -0.22 µg/m3 54.39 µg/m3 30.57 µg/m3 20.47 µg/m3 0.19 mg/m3 21.18 °C 76.26 % 1,008.26 mbar 3.5 m/s 256.38 Deg 6.05 µg/m3 0.39 µg/m3
2022-06-10 05:00 12.93 µg/m3 -0.27 µg/m3 60.94 µg/m3 29.24 µg/m3 19.6 µg/m3 0.12 mg/m3 21.1 °C 75.28 % 1,008.11 mbar 3.12 m/s 255.27 Deg 1.85 µg/m3 0.18 µg/m3
2022-06-10 04:00 5.48 µg/m3 -0.28 µg/m3 68.9 µg/m3 34.86 µg/m3 18.94 µg/m3 0.1 mg/m3 21.12 °C 74.09 % 1,008.13 mbar 3.7 m/s 257.82 Deg 0.55 µg/m3 0.13 µg/m3
2022-06-10 03:00 3.95 µg/m3 -0.3 µg/m3 70.95 µg/m3 33.95 µg/m3 18.12 µg/m3 0.1 mg/m3 21.35 °C 72.6 % 1,008.24 mbar 4 m/s 253.53 Deg 0.37 µg/m3 0.1 µg/m3
2022-06-10 02:00 4.25 µg/m3 -0.26 µg/m3 70.39 µg/m3 35.04 µg/m3 17.71 µg/m3 0.1 mg/m3 21.57 °C 71.56 % 1,008.39 mbar 3.96 m/s 260.92 Deg 0.19 µg/m3 0.18 µg/m3
2022-06-10 01:00 4.7 µg/m3 -0.29 µg/m3 72.1 µg/m3 33.05 µg/m3 17.56 µg/m3 0.11 mg/m3 21.66 °C 72.49 % 1,008.76 mbar 3.91 m/s 255.65 Deg 0.68 µg/m3 0.13 µg/m3
2022-06-10 00:00 6.27 µg/m3 -0.3 µg/m3 73.99 µg/m3 33.57 µg/m3 16.59 µg/m3 0.12 mg/m3 21.94 °C 72.3 % 1,008.98 mbar 3.95 m/s 257.02 Deg 0.5 µg/m3 0.23 µg/m3
2022-06-09 23:00 8.05 µg/m3 -0.26 µg/m3 74.4 µg/m3 29.44 µg/m3 14.97 µg/m3 0.14 mg/m3 22.16 °C 71.98 % 1,009.37 mbar 3.98 m/s 255.43 Deg 1.13 µg/m3 0.28 µg/m3
2022-06-09 22:00 9.65 µg/m3 -0.23 µg/m3 74 µg/m3 22.02 µg/m3 14.95 µg/m3 0.15 mg/m3 22.45 °C 77.52 % 1,009.54 mbar 3.59 m/s 258.6 Deg 1.09 µg/m3 0.42 µg/m3
2022-06-09 21:00 11.23 µg/m3 -0.28 µg/m3 78.65 µg/m3 25.22 µg/m3 17.6 µg/m3 0.16 mg/m3 22.67 °C 79.31 % 1,009.33 mbar 4.06 m/s 257.9 Deg 1.36 µg/m3 0.5 µg/m3
2022-06-09 20:00 13.52 µg/m3 -0.24 µg/m3 80.56 µg/m3 23.1 µg/m3 15.91 µg/m3 0.18 mg/m3 23.07 °C 77.15 % 1,008.80 mbar 4.34 m/s 256.12 Deg 1.81 µg/m3 0.47 µg/m3
2022-06-09 19:00 14.04 µg/m3 -0.23 µg/m3 75.78 µg/m3 25.49 µg/m3 13.93 µg/m3 0.2 mg/m3 23.72 °C 72.5 % 1,008.53 mbar 4.81 m/s 256.67 Deg 2.82 µg/m3 1.31 µg/m3
2022-06-09 18:00 17.21 µg/m3 -0.17 µg/m3 71.35 µg/m3 32.14 µg/m3 13.19 µg/m3 0.2 mg/m3 24.33 °C 69.33 % 1,008.44 mbar 5.32 m/s 257.08 Deg 5.73 µg/m3 0.58 µg/m3
2022-06-09 17:00 16.88 µg/m3 -0.17 µg/m3 68.98 µg/m3 33.3 µg/m3 12.23 µg/m3 0.21 mg/m3 24.74 °C 66.71 % 1,008.62 mbar 4.95 m/s 258.07 Deg 5.48 µg/m3 0.79 µg/m3
2022-06-09 16:00 19.06 µg/m3 -0.15 µg/m3 72.3 µg/m3 35.44 µg/m3 12.12 µg/m3 0.21 mg/m3 25.38 °C 60.76 % 1,009.00 mbar 4.51 m/s 263 Deg 4.76 µg/m3 0.63 µg/m3
2022-06-09 15:00 17.47 µg/m3 -0.13 µg/m3 73.81 µg/m3 53.07 µg/m3 13.27 µg/m3 0.19 mg/m3 25.7 °C 59.74 % 1,009.21 mbar 4.86 m/s 258.65 Deg 5.72 µg/m3 0.52 µg/m3
2022-06-09 14:00 22.22 µg/m3 -0.12 µg/m3 68.24 µg/m3 59.94 µg/m3 15.18 µg/m3 0.19 mg/m3 26.13 °C 56.94 % 1,009.56 mbar 5.02 m/s 259.45 Deg 7.3 µg/m3 0.6 µg/m3
2022-06-09 13:00 26.81 µg/m3 -0.16 µg/m3 66.89 µg/m3 54.71 µg/m3 12.45 µg/m3 0.2 mg/m3 27.23 °C 46.9 % 1,009.50 mbar 4.38 m/s 259.1 Deg 8.53 µg/m3 0.86 µg/m3
2022-06-09 12:00 28.71 µg/m3 -0.21 µg/m3 67.24 µg/m3 38.75 µg/m3 10.89 µg/m3 0.21 mg/m3 27.22 °C 47.92 % 1,009.91 mbar 3.95 m/s 256.7 Deg 9 µg/m3 0.58 µg/m3
2022-06-09 11:00 28.74 µg/m3 -0.13 µg/m3 67.37 µg/m3 38.97 µg/m3 10.9 µg/m3 0.17 mg/m3 27.14 °C 51.28 % 1,010.36 mbar 4.01 m/s 254.78 Deg 10.36 µg/m3 0.76 µg/m3
2022-06-09 10:00 31.81 µg/m3 -0.14 µg/m3 63.29 µg/m3 46.91 µg/m3 12.9 µg/m3 0.23 mg/m3 26.82 °C 54.87 % 1,010.32 mbar 3.56 m/s 252.87 Deg 11.65 µg/m3 1.47 µg/m3
2022-06-09 09:00 43.77 µg/m3 -0.02 µg/m3 52.85 µg/m3 68.08 µg/m3 14.91 µg/m3 0.28 mg/m3 27.76 °C 50.75 % 1,010.13 mbar 1.99 m/s 273.37 Deg 20.81 µg/m3 1.36 µg/m3
2022-06-09 08:00 41.4 µg/m3 -0.07 µg/m3 48.91 µg/m3 43.79 µg/m3 12.17 µg/m3 0.3 mg/m3 26.17 °C 59.27 % 1,009.81 mbar 1.41 m/s 266.85 Deg 14.19 µg/m3 1.55 µg/m3
2022-06-09 07:00 43.09 µg/m3 -0.14 µg/m3 45.66 µg/m3 40.86 µg/m3 11.25 µg/m3 0.28 mg/m3 25.08 °C 60.28 % 1,009.81 mbar 1.17 m/s 276 Deg 12.26 µg/m3 1.68 µg/m3
2022-06-09 06:00 34.96 µg/m3 -0.21 µg/m3 48.53 µg/m3 29.77 µg/m3 10.26 µg/m3 0.25 mg/m3 23.86 °C 63.25 % 1,009.68 mbar 0.65 m/s 232.39 Deg 5.98 µg/m3 1.21 µg/m3
2022-06-09 05:00 15.13 µg/m3 -0.24 µg/m3 62.05 µg/m3 20.35 µg/m3 9.92 µg/m3 0.13 mg/m3 23.37 °C 69.93 % 1,009.50 mbar 0.87 m/s 197.68 Deg 0.23 µg/m3 0.31 µg/m3
2022-06-09 04:00 10 µg/m3 -0.25 µg/m3 71.19 µg/m3 16.77 µg/m3 9.79 µg/m3 0.11 mg/m3 23.34 °C 70.87 % 1,009.54 mbar 2.09 m/s 240.58 Deg 0.17 µg/m3 0.21 µg/m3
2022-06-09 03:00 4.78 µg/m3 -0.29 µg/m3 78.68 µg/m3 16.75 µg/m3 10.15 µg/m3 0.12 mg/m3 23.65 °C 72.25 % 1,009.55 mbar 2.06 m/s 230.4 Deg 0.1 µg/m3 0.21 µg/m3
2022-06-09 02:00 5.16 µg/m3 -0.24 µg/m3 76.53 µg/m3 18.01 µg/m3 10.29 µg/m3 0.12 mg/m3 23.81 °C 69.8 % 1,009.79 mbar 1.55 m/s 227.55 Deg 0.07 µg/m3 0.34 µg/m3
2022-06-09 01:00 9.43 µg/m3 -0.26 µg/m3 75.82 µg/m3 17.26 µg/m3 9.49 µg/m3 0.13 mg/m3 23.98 °C 65.86 % 1,010.22 mbar 1.74 m/s 237.92 Deg 0.44 µg/m3 0.28 µg/m3
2022-06-09 00:00 9.93 µg/m3 -0.22 µg/m3 79.48 µg/m3 18.49 µg/m3 10.15 µg/m3 0.16 mg/m3 24.06 °C 64.81 % 1,010.71 mbar 1.7 m/s 249.02 Deg 0.44 µg/m3 0.52 µg/m3
2022-06-08 23:00 10.38 µg/m3 -0.24 µg/m3 81.63 µg/m3 18.7 µg/m3 11.05 µg/m3 0.16 mg/m3 24.18 °C 67.3 % 1,011.05 mbar 2.52 m/s 252.13 Deg 0.86 µg/m3 0.56 µg/m3
2022-06-08 22:00 11.1 µg/m3 -0.23 µg/m3 80.41 µg/m3 16.95 µg/m3 8.51 µg/m3 0.18 mg/m3 24.72 °C 61.76 % 1,011.32 mbar 3.13 m/s 251.03 Deg 1.15 µg/m3 0.79 µg/m3
2022-06-08 21:00 14.76 µg/m3 -0.23 µg/m3 76.19 µg/m3 19.17 µg/m3 8.47 µg/m3 0.18 mg/m3 25.18 °C 56.57 % 1,010.98 mbar 3.34 m/s 250.62 Deg 2.12 µg/m3 0.58 µg/m3
2022-06-08 20:00 16.97 µg/m3 -0.16 µg/m3 75.94 µg/m3 23.34 µg/m3 10.47 µg/m3 0.2 mg/m3 25.34 °C 60.34 % 1,010.58 mbar 3.61 m/s 250.25 Deg 2.34 µg/m3 1.05 µg/m3
2022-06-08 19:00 22.42 µg/m3 -0.18 µg/m3 73.91 µg/m3 28.28 µg/m3 12.32 µg/m3 0.21 mg/m3 26.09 °C 61.09 % 1,010.58 mbar 3.77 m/s 252.78 Deg 5.17 µg/m3 0.81 µg/m3
2022-06-08 18:00 21.9 µg/m3 -0.17 µg/m3 73.35 µg/m3 35.23 µg/m3 12.39 µg/m3 0.2 mg/m3 27.84 °C 50.47 % 1,010.46 mbar 3.26 m/s 232.58 Deg 4.2 µg/m3 0.89 µg/m3
2022-06-08 17:00 28.61 µg/m3 -0.15 µg/m3 68.53 µg/m3 28.74 µg/m3 7.95 µg/m3 0.22 mg/m3 29.97 °C 34.5 % 1,010.57 mbar 2.76 m/s 242.63 Deg 7.73 µg/m3 0.94 µg/m3
2022-06-08 16:00 27.14 µg/m3 -0.1 µg/m3 70.54 µg/m3 22.75 µg/m3 7.32 µg/m3 0.2 mg/m3 30.84 °C 31.18 % 1,010.74 mbar 2.84 m/s 253.75 Deg 6.94 µg/m3 1.15 µg/m3
2022-06-08 15:00 30.13 µg/m3 -0.13 µg/m3 72.53 µg/m3 41.69 µg/m3 10.11 µg/m3 0.2 mg/m3 31.09 °C 32.29 % 1,010.96 mbar 2.74 m/s 240.43 Deg 7.87 µg/m3 0.68 µg/m3
2022-06-08 14:00 36.74 µg/m3 -0.08 µg/m3 73.79 µg/m3 43.17 µg/m3 12.43 µg/m3 0.24 mg/m3 31.04 °C 36.91 % 1,011.02 mbar 2.35 m/s 251.48 Deg 11.79 µg/m3 0.92 µg/m3
2022-06-08 13:00 41.57 µg/m3 0.02 µg/m3 79.67 µg/m3 44.59 µg/m3 14.77 µg/m3 0.29 mg/m3 29.95 °C 44.43 % 1,011.36 mbar 1.98 m/s 213.4 Deg 18.95 µg/m3 2.75 µg/m3
2022-06-08 12:00 40.58 µg/m3 0.26 µg/m3 80.79 µg/m3 34.98 µg/m3 17.14 µg/m3 0.41 mg/m3 26.93 °C 59.47 % 1,011.80 mbar 3.52 m/s 58.82 Deg 43.29 µg/m3 3.1 µg/m3
2022-06-08 11:00 36.51 µg/m3 0.19 µg/m3 76.43 µg/m3 41.29 µg/m3 14.88 µg/m3 0.29 mg/m3 27.77 °C 49.76 % 1,011.80 mbar 3.32 m/s 50.1 Deg 34.74 µg/m3 3.12 µg/m3
2022-06-08 10:00 50.8 µg/m3 0.29 µg/m3 64.86 µg/m3 32.47 µg/m3 10.31 µg/m3 0.36 mg/m3 27.97 °C 37.34 % 1,011.91 mbar 2.65 m/s 57.35 Deg 43.18 µg/m3 3.88 µg/m3
2022-06-08 09:00 51.11 µg/m3 0.27 µg/m3 57.69 µg/m3 40.11 µg/m3 11.18 µg/m3 0.33 mg/m3 27.88 °C 35.59 % 1,011.71 mbar 1.86 m/s 34.33 Deg 39.7 µg/m3 1.99 µg/m3
2022-06-08 08:00 53 µg/m3 0.05 µg/m3 49.37 µg/m3 40.46 µg/m3 12.22 µg/m3 0.31 mg/m3 26.77 °C 43.45 % 1,011.32 mbar 1.21 m/s 233.37 Deg 28.02 µg/m3 1.52 µg/m3
2022-06-08 07:00 49.09 µg/m3 0 µg/m3 38.88 µg/m3 37.53 µg/m3 18.23 µg/m3 0.35 mg/m3 24.12 °C 74.83 % 1,010.76 mbar 1.31 m/s 89 Deg 25.74 µg/m3 5.25 µg/m3
2022-06-08 06:00 26.54 µg/m3 0.04 µg/m3 51.09 µg/m3 28.98 µg/m3 19.65 µg/m3 0.38 mg/m3 23.36 °C 80.74 % 1,010.24 mbar 1.67 m/s 100.08 Deg 23.35 µg/m3 0.77 µg/m3
2022-06-08 05:00 14.36 µg/m3 -0.22 µg/m3 62.03 µg/m3 24.86 µg/m3 16.93 µg/m3 0.14 mg/m3 23.31 °C 80.85 % 1,010.09 mbar 2.11 m/s 292.13 Deg 1.12 µg/m3 0.37 µg/m3
2022-06-08 04:00 9.25 µg/m3 -0.21 µg/m3 69.42 µg/m3 23.14 µg/m3 15.87 µg/m3 0.12 mg/m3 23.39 °C 77.88 % 1,009.89 mbar 2.36 m/s 303.37 Deg 0.57 µg/m3 0.26 µg/m3
2022-06-08 03:00 5.18 µg/m3 -0.24 µg/m3 77.67 µg/m3 23.2 µg/m3 15.89 µg/m3 0.12 mg/m3 23.29 °C 80.43 % 1,009.91 mbar 3.15 m/s 304.62 Deg 0.1 µg/m3 0.21 µg/m3
2022-06-08 02:00 5.98 µg/m3 -0.26 µg/m3 73.79 µg/m3 26.25 µg/m3 17.92 µg/m3 0.11 mg/m3 23.71 °C 80.27 % 1,010.05 mbar 2.83 m/s 290.85 Deg 0.24 µg/m3 0.28 µg/m3
2022-06-08 01:00 7.89 µg/m3 -0.26 µg/m3 76.47 µg/m3 29.31 µg/m3 16.75 µg/m3 0.13 mg/m3 24.44 °C 71.74 % 1,010.28 mbar 2.34 m/s 275.07 Deg 0.5 µg/m3 0.37 µg/m3
2022-06-08 00:00 9.59 µg/m3 -0.29 µg/m3 78.47 µg/m3 29.73 µg/m3 15.04 µg/m3 0.14 mg/m3 24.47 °C 68.83 % 1,010.54 mbar 3.07 m/s 266.22 Deg 0.59 µg/m3 0.31 µg/m3
2022-06-07 23:00 12.12 µg/m3 -0.19 µg/m3 74.59 µg/m3 27.46 µg/m3 13.38 µg/m3 0.15 mg/m3 24.69 °C 66.12 % 1,011.29 mbar 3.11 m/s 246.75 Deg 0.71 µg/m3 0.92 µg/m3
2022-06-07 22:00 16.16 µg/m3 -0.18 µg/m3 72.35 µg/m3 28.09 µg/m3 12.83 µg/m3 0.17 mg/m3 24.98 °C 63.58 % 1,011.56 mbar 1.79 m/s 224.22 Deg 0.8 µg/m3 0.47 µg/m3
2022-06-07 21:00 22.56 µg/m3 -0.2 µg/m3 73.29 µg/m3 34.48 µg/m3 14.53 µg/m3 0.2 mg/m3 25.78 °C 57.85 % 1,011.29 mbar 1.45 m/s 234.98 Deg 1.68 µg/m3 0.89 µg/m3
2022-06-07 20:00 26.04 µg/m3 -0.16 µg/m3 75.97 µg/m3 31.96 µg/m3 13.1 µg/m3 0.2 mg/m3 27.07 °C 42.12 % 1,011.05 mbar 1.83 m/s 278.48 Deg 2.42 µg/m3 0.79 µg/m3
2022-06-07 19:00 31.34 µg/m3 -0.18 µg/m3 81.65 µg/m3 33.61 µg/m3 13.13 µg/m3 0.22 mg/m3 28.29 °C 34.38 % 1,010.80 mbar 2.03 m/s 279.17 Deg 3.61 µg/m3 1.05 µg/m3
2022-06-07 18:00 30.1 µg/m3 -0.09 µg/m3 91.29 µg/m3 34.19 µg/m3 14.89 µg/m3 0.27 mg/m3 28.61 °C 41.18 % 1,010.57 mbar 1.85 m/s 142.72 Deg 9.68 µg/m3 1.24 µg/m3
2022-06-07 17:00 23.36 µg/m3 -0.09 µg/m3 99.76 µg/m3 27.4 µg/m3 11.52 µg/m3 0.24 mg/m3 28.65 °C 38.77 % 1,010.84 mbar 1.7 m/s 252.6 Deg 9.52 µg/m3 1.31 µg/m3
2022-06-07 16:00 18.17 µg/m3 -0.18 µg/m3 104.54 µg/m3 33.71 µg/m3 15.16 µg/m3 0.22 mg/m3 28.63 °C 46.58 % 1,011.49 mbar 1.98 m/s 333.02 Deg 5.4 µg/m3 0.44 µg/m3
2022-06-07 15:00 18.81 µg/m3 -0.15 µg/m3 101.76 µg/m3 40.48 µg/m3 18.13 µg/m3 0.22 mg/m3 29.25 °C 49.51 % 1,011.91 mbar 2.1 m/s 256.87 Deg 6.79 µg/m3 0.49 µg/m3
2022-06-07 14:00 16.66 µg/m3 -0.2 µg/m3 102.88 µg/m3 42.87 µg/m3 18.1 µg/m3 0.2 mg/m3 29.49 °C 47.2 % 1,012.12 mbar 2.25 m/s 322.77 Deg 3.55 µg/m3 0.86 µg/m3
2022-06-07 13:00 22.81 µg/m3 -0.14 µg/m3 95.74 µg/m3 44.68 µg/m3 16.06 µg/m3 0.23 mg/m3 30.51 °C 39.75 % 1,012.28 mbar 1.99 m/s 157.7 Deg 9.72 µg/m3 0.58 µg/m3
2022-06-07 12:00 32.09 µg/m3 -0.06 µg/m3 85.7 µg/m3 44.7 µg/m3 17.32 µg/m3 0.26 mg/m3 29.54 °C 44.33 % 1,012.46 mbar 2.01 m/s 123.12 Deg 15.08 µg/m3 1.03 µg/m3
2022-06-07 11:00 21.68 µg/m3 -0.14 µg/m3 79.09 µg/m3 53.26 µg/m3 18.95 µg/m3 0.19 mg/m3 29.08 °C 48.95 % 1,012.95 mbar 1.91 m/s 150.73 Deg 11.22 µg/m3 0.94 µg/m3
2022-06-07 10:00 29.18 µg/m3 0.01 µg/m3 63.87 µg/m3 37.89 µg/m3 14.22 µg/m3 0.29 mg/m3 28.88 °C 39.35 % 1,012.67 mbar 1.92 m/s 175.75 Deg 17.21 µg/m3 1.31 µg/m3
2022-06-07 09:00 37.39 µg/m3 0.1 µg/m3 53.92 µg/m3 41.59 µg/m3 17.96 µg/m3 0.48 mg/m3 27.21 °C 53.57 % 1,012.18 mbar 1.96 m/s 59.07 Deg 24.79 µg/m3 1.89 µg/m3
2022-06-07 08:00 27.86 µg/m3 -0.06 µg/m3 54.39 µg/m3 42.45 µg/m3 17.78 µg/m3 0.25 mg/m3 26.71 °C 56 % 1,012.04 mbar 1.46 m/s 107.22 Deg 13.78 µg/m3 1.1 µg/m3
2022-06-07 07:00 17.86 µg/m3 -0.15 µg/m3 62.23 µg/m3 42.57 µg/m3 18.11 µg/m3 0.17 mg/m3 26.34 °C 53.47 % 1,011.79 mbar 1.88 m/s 313.62 Deg 5.52 µg/m3 0.66 µg/m3
2022-06-07 06:00 14.48 µg/m3 -0.19 µg/m3 69.59 µg/m3 34.87 µg/m3 12.09 µg/m3 0.13 mg/m3 27.55 °C 37.72 % 1,011.65 mbar 2.38 m/s 300.58 Deg 1.67 µg/m3 0.37 µg/m3
2022-06-07 05:00 12.03 µg/m3 -0.22 µg/m3 72.44 µg/m3 28.67 µg/m3 10.73 µg/m3 0.11 mg/m3 27.14 °C 37.76 % 1,011.78 mbar 2.05 m/s 272.15 Deg 0.8 µg/m3 0.28 µg/m3
2022-06-07 04:00 8.13 µg/m3 -0.21 µg/m3 70.91 µg/m3 31.45 µg/m3 13.41 µg/m3 0.1 mg/m3 26.21 °C 48.88 % 1,012.11 mbar 2.87 m/s 268.05 Deg 0.84 µg/m3 0.23 µg/m3
2022-06-07 03:00 5.72 µg/m3 -0.3 µg/m3 66.98 µg/m3 29.91 µg/m3 16.01 µg/m3 0.1 mg/m3 24.7 °C 66.8 % 1,012.63 mbar 4.14 m/s 254.85 Deg 0.49 µg/m3 0.23 µg/m3
2022-06-07 02:00 14.32 µg/m3 -0.24 µg/m3 61.98 µg/m3 34.85 µg/m3 15.05 µg/m3 0.12 mg/m3 26.28 °C 54.6 % 1,012.78 mbar 2.15 m/s 251.13 Deg 2.1 µg/m3 0.37 µg/m3
2022-06-07 01:00 11.24 µg/m3 -0.28 µg/m3 65.8 µg/m3 38.73 µg/m3 16.14 µg/m3 0.13 mg/m3 26.7 °C 54.24 % 1,012.90 mbar 2.06 m/s 264.15 Deg 0.6 µg/m3 0.37 µg/m3
2022-06-07 00:00 14.25 µg/m3 -0.24 µg/m3 66.85 µg/m3 44.56 µg/m3 18.88 µg/m3 0.15 mg/m3 26.82 °C 54.76 % 1,013.17 mbar 1.81 m/s 264.7 Deg 0.63 µg/m3 0.58 µg/m3
2022-06-06 23:00 15.1 µg/m3 -0.2 µg/m3 70.06 µg/m3 54.7 µg/m3 23.09 µg/m3 0.16 mg/m3 27.1 °C 50.38 % 1,013.27 mbar 2.41 m/s 268.55 Deg 1.09 µg/m3 1.26 µg/m3
2022-06-06 22:00 19.8 µg/m3 -0.19 µg/m3 69.07 µg/m3 49.16 µg/m3 19.19 µg/m3 0.18 mg/m3 27.22 °C 51.05 % 1,013.26 mbar 2.55 m/s 247.6 Deg 2.41 µg/m3 0.68 µg/m3
2022-06-06 21:00 17.98 µg/m3 -0.17 µg/m3 72.25 µg/m3 47.88 µg/m3 19.84 µg/m3 0.17 mg/m3 26.89 °C 54.97 % 1,013.11 mbar 3.14 m/s 247.12 Deg 1.98 µg/m3 0.65 µg/m3
2022-06-06 20:00 20.52 µg/m3 -0.19 µg/m3 73.45 µg/m3 55.95 µg/m3 23.39 µg/m3 0.18 mg/m3 27 °C 54.31 % 1,013.06 mbar 4.07 m/s 250.67 Deg 2.5 µg/m3 0.79 µg/m3
2022-06-06 19:00 26.33 µg/m3 -0.17 µg/m3 70.65 µg/m3 64.15 µg/m3 25.82 µg/m3 0.2 mg/m3 27.9 °C 49.04 % 1,013.11 mbar 4.39 m/s 254.55 Deg 5.44 µg/m3 0.89 µg/m3
2022-06-06 18:00 22.3 µg/m3 -0.17 µg/m3 72.66 µg/m3 63.89 µg/m3 22.54 µg/m3 0.19 mg/m3 28.09 °C 49.49 % 1,013.26 mbar 4.65 m/s 255.15 Deg 4.74 µg/m3 0.68 µg/m3
2022-06-06 17:00 19.24 µg/m3 -0.17 µg/m3 72.18 µg/m3 68.68 µg/m3 20.56 µg/m3 0.18 mg/m3 27.89 °C 55.67 % 1,013.50 mbar 5.03 m/s 255.53 Deg 5.23 µg/m3 0.61 µg/m3
2022-06-06 16:00 19.7 µg/m3 -0.18 µg/m3 74.08 µg/m3 99.13 µg/m3 30.47 µg/m3 0.18 mg/m3 28.13 °C 56.98 % 1,013.71 mbar 5.11 m/s 255.88 Deg 5.34 µg/m3 0.87 µg/m3
2022-06-06 15:00 23.34 µg/m3 -0.18 µg/m3 76.77 µg/m3 104.82 µg/m3 30.93 µg/m3 0.19 mg/m3 28.7 °C 57.07 % 1,014.01 mbar 3.8 m/s 251.53 Deg 5.92 µg/m3 0.94 µg/m3
2022-06-06 14:00 17.52 µg/m3 -0.23 µg/m3 79.94 µg/m3 90.78 µg/m3 27.43 µg/m3 0.16 mg/m3 28.05 °C 62.24 % 1,014.60 mbar 3.83 m/s 225.83 Deg 3.52 µg/m3 0.73 µg/m3
2022-06-06 13:00 21.14 µg/m3 -0.19 µg/m3 79.73 µg/m3 73.87 µg/m3 28.14 µg/m3 0.17 mg/m3 28.89 °C 58.79 % 1,014.87 mbar 2.58 m/s 238.85 Deg 4.1 µg/m3 0.65 µg/m3
2022-06-06 12:00 26.86 µg/m3 -0.14 µg/m3 74.66 µg/m3 79.83 µg/m3 29.09 µg/m3 0.18 mg/m3 28.73 °C 58.32 % 1,014.87 mbar 2.76 m/s 235.27 Deg 8.34 µg/m3 0.73 µg/m3
2022-06-06 11:00 25.43 µg/m3 -0.16 µg/m3 73.34 µg/m3 81.52 µg/m3 28.78 µg/m3 0.2 mg/m3 29.01 °C 55.25 % 1,014.65 mbar 3.04 m/s 236.87 Deg 6.16 µg/m3 0.94 µg/m3
2022-06-06 10:00 23.69 µg/m3 -0.17 µg/m3 69.53 µg/m3 85.78 µg/m3 27.19 µg/m3 0.26 mg/m3 28.37 °C 56.39 % 1,014.56 mbar 3.58 m/s 250.35 Deg 6.31 µg/m3 1.19 µg/m3
2022-06-06 09:00 33.2 µg/m3 -0.12 µg/m3 60.42 µg/m3 74.09 µg/m3 21.69 µg/m3 0.28 mg/m3 28.47 °C 54.04 % 1,014.79 mbar 2.76 m/s 246.05 Deg 8.01 µg/m3 1.13 µg/m3
2022-06-06 08:00 30.85 µg/m3 -0.17 µg/m3 57.83 µg/m3 77.21 µg/m3 19.78 µg/m3 0.26 mg/m3 26.58 °C 61.96 % 1,015.08 mbar 2.34 m/s 229.68 Deg 7.53 µg/m3 1.29 µg/m3
2022-06-06 07:00 27.4 µg/m3 -0.12 µg/m3 54.81 µg/m3 118.35 µg/m3 32.75 µg/m3 0.31 mg/m3 25.03 °C 69.59 % 1,015.24 mbar 2.36 m/s 218.55 Deg 5.86 µg/m3 0.89 µg/m3
2022-06-06 06:00 18.51 µg/m3 -0.21 µg/m3 56.67 µg/m3 29.42 µg/m3 18.45 µg/m3 0.2 mg/m3 24.27 °C 76.29 % 1,015.33 mbar 1.81 m/s 220.1 Deg 1.68 µg/m3 0.63 µg/m3
2022-06-06 05:00 14.95 µg/m3 -0.21 µg/m3 56.79 µg/m3 27.68 µg/m3 18.51 µg/m3 0.16 mg/m3 24.47 °C 77.26 % 1,014.97 mbar 2.23 m/s 253.05 Deg 2.68 µg/m3 0.42 µg/m3
2022-06-06 04:00 6.45 µg/m3 -0.17 µg/m3 74.6 µg/m3 33.77 µg/m3 17.03 µg/m3 0.15 mg/m3 25.19 °C 69.89 % 1,014.78 mbar 2.34 m/s 252.92 Deg 0.29 µg/m3 0.39 µg/m3
2022-06-06 03:00 5.76 µg/m3 -0.17 µg/m3 83.88 µg/m3 41.67 µg/m3 16.19 µg/m3 0.14 mg/m3 25.88 °C 61.86 % 1,014.97 mbar 1.37 m/s 241.42 Deg 0.07 µg/m3 0.37 µg/m3
2022-06-06 02:00 9.92 µg/m3 -0.21 µg/m3 79.62 µg/m3 44.84 µg/m3 17.56 µg/m3 0.16 mg/m3 25.98 °C 61.57 % 1,015.21 mbar 1.48 m/s 243.92 Deg 0.78 µg/m3 0.58 µg/m3
2022-06-06 01:00 11.82 µg/m3 -0.17 µg/m3 81.49 µg/m3 44.79 µg/m3 16.75 µg/m3 0.19 mg/m3 26.69 °C 54.52 % 1,015.70 mbar 1.61 m/s 246.23 Deg 0.23 µg/m3 0.77 µg/m3
2022-06-06 00:00 19.09 µg/m3 -0.13 µg/m3 78.51 µg/m3 38.24 µg/m3 14.5 µg/m3 0.21 mg/m3 27.2 °C 52.6 % 1,016.11 mbar 1.23 m/s 243.72 Deg 0.76 µg/m3 1.07 µg/m3
2022-06-05 23:00 26.91 µg/m3 -0.07 µg/m3 71.8 µg/m3 39.09 µg/m3 15.96 µg/m3 0.26 mg/m3 27.78 °C 44.73 % 1,016.24 mbar 1.4 m/s 257.05 Deg 0.9 µg/m3 1.47 µg/m3
2022-06-05 22:00 38.67 µg/m3 -0.02 µg/m3 60.4 µg/m3 38.21 µg/m3 14.89 µg/m3 0.31 mg/m3 28.58 °C 42.06 % 1,016.27 mbar 1.32 m/s 269.63 Deg 1.4 µg/m3 2.31 µg/m3
2022-06-05 21:00 58.82 µg/m3 0.33 µg/m3 41.13 µg/m3 44.76 µg/m3 18.51 µg/m3 0.54 mg/m3 27.44 °C 61.3 % 1,016.08 mbar 0.79 m/s 115.52 Deg 26.17 µg/m3 4.02 µg/m3
2022-06-05 20:00 44.44 µg/m3 0.09 µg/m3 58.99 µg/m3 44.83 µg/m3 16.28 µg/m3 0.45 mg/m3 28.28 °C 55.85 % 1,016.12 mbar 0.86 m/s 255.17 Deg 11.87 µg/m3 2.36 µg/m3
2022-06-05 19:00 39.9 µg/m3 0.05 µg/m3 66.27 µg/m3 42.89 µg/m3 13.83 µg/m3 0.34 mg/m3 30.11 °C 41.28 % 1,016.00 mbar 1.56 m/s 310.1 Deg 6.87 µg/m3 0.91 µg/m3
2022-06-05 18:00 24.56 µg/m3 0.03 µg/m3 70.09 µg/m3 28.82 µg/m3 7.39 µg/m3 0.21 mg/m3 32.74 °C 23.42 % 1,015.77 mbar 2.39 m/s 260.38 Deg 3.57 µg/m3 0.65 µg/m3
2022-06-05 17:00 20.1 µg/m3 0.02 µg/m3 75.77 µg/m3 28.77 µg/m3 6.83 µg/m3 0.21 mg/m3 34.15 °C 20.5 % 1,015.87 mbar 2.37 m/s 268.32 Deg 3.2 µg/m3 1.57 µg/m3
2022-06-05 16:00 24.87 µg/m3 0.04 µg/m3 86.6 µg/m3 28.42 µg/m3 7.82 µg/m3 0.23 mg/m3 34.33 °C 22.92 % 1,016.32 mbar 1.92 m/s 243.27 Deg 6.57 µg/m3 0.63 µg/m3
2022-06-05 15:00 17.14 µg/m3 -0.02 µg/m3 85.53 µg/m3 25.01 µg/m3 6.31 µg/m3 0.17 mg/m3 33.12 °C 22.06 % 1,016.81 mbar 2.61 m/s 318.93 Deg 4.48 µg/m3 0.47 µg/m3
2022-06-05 14:00 14.78 µg/m3 0.01 µg/m3 81.59 µg/m3 22.72 µg/m3 5.68 µg/m3 0.18 mg/m3 33.5 °C 20.14 % 1,016.90 mbar 2.28 m/s 319.47 Deg 7.09 µg/m3 0.65 µg/m3
2022-06-05 13:00 16.26 µg/m3 -0 µg/m3 87.89 µg/m3 24.99 µg/m3 6.88 µg/m3 0.16 mg/m3 32.96 °C 21.8 % 1,017.10 mbar 2.57 m/s 314.92 Deg 3.36 µg/m3 0.82 µg/m3
2022-06-05 12:00 15.38 µg/m3 -0.05 µg/m3 85.09 µg/m3 31.75 µg/m3 7.17 µg/m3 0.15 mg/m3 32.86 °C 21.59 % 1,017.04 mbar 3.03 m/s 309.57 Deg 3.6 µg/m3 0.52 µg/m3
2022-06-05 11:00 17.96 µg/m3 -0.05 µg/m3 83.6 µg/m3 50.4 µg/m3 9.88 µg/m3 0.16 mg/m3 32.45 °C 25.1 % 1,016.98 mbar 2.62 m/s 299.08 Deg 3.9 µg/m3 0.71 µg/m3
2022-06-05 10:00 19.43 µg/m3 -0.03 µg/m3 86.51 µg/m3 61.06 µg/m3 12.08 µg/m3 0.23 mg/m3 31.11 °C 32.17 % 1,017.05 mbar 2.93 m/s 297.6 Deg 4.78 µg/m3 0.89 µg/m3
2022-06-05 09:00 21.61 µg/m3 -0.01 µg/m3 81.73 µg/m3 40.86 µg/m3 10.17 µg/m3 0.23 mg/m3 30.25 °C 34.91 % 1,017.39 mbar 2.13 m/s 277.78 Deg 4.03 µg/m3 0.92 µg/m3
2022-06-05 08:00 22.61 µg/m3 -0.01 µg/m3 77.79 µg/m3 32.94 µg/m3 10.09 µg/m3 0.2 mg/m3 29.04 °C 38.83 % 1,017.44 mbar 1.61 m/s 261.03 Deg 3.5 µg/m3 0.7 µg/m3
2022-06-05 07:00 19.61 µg/m3 -0.05 µg/m3 77.01 µg/m3 33.64 µg/m3 10.81 µg/m3 0.2 mg/m3 27.48 °C 44.95 % 1,016.96 mbar 1.48 m/s 250.4 Deg 1.94 µg/m3 1 µg/m3
2022-06-05 06:00 24.55 µg/m3 -0.03 µg/m3 78.72 µg/m3 31.68 µg/m3 11.12 µg/m3 0.21 mg/m3 26.95 °C 40.71 % 1,016.63 mbar 1.18 m/s 268.28 Deg 0.94 µg/m3 0.84 µg/m3
2022-06-05 05:00 35.08 µg/m3 0.05 µg/m3 70.39 µg/m3 33.88 µg/m3 10.35 µg/m3 0.23 mg/m3 27.21 °C 33.9 % 1,016.25 mbar 0.76 m/s 294.79 Deg 2.88 µg/m3 1.61 µg/m3
2022-06-05 04:00 33.81 µg/m3 0.05 µg/m3 69.48 µg/m3 29.05 µg/m3 10.99 µg/m3 0.26 mg/m3 27.37 °C 32 % 1,016.05 mbar 0.48 m/s 282.25 Deg 1.82 µg/m3 1.45 µg/m3
2022-06-05 03:00 23.15 µg/m3 0.01 µg/m3 81.78 µg/m3 28.68 µg/m3 9.3 µg/m3 0.16 mg/m3 27.54 °C 29.63 % 1,016.21 mbar 0.9 m/s 233.4 Deg 0.24 µg/m3 0.61 µg/m3
2022-06-05 02:00 13.35 µg/m3 -0.07 µg/m3 81.73 µg/m3 25.7 µg/m3 8.92 µg/m3 0.14 mg/m3 27.31 °C 33.63 % 1,016.79 mbar 1.09 m/s 201.58 Deg 0.13 µg/m3 0.66 µg/m3
2022-06-05 01:00 22.95 µg/m3 -0.05 µg/m3 73.25 µg/m3 26.69 µg/m3 9.57 µg/m3 0.2 mg/m3 27.6 °C 34.03 % 1,017.37 mbar 1.08 m/s 238.38 Deg 1.06 µg/m3 1.07 µg/m3
2022-06-05 00:00 37.99 µg/m3 -0 µg/m3 65.5 µg/m3 31.07 µg/m3 10.71 µg/m3 0.27 mg/m3 28.36 °C 27.08 % 1,017.30 mbar 1.08 m/s 244.38 Deg 1.64 µg/m3 2.26 µg/m3
2022-06-04 23:00 47.45 µg/m3 0.03 µg/m3 54.59 µg/m3 40.38 µg/m3 12.03 µg/m3 0.34 mg/m3 28.69 °C 26.53 % 1,017.24 mbar 1.02 m/s 232.5 Deg 2.13 µg/m3 2.89 µg/m3
2022-06-04 22:00 54.86 µg/m3 -0.01 µg/m3 43.58 µg/m3 40.77 µg/m3 12.97 µg/m3 0.39 mg/m3 29.07 °C 26.83 % 1,017.50 mbar 1.06 m/s 235.68 Deg 5.3 µg/m3 3.1 µg/m3
2022-06-04 21:00 48.32 µg/m3 0.06 µg/m3 51.11 µg/m3 40.37 µg/m3 13.8 µg/m3 0.37 mg/m3 28.91 °C 32.54 % 1,017.48 mbar 1.33 m/s 248.08 Deg 4.61 µg/m3 2.05 µg/m3
2022-06-04 20:00 60.29 µg/m3 0.21 µg/m3 45.47 µg/m3 54.13 µg/m3 17.51 µg/m3 0.53 mg/m3 29.48 °C 36.78 % 1,017.27 mbar 1.39 m/s 208.62 Deg 12.82 µg/m3 3.62 µg/m3
2022-06-04 19:00 75.5 µg/m3 0.48 µg/m3 45.24 µg/m3 42.69 µg/m3 15.72 µg/m3 0.67 mg/m3 29.96 °C 38.65 % 1,016.90 mbar 1.74 m/s 42.37 Deg 35.62 µg/m3 5.35 µg/m3
2022-06-04 18:00 63.52 µg/m3 0.43 µg/m3 61.94 µg/m3 35.73 µg/m3 13.19 µg/m3 0.55 mg/m3 30.27 °C 37.67 % 1,016.64 mbar 2.06 m/s 55.4 Deg 33.61 µg/m3 3.38 µg/m3
2022-06-04 17:00 46.11 µg/m3 0.3 µg/m3 71.57 µg/m3 34.33 µg/m3 10.98 µg/m3 0.47 mg/m3 30.85 °C 35.08 % 1,016.64 mbar 2.49 m/s 40.97 Deg 23.28 µg/m3 6.28 µg/m3
2022-06-04 16:00 37.41 µg/m3 0.22 µg/m3 79.9 µg/m3 31.71 µg/m3 8.45 µg/m3 0.31 mg/m3 33.46 °C 21.68 % 1,016.73 mbar 2 m/s 16 Deg 17.56 µg/m3 1.89 µg/m3
2022-06-04 15:00 29.06 µg/m3 0.16 µg/m3 76.79 µg/m3 26.73 µg/m3 6.61 µg/m3 0.23 mg/m3 33.81 °C 18.6 % 1,017.02 mbar 1.7 m/s 336.42 Deg 12.47 µg/m3 0.81 µg/m3
2022-06-04 14:00 30.96 µg/m3 0.23 µg/m3 71.9 µg/m3 24.8 µg/m3 6.93 µg/m3 0.24 mg/m3 32.92 °C 18.13 % 1,017.38 mbar 1.87 m/s 173.38 Deg 21 µg/m3 1.29 µg/m3
2022-06-04 13:00 31.07 µg/m3 0.21 µg/m3 71.15 µg/m3 28.74 µg/m3 8.61 µg/m3 0.24 mg/m3 32.08 °C 21.12 % 1,017.67 mbar 1.8 m/s 165.22 Deg 21.48 µg/m3 0.73 µg/m3
2022-06-04 12:00 42.46 µg/m3 0.24 µg/m3 69.2 µg/m3 33.1 µg/m3 9.23 µg/m3 0.25 mg/m3 31.7 °C 21.74 % 1,017.81 mbar 1.9 m/s 180.27 Deg 23.77 µg/m3 2.97 µg/m3
2022-06-04 11:00 40.59 µg/m3 0.26 µg/m3 67.54 µg/m3 37.46 µg/m3 10.9 µg/m3 0.28 mg/m3 30.86 °C 24.36 % 1,017.90 mbar 1.71 m/s 16.68 Deg 26.74 µg/m3 1.05 µg/m3
2022-06-04 10:00 37.86 µg/m3 0.1 µg/m3 69.73 µg/m3 44 µg/m3 11.82 µg/m3 0.23 mg/m3 29.35 °C 29.29 % 1,017.81 mbar 2.08 m/s 328 Deg 14.67 µg/m3 1.21 µg/m3
2022-06-04 09:00 55.56 µg/m3 0.28 µg/m3 54.95 µg/m3 67.05 µg/m3 14.86 µg/m3 0.31 mg/m3 30.27 °C 26.35 % 1,017.56 mbar 1.34 m/s 248.22 Deg 29.39 µg/m3 2.18 µg/m3
2022-06-04 08:00 77.07 µg/m3 0.84 µg/m3 36.2 µg/m3 87.76 µg/m3 19.94 µg/m3 0.55 mg/m3 29.26 °C 28.31 % 1,017.34 mbar 0.9 m/s 45.3 Deg 60.12 µg/m3 8.38 µg/m3
2022-06-04 07:00 101.67 µg/m3 1.61 µg/m3 7.49 µg/m3 117.91 µg/m3 27.96 µg/m3 0.76 mg/m3 27.1 °C 33.37 % 1,017.02 mbar 0.37 m/s 169.33 Deg 111.43 µg/m3 7.89 µg/m3
2022-06-04 06:00 86.98 µg/m3 2.08 µg/m3 3.75 µg/m3 93.05 µg/m3 30.23 µg/m3 0.84 mg/m3 24.91 °C 38.34 % 1,016.52 mbar 0.35 m/s 277.39 Deg 152.58 µg/m3 10.13 µg/m3
2022-06-04 05:00 83.84 µg/m3 1.44 µg/m3 2.5 µg/m3 70.47 µg/m3 25.85 µg/m3 0.63 mg/m3 24.61 °C 38.74 % 1,016.14 mbar 0.28 m/s 251.69 Deg 106.11 µg/m3 7.4 µg/m3
2022-06-04 04:00 65.19 µg/m3 0.52 µg/m3 10.04 µg/m3 51.6 µg/m3 18.57 µg/m3 0.37 mg/m3 25.04 °C 35.85 % 1,015.94 mbar 0.58 m/s 244.26 Deg 35.23 µg/m3 5.3 µg/m3
2022-06-04 03:00 83.58 µg/m3 1.02 µg/m3 2.04 µg/m3 54 µg/m3 20.18 µg/m3 0.6 mg/m3 24.7 °C 42.77 % 1,016.25 mbar 0.14 m/s 258.49 Deg 66.81 µg/m3 11.78 µg/m3
2022-06-04 02:00 96.07 µg/m3 0.8 µg/m3 2.22 µg/m3 60 µg/m3 22.89 µg/m3 0.71 mg/m3 25.5 °C 40.17 % 1,016.61 mbar 0.29 m/s 253.05 Deg 52.09 µg/m3 4.57 µg/m3
2022-06-04 01:00 76.45 µg/m3 -0.01 µg/m3 17.36 µg/m3 48.64 µg/m3 15.15 µg/m3 0.35 mg/m3 26.41 °C 33.02 % 1,016.81 mbar 0.67 m/s 237.53 Deg 5.83 µg/m3 3.12 µg/m3
2022-06-04 00:00 96.2 µg/m3 0.3 µg/m3 9.8 µg/m3 45.63 µg/m3 15.23 µg/m3 0.51 mg/m3 26.65 °C 33.09 % 1,017.17 mbar 0.36 m/s 208.8 Deg 27.18 µg/m3 2.57 µg/m3
2022-06-03 23:00 68.19 µg/m3 0.03 µg/m3 37.8 µg/m3 40.24 µg/m3 13.35 µg/m3 0.37 mg/m3 27.09 °C 33.36 % 1,017.38 mbar 0.55 m/s 230.12 Deg 14.8 µg/m3 1.97 µg/m3
2022-06-03 22:00 53.74 µg/m3 -0.06 µg/m3 55.08 µg/m3 40.95 µg/m3 13.58 µg/m3 0.28 mg/m3 26.88 °C 39.3 % 1,017.33 mbar 0.8 m/s 304.02 Deg 4.78 µg/m3 1.33 µg/m3
2022-06-03 21:00 50.62 µg/m3 0.02 µg/m3 66.09 µg/m3 38.77 µg/m3 14.25 µg/m3 0.35 mg/m3 26.74 °C 43.34 % 1,017.23 mbar 0.95 m/s 174.63 Deg 11.84 µg/m3 1.31 µg/m3
2022-06-03 20:00 54.74 µg/m3 0.05 µg/m3 63.07 µg/m3 39.18 µg/m3 13.79 µg/m3 0.37 mg/m3 26.9 °C 43.83 % 1,016.79 mbar 1.22 m/s 327.3 Deg 11.25 µg/m3 1.81 µg/m3
2022-06-03 19:00 43.42 µg/m3 0.13 µg/m3 69.96 µg/m3 34.35 µg/m3 12.43 µg/m3 0.38 mg/m3 27.57 °C 42.08 % 1,016.89 mbar 1.62 m/s 96.45 Deg 22.88 µg/m3 2.59 µg/m3
2022-06-03 18:00 39.56 µg/m3 0.08 µg/m3 76.28 µg/m3 32.16 µg/m3 11.65 µg/m3 0.33 mg/m3 28.35 °C 41.14 % 1,016.76 mbar 1.84 m/s 178.02 Deg 19.2 µg/m3 1.61 µg/m3
2022-06-03 17:00 43.99 µg/m3 0.15 µg/m3 74.29 µg/m3 37.4 µg/m3 12.02 µg/m3 0.37 mg/m3 29.94 °C 34.29 % 1,016.62 mbar 1.89 m/s 21.9 Deg 27.96 µg/m3 2.03 µg/m3
2022-06-03 16:00 66.74 µg/m3 0.41 µg/m3 77.61 µg/m3 37.3 µg/m3 12.45 µg/m3 0.35 mg/m3 29.7 °C 36.11 % 1,016.91 mbar 2.07 m/s 110.9 Deg 49.55 µg/m3 1.86 µg/m3
2022-06-03 15:00 57.93 µg/m3 0.34 µg/m3 81.35 µg/m3 30.22 µg/m3 12.36 µg/m3 0.33 mg/m3 28.87 °C 37.61 % 1,017.13 mbar 2.87 m/s 52.1 Deg 41.13 µg/m3 1.57 µg/m3
2022-06-03 14:00 42.07 µg/m3 0.17 µg/m3 90.4 µg/m3 26.52 µg/m3 10.69 µg/m3 0.31 mg/m3 28.64 °C 34.32 % 1,017.39 mbar 3.52 m/s 46.07 Deg 31.02 µg/m3 1.47 µg/m3
2022-06-03 13:00 51.77 µg/m3 0.28 µg/m3 78.45 µg/m3 38.53 µg/m3 12.3 µg/m3 0.34 mg/m3 29.96 °C 31.67 % 1,017.43 mbar 2.41 m/s 32.68 Deg 36.04 µg/m3 1.94 µg/m3
2022-06-03 12:00 55 µg/m3 0.28 µg/m3 74.16 µg/m3 33.03 µg/m3 11.74 µg/m3 0.38 mg/m3 29.2 °C 33.09 % 1,017.61 mbar 2.26 m/s 38.03 Deg 41.13 µg/m3 2.62 µg/m3
2022-06-03 11:00 53.87 µg/m3 0.29 µg/m3 73.03 µg/m3 41.75 µg/m3 15.32 µg/m3 0.32 mg/m3 28.27 °C 38.87 % 1,017.59 mbar 2.45 m/s 37.35 Deg 41.06 µg/m3 2.7 µg/m3
2022-06-03 10:00 58.34 µg/m3 0.26 µg/m3 69.11 µg/m3 43.85 µg/m3 14.81 µg/m3 0.34 mg/m3 28.36 °C 37.35 % 1,017.21 mbar 2.35 m/s 117.73 Deg 35.96 µg/m3 1.47 µg/m3
2022-06-03 09:00 55.59 µg/m3 0.39 µg/m3 64.48 µg/m3 44.14 µg/m3 14.42 µg/m3 0.45 mg/m3 27.65 °C 37.26 % 1,016.89 mbar 1.92 m/s 55.03 Deg 48.46 µg/m3 4.36 µg/m3
2022-06-03 08:00 64.42 µg/m3 0.48 µg/m3 53.79 µg/m3 46.64 µg/m3 14.56 µg/m3 0.64 mg/m3 26.97 °C 36.35 % 1,016.74 mbar 1.75 m/s 49.2 Deg 47.98 µg/m3 4.33 µg/m3
2022-06-03 07:00 110.39 µg/m3 2.52 µg/m3 9.28 µg/m3 85.25 µg/m3 28.57 µg/m3 1.04 mg/m3 25.48 °C 44.39 % 1,016.31 mbar 0.83 m/s 48.13 Deg 203.81 µg/m3 11.52 µg/m3
2022-06-03 06:00 92.1 µg/m3 2.26 µg/m3 3.24 µg/m3 96.14 µg/m3 32.5 µg/m3 0.99 mg/m3 23.94 °C 49.67 % 1,016.04 mbar 0.1 m/s 44.23 Deg 181.79 µg/m3 7.56 µg/m3
2022-06-03 05:00 79.49 µg/m3 1.19 µg/m3 2.26 µg/m3 62.28 µg/m3 24.05 µg/m3 0.54 mg/m3 23.33 °C 51.97 % 1,015.77 mbar 0.18 m/s 261.9 Deg 91.67 µg/m3 8.4 µg/m3
2022-06-03 04:00 69.69 µg/m3 0.28 µg/m3 14.23 µg/m3 41.57 µg/m3 19.07 µg/m3 0.32 mg/m3 23.45 °C 52.99 % 1,015.78 mbar 0.31 m/s 102.04 Deg 16.17 µg/m3 3.7 µg/m3
2022-06-03 03:00 70.28 µg/m3 0.32 µg/m3 10.22 µg/m3 40 µg/m3 18.53 µg/m3 0.35 mg/m3 23.26 °C 57.64 % 1,015.96 mbar 0.57 m/s 55.37 Deg 16.84 µg/m3 3.78 µg/m3
2022-06-03 02:00 72.83 µg/m3 0.09 µg/m3 18.16 µg/m3 42.04 µg/m3 18.93 µg/m3 0.35 mg/m3 24.15 °C 58.15 % 1,016.04 mbar 0.7 m/s 128.2 Deg 9.91 µg/m3 3.28 µg/m3
2022-06-03 01:00 70.74 µg/m3 -0.11 µg/m3 28.36 µg/m3 44.02 µg/m3 17.02 µg/m3 0.23 mg/m3 25.14 °C 52.16 % 1,016.16 mbar 0.83 m/s 233.35 Deg 1.18 µg/m3 1.45 µg/m3
2022-06-03 00:00 63.31 µg/m3 -0.05 µg/m3 47.37 µg/m3 42.52 µg/m3 16.43 µg/m3 0.23 mg/m3 25.17 °C 53.78 % 1,016.47 mbar 0.45 m/s 245.44 Deg 2.45 µg/m3 1.68 µg/m3
2022-06-02 23:00 95.73 µg/m3 0.24 µg/m3 19.92 µg/m3 54.44 µg/m3 21.28 µg/m3 0.36 mg/m3 25.46 °C 51.82 % 1,016.40 mbar 0.93 m/s 110.5 Deg 27.59 µg/m3 1.75 µg/m3
2022-06-02 22:00 60.76 µg/m3 -0.03 µg/m3 54.24 µg/m3 50.54 µg/m3 20.04 µg/m3 0.3 mg/m3 26.51 °C 44.92 % 1,016.53 mbar 0.65 m/s 174.27 Deg 4.58 µg/m3 1.63 µg/m3
2022-06-02 21:00 40.3 µg/m3 0 µg/m3 79.8 µg/m3 45.15 µg/m3 16.95 µg/m3 0.31 mg/m3 27.21 °C 39.73 % 1,016.26 mbar 0.73 m/s 216.58 Deg 6.28 µg/m3 2.41 µg/m3
2022-06-02 20:00 69.94 µg/m3 0.18 µg/m3 50.06 µg/m3 47.23 µg/m3 15.47 µg/m3 0.48 mg/m3 27.85 °C 34.33 % 1,015.82 mbar 0.85 m/s 157.43 Deg 26 µg/m3 1.68 µg/m3
2022-06-02 19:00 43.83 µg/m3 0.01 µg/m3 71.35 µg/m3 41.41 µg/m3 12.81 µg/m3 0.31 mg/m3 28.53 °C 31.93 % 1,015.39 mbar 1.3 m/s 140.45 Deg 18.34 µg/m3 2.47 µg/m3
2022-06-02 18:00 59.23 µg/m3 0.2 µg/m3 64.47 µg/m3 35.19 µg/m3 11.66 µg/m3 0.35 mg/m3 29.21 °C 29.94 % 1,015.09 mbar 1.84 m/s 157.18 Deg 30.58 µg/m3 2.12 µg/m3
2022-06-02 17:00 45.18 µg/m3 0.15 µg/m3 70.57 µg/m3 32.59 µg/m3 10.94 µg/m3 0.35 mg/m3 29.72 °C 28.67 % 1,014.82 mbar 2.58 m/s 156.35 Deg 27.83 µg/m3 1.26 µg/m3
2022-06-02 16:00 53.94 µg/m3 0.26 µg/m3 64.8 µg/m3 36.32 µg/m3 11.84 µg/m3 0.37 mg/m3 29.78 °C 32.15 % 1,015.08 mbar 2.76 m/s 62.1 Deg 38.37 µg/m3 4.85 µg/m3
2022-06-02 15:00 64.16 µg/m3 0.41 µg/m3 53.85 µg/m3 32.99 µg/m3 11.1 µg/m3 0.33 mg/m3 29.75 °C 28.58 % 1,015.27 mbar 3.19 m/s 47.85 Deg 55.08 µg/m3 0.79 µg/m3
2022-06-02 14:00 44.11 µg/m3 0.27 µg/m3 64.97 µg/m3 34.64 µg/m3 11.37 µg/m3 0.33 mg/m3 29.25 °C 31.51 % 1,015.28 mbar 3.39 m/s 56.53 Deg 45.82 µg/m3 1.34 µg/m3
2022-06-02 13:00 50.75 µg/m3 0.21 µg/m3 64.61 µg/m3 38.94 µg/m3 13.23 µg/m3 0.34 mg/m3 28.23 °C 39.37 % 1,015.50 mbar 3.75 m/s 52.35 Deg 44.79 µg/m3 2.41 µg/m3
2022-06-02 12:00 39.54 µg/m3 0.1 µg/m3 64.18 µg/m3 34.12 µg/m3 14.23 µg/m3 0.34 mg/m3 25.88 °C 60.07 % 1,015.85 mbar 3.81 m/s 47.52 Deg 38.48 µg/m3 1.23 µg/m3
2022-06-02 11:00 49.75 µg/m3 0.08 µg/m3 64.42 µg/m3 32.11 µg/m3 14.3 µg/m3 0.26 mg/m3 25.54 °C 62.31 % 1,015.82 mbar 3.37 m/s 51.13 Deg 33.69 µg/m3 1.4 µg/m3
2022-06-02 10:00 48.93 µg/m3 0.14 µg/m3 71.05 µg/m3 35.68 µg/m3 15.59 µg/m3 0.36 mg/m3 25.75 °C 58.04 % 1,015.72 mbar 3.08 m/s 44.87 Deg 39.65 µg/m3 1.96 µg/m3
2022-06-02 09:00 59.09 µg/m3 0.25 µg/m3 70.39 µg/m3 40.41 µg/m3 16.28 µg/m3 0.37 mg/m3 26.07 °C 50.99 % 1,015.40 mbar 2.26 m/s 61.8 Deg 49.65 µg/m3 2.78 µg/m3
2022-06-02 08:00 63.69 µg/m3 0.24 µg/m3 50.12 µg/m3 42.15 µg/m3 16.55 µg/m3 0.43 mg/m3 24.72 °C 64.7 % 1,015.13 mbar 1.52 m/s 47.85 Deg 46.42 µg/m3 1.5 µg/m3
2022-06-02 07:00 46.21 µg/m3 0.13 µg/m3 39.05 µg/m3 33.35 µg/m3 19.56 µg/m3 0.46 mg/m3 23.33 °C 81.53 % 1,014.81 mbar 1.66 m/s 62.87 Deg 38.13 µg/m3 3.36 µg/m3
2022-06-02 06:00 40.58 µg/m3 0.21 µg/m3 24.56 µg/m3 37.56 µg/m3 25.36 µg/m3 0.39 mg/m3 22.91 °C 86.29 % 1,014.51 mbar 1.3 m/s 57.37 Deg 38.03 µg/m3 6.11 µg/m3
2022-06-02 05:00 39.86 µg/m3 0.16 µg/m3 17.9 µg/m3 37.79 µg/m3 25.33 µg/m3 0.41 mg/m3 23.06 °C 84.52 % 1,014.11 mbar 1.1 m/s 57.52 Deg 25.42 µg/m3 3.31 µg/m3
2022-06-02 04:00 28.82 µg/m3 -0.04 µg/m3 34.07 µg/m3 31.61 µg/m3 21.12 µg/m3 0.19 mg/m3 23.45 °C 79.02 % 1,013.79 mbar 0.83 m/s 56.95 Deg 6.24 µg/m3 2.54 µg/m3
2022-06-02 03:00 29.8 µg/m3 -0.08 µg/m3 31.54 µg/m3 29.32 µg/m3 19.55 µg/m3 0.34 mg/m3 23.68 °C 73.79 % 1,014.03 mbar 0.91 m/s 60.92 Deg 2.34 µg/m3 2.83 µg/m3
2022-06-02 02:00 28.17 µg/m3 -0.03 µg/m3 41.69 µg/m3 29.02 µg/m3 18.29 µg/m3 0.44 mg/m3 23.97 °C 72.19 % 1,014.22 mbar 1.36 m/s 61.53 Deg 3.82 µg/m3 5.56 µg/m3
2022-06-02 01:00 57.25 µg/m3 0.03 µg/m3 23.16 µg/m3 47.03 µg/m3 19.42 µg/m3 0.29 mg/m3 24.77 °C 63.16 % 1,014.30 mbar 1.23 m/s 61.1 Deg 10.29 µg/m3 3.94 µg/m3
2022-06-02 00:00 51.09 µg/m3 0.02 µg/m3 36.31 µg/m3 54.57 µg/m3 19.96 µg/m3 0.31 mg/m3 25.92 °C 56.07 % 1,014.62 mbar 0.72 m/s 214.03 Deg 9 µg/m3 3.1 µg/m3
2022-06-01 23:00 68.49 µg/m3 0.15 µg/m3 27.81 µg/m3 54.46 µg/m3 19.52 µg/m3 0.39 mg/m3 25.81 °C 56.97 % 1,014.85 mbar 0.64 m/s 44.56 Deg 20.27 µg/m3 2.87 µg/m3
2022-06-01 22:00 50.96 µg/m3 0.19 µg/m3 48.89 µg/m3 48.98 µg/m3 17.72 µg/m3 0.33 mg/m3 25.85 °C 57.32 % 1,014.87 mbar 1.54 m/s 48.98 Deg 22.6 µg/m3 2.83 µg/m3
2022-06-01 21:00 49.17 µg/m3 0.51 µg/m3 48.07 µg/m3 52.81 µg/m3 20.09 µg/m3 0.94 mg/m3 26.29 °C 55.17 % 1,014.62 mbar 1.71 m/s 54.77 Deg 29.99 µg/m3 10.6 µg/m3
2022-06-01 20:00 93.95 µg/m3 0.47 µg/m3 23.85 µg/m3 74.86 µg/m3 24.89 µg/m3 0.64 mg/m3 27.97 °C 37.03 % 1,014.12 mbar 1.83 m/s 49.52 Deg 45.71 µg/m3 3.75 µg/m3
2022-06-01 19:00 87.82 µg/m3 0.52 µg/m3 29 µg/m3 69.85 µg/m3 22.5 µg/m3 0.54 mg/m3 29.44 °C 32.06 % 1,013.61 mbar 1.87 m/s 42.18 Deg 49.98 µg/m3 3.57 µg/m3
2022-06-01 18:00 60.07 µg/m3 0.32 µg/m3 54.85 µg/m3 69.95 µg/m3 20.96 µg/m3 0.47 mg/m3 30.36 °C 31.11 % 1,013.42 mbar 1.52 m/s 40.8 Deg 41.68 µg/m3 1.7 µg/m3
2022-06-01 17:00 61.99 µg/m3 0.39 µg/m3 58.84 µg/m3 58.56 µg/m3 19.35 µg/m3 0.39 mg/m3 30.34 °C 27.1 % 1,013.77 mbar 2.29 m/s 42.95 Deg 44.52 µg/m3 2.05 µg/m3
2022-06-01 16:00 38.71 µg/m3 0.32 µg/m3 64.73 µg/m3 52.3 µg/m3 19.17 µg/m3 0.35 mg/m3 30.38 °C 24.19 % 1,014.12 mbar 3.13 m/s 52.87 Deg 41.92 µg/m3 1.44 µg/m3
2022-06-01 15:00 44.52 µg/m3 0.25 µg/m3 69.3 µg/m3 52.46 µg/m3 18.01 µg/m3 0.28 mg/m3 30.55 °C 25.56 % 1,014.31 mbar 3.12 m/s 57 Deg 39.32 µg/m3 1.52 µg/m3
2022-06-01 14:00 51.2 µg/m3 0.31 µg/m3 66.24 µg/m3 59.48 µg/m3 19.66 µg/m3 0.4 mg/m3 29.78 °C 31.25 % 1,014.47 mbar 2.72 m/s 58.48 Deg 45.14 µg/m3 1.78 µg/m3
2022-06-01 13:00 57.57 µg/m3 0.31 µg/m3 62.95 µg/m3 59.69 µg/m3 19.02 µg/m3 0.38 mg/m3 29.56 °C 35.91 % 1,014.71 mbar 3.51 m/s 53.73 Deg 45.01 µg/m3 1.92 µg/m3
2022-06-01 12:00 52.97 µg/m3 0.29 µg/m3 55.3 µg/m3 57.85 µg/m3 18.42 µg/m3 0.4 mg/m3 29.26 °C 39.99 % 1,015.16 mbar 3.15 m/s 45.57 Deg 46.32 µg/m3 2.18 µg/m3
2022-06-01 11:00 54.33 µg/m3 0.37 µg/m3 46.9 µg/m3 46.18 µg/m3 16.31 µg/m3 0.35 mg/m3 26.7 °C 52.95 % 1,015.30 mbar 2.74 m/s 59.62 Deg 45.58 µg/m3 2.86 µg/m3
2022-06-01 10:00 45.18 µg/m3 0.35 µg/m3 39.35 µg/m3 42.63 µg/m3 14.36 µg/m3 0.39 mg/m3 25.82 °C 58.26 % 1,015.01 mbar 2.5 m/s 55.37 Deg 45.77 µg/m3 2.44 µg/m3
2022-06-01 09:00 65.09 µg/m3 0.57 µg/m3 27.31 µg/m3 43.99 µg/m3 15.1 µg/m3 0.52 mg/m3 25.71 °C 61.24 % 1,014.59 mbar 2.22 m/s 57.93 Deg 60.64 µg/m3 2.59 µg/m3
2022-06-01 08:00 64.05 µg/m3 0.61 µg/m3 28.69 µg/m3 51.41 µg/m3 15.85 µg/m3 0.56 mg/m3 25.41 °C 61.47 % 1,014.55 mbar 1.33 m/s 55 Deg 62.07 µg/m3 3.83 µg/m3
2022-06-01 07:00 53.79 µg/m3 0.39 µg/m3 32.34 µg/m3 45.77 µg/m3 15.31 µg/m3 0.52 mg/m3 24.49 °C 63.17 % 1,014.32 mbar 1.64 m/s 61.38 Deg 42.98 µg/m3 5.35 µg/m3
2022-06-01 06:00 68.57 µg/m3 0.58 µg/m3 19.48 µg/m3 56.58 µg/m3 18.45 µg/m3 0.55 mg/m3 25.22 °C 48.73 % 1,013.84 mbar 1.15 m/s 123.73 Deg 48.29 µg/m3 3.52 µg/m3
2022-06-01 05:00 46.73 µg/m3 0.1 µg/m3 26.41 µg/m3 59.32 µg/m3 17.06 µg/m3 0.23 mg/m3 26.2 °C 40.01 % 1,013.71 mbar 0.96 m/s 216.42 Deg 17.98 µg/m3 0.5 µg/m3
2022-06-01 04:00 11.22 µg/m3 -0.07 µg/m3 63.53 µg/m3 39.18 µg/m3 12.27 µg/m3 0.15 mg/m3 26.13 °C 41.14 % 1,013.75 mbar 0.76 m/s 230.08 Deg 0.09 µg/m3 0.31 µg/m3
2022-06-01 03:00 5.67 µg/m3 -0.13 µg/m3 69.03 µg/m3 37.33 µg/m3 11.26 µg/m3 0.14 mg/m3 26.7 °C 37.25 % 1,014.01 mbar 1.27 m/s 221.68 Deg 0.04 µg/m3 0.28 µg/m3
2022-06-01 02:00 7.17 µg/m3 -0.2 µg/m3 68.59 µg/m3 37.81 µg/m3 11.27 µg/m3 0.14 mg/m3 26.94 °C 35.8 % 1,014.26 mbar 1.4 m/s 211.38 Deg 0.48 µg/m3 0.37 µg/m3
2022-06-01 01:00 6.33 µg/m3 -0.2 µg/m3 61.24 µg/m3 33.68 µg/m3 10.52 µg/m3 0.15 mg/m3 26.29 °C 40.3 % 1,014.72 mbar 1.28 m/s 211.25 Deg 0.03 µg/m3 0.31 µg/m3
2022-06-01 00:00 7.69 µg/m3 -0.17 µg/m3 59.31 µg/m3 30.61 µg/m3 10.43 µg/m3 0.16 mg/m3 26.14 °C 42.16 % 1,015.24 mbar 1.51 m/s 208.45 Deg 0.14 µg/m3 0.42 µg/m3
2022-05-31 23:00 11.35 µg/m3 -0.2 µg/m3 58.28 µg/m3 30.08 µg/m3 11.13 µg/m3 0.18 mg/m3 25.92 °C 46.72 % 1,015.31 mbar 1.9 m/s 210.82 Deg 0.57 µg/m3 0.63 µg/m3
2022-05-31 22:00 13.61 µg/m3 -0.13 µg/m3 59.09 µg/m3 29.52 µg/m3 11.19 µg/m3 0.19 mg/m3 26.07 °C 46.77 % 1,015.34 mbar 1.75 m/s 206.1 Deg 0.93 µg/m3 0.71 µg/m3
2022-05-31 21:00 19.06 µg/m3 -0.17 µg/m3 56.44 µg/m3 32.84 µg/m3 11.42 µg/m3 0.22 mg/m3 26.62 °C 43.66 % 1,015.08 mbar 1.62 m/s 207.88 Deg 1.56 µg/m3 0.89 µg/m3
2022-05-31 20:00 21.89 µg/m3 -0.13 µg/m3 55.57 µg/m3 42.4 µg/m3 11.34 µg/m3 0.22 mg/m3 27.22 °C 39.09 % 1,014.63 mbar 1.53 m/s 198.73 Deg 2.84 µg/m3 2.44 µg/m3
2022-05-31 19:00 41.16 µg/m3 0.19 µg/m3 70.78 µg/m3 50.29 µg/m3 17.33 µg/m3 0.49 mg/m3 26.75 °C 44.57 % 1,014.54 mbar 1.53 m/s 113.98 Deg 30.15 µg/m3 5.23 µg/m3
2022-05-31 18:00 44.54 µg/m3 0.26 µg/m3 77.38 µg/m3 44.04 µg/m3 16.37 µg/m3 0.49 mg/m3 27.28 °C 45.08 % 1,014.30 mbar 2.33 m/s 57.55 Deg 35.54 µg/m3 1.5 µg/m3
2022-05-31 17:00 41.71 µg/m3 0.1 µg/m3 66.86 µg/m3 45.76 µg/m3 14.25 µg/m3 0.42 mg/m3 29.39 °C 36.22 % 1,014.37 mbar 1.69 m/s 139.33 Deg 27.43 µg/m3 2.18 µg/m3
2022-05-31 16:00 43.82 µg/m3 0.18 µg/m3 67.28 µg/m3 45.09 µg/m3 13.67 µg/m3 0.37 mg/m3 30.61 °C 33.13 % 1,014.58 mbar 1.8 m/s 176.83 Deg 29.99 µg/m3 1.15 µg/m3
2022-05-31 15:00 31.8 µg/m3 -0.12 µg/m3 67.43 µg/m3 53.88 µg/m3 13.03 µg/m3 0.24 mg/m3 32.07 °C 25.03 % 1,014.73 mbar 1.99 m/s 199.75 Deg 10.75 µg/m3 0.94 µg/m3
2022-05-31 14:00 28.1 µg/m3 -0.09 µg/m3 68.85 µg/m3 52.34 µg/m3 13.91 µg/m3 0.24 mg/m3 31.56 °C 27.67 % 1,014.89 mbar 2.23 m/s 210.83 Deg 8.72 µg/m3 0.81 µg/m3
2022-05-31 13:00 33.78 µg/m3 0.01 µg/m3 60.78 µg/m3 49.65 µg/m3 12.25 µg/m3 0.26 mg/m3 31 °C 30.8 % 1,014.80 mbar 2.4 m/s 161.28 Deg 18.13 µg/m3 1.07 µg/m3
2022-05-31 12:00 39.33 µg/m3 0.09 µg/m3 57.17 µg/m3 43.01 µg/m3 12.31 µg/m3 0.32 mg/m3 30.52 °C 34.44 % 1,015.01 mbar 2.35 m/s 145.52 Deg 23.11 µg/m3 1.26 µg/m3
2022-05-31 11:00 41.36 µg/m3 0.26 µg/m3 49.57 µg/m3 43.56 µg/m3 12.22 µg/m3 0.14 mg/m3 29.89 °C 35.98 % 1,015.24 mbar 2.01 m/s 156.92 Deg 33.64 µg/m3 N/A
2022-05-31 10:00 0 µg/m3 0 µg/m3 0 µg/m3 43.56 µg/m3 12.16 µg/m3 0 mg/m3 28.97 °C 36.14 % 1,015.10 mbar 2.18 m/s 173 Deg 0 µg/m3 0 µg/m3
2022-05-31 09:00 0 µg/m3 0 µg/m3 0 µg/m3 56.82 µg/m3 14.42 µg/m3 0 mg/m3 28.11 °C 38.83 % 1,014.87 mbar 2.01 m/s 158.33 Deg 0 µg/m3 0 µg/m3
2022-05-31 08:00 0 µg/m3 0 µg/m3 0 µg/m3 61.39 µg/m3 16.35 µg/m3 0 mg/m3 27.04 °C 45.14 % 1,014.66 mbar 1.61 m/s 177.62 Deg 0 µg/m3 2.8 µg/m3
2022-05-31 07:00 86.14 µg/m3 1.23 µg/m3 5.66 µg/m3 80.56 µg/m3 20.8 µg/m3 0.9 mg/m3 25.11 °C 56.98 % 1,014.16 mbar 0.68 m/s 176.32 Deg 104.63 µg/m3 4.43 µg/m3
2022-05-31 06:00 72.71 µg/m3 0.61 µg/m3 4.12 µg/m3 82.4 µg/m3 22.96 µg/m3 0.61 mg/m3 23.22 °C 62.94 % 1,013.97 mbar 0.62 m/s 229.66 Deg 65.16 µg/m3 3.62 µg/m3
2022-05-31 05:00 64.53 µg/m3 0.13 µg/m3 5.58 µg/m3 57.39 µg/m3 18.01 µg/m3 0.3 mg/m3 22.76 °C 62.72 % 1,013.70 mbar 0.65 m/s 233.2 Deg 23.9 µg/m3 1.66 µg/m3
2022-05-31 04:00 30.12 µg/m3 -0.1 µg/m3 52.14 µg/m3 39.39 µg/m3 13.84 µg/m3 0.18 mg/m3 22.73 °C 64.98 % 1,013.72 mbar 0.72 m/s 135.2 Deg 1.71 µg/m3 1.49 µg/m3
2022-05-31 03:00 15.33 µg/m3 -0.16 µg/m3 64.72 µg/m3 41.04 µg/m3 12.89 µg/m3 0.19 mg/m3 23.09 °C 64.12 % 1,013.76 mbar 1 m/s 38.05 Deg 1.7 µg/m3 0.86 µg/m3
2022-05-31 02:00 16.26 µg/m3 -0.16 µg/m3 64.61 µg/m3 43.41 µg/m3 13.58 µg/m3 0.19 mg/m3 23.58 °C 61.48 % 1,013.87 mbar 1.38 m/s 231.73 Deg 0.88 µg/m3 0.86 µg/m3
2022-05-31 01:00 8.8 µg/m3 -0.11 µg/m3 66.46 µg/m3 47.42 µg/m3 12.62 µg/m3 0.16 mg/m3 24.26 °C 55.45 % 1,014.17 mbar 1.9 m/s 265.03 Deg 1.37 µg/m3 0.42 µg/m3
2022-05-31 00:00 8.06 µg/m3 -0.19 µg/m3 60.64 µg/m3 30.99 µg/m3 9.5 µg/m3 0.15 mg/m3 24.59 °C 54.03 % 1,013.63 mbar 1.99 m/s 218.33 Deg 0.14 µg/m3 0.44 µg/m3
2022-05-30 23:00 9.73 µg/m3 -0.09 µg/m3 67.78 µg/m3 32.24 µg/m3 8.97 µg/m3 0.17 mg/m3 24.48 °C 55.65 % 1,013.76 mbar 2.18 m/s 214.23 Deg 0.24 µg/m3 0.86 µg/m3
2022-05-30 22:00 21.04 µg/m3 -0.13 µg/m3 70.31 µg/m3 38.77 µg/m3 10.82 µg/m3 0.22 mg/m3 24.32 °C 58 % 1,013.56 mbar 1.3 m/s 210.4 Deg 1.21 µg/m3 0.63 µg/m3
2022-05-30 21:00 23.99 µg/m3 -0.09 µg/m3 78.03 µg/m3 35.47 µg/m3 11.29 µg/m3 0.26 mg/m3 24.25 °C 60.18 % 1,013.17 mbar 1.25 m/s 177.9 Deg 4.65 µg/m3 0.87 µg/m3
2022-05-30 20:00 22.56 µg/m3 -0.09 µg/m3 80.1 µg/m3 38.06 µg/m3 11.19 µg/m3 0.27 mg/m3 24.76 °C 55.34 % 1,012.50 mbar 1.54 m/s 179.13 Deg 7.15 µg/m3 1.03 µg/m3
2022-05-30 19:00 28.8 µg/m3 0.04 µg/m3 74.04 µg/m3 43.13 µg/m3 12.13 µg/m3 0.3 mg/m3 25.72 °C 49.35 % 1,012.18 mbar 1.84 m/s 161.28 Deg 11.51 µg/m3 0.79 µg/m3
2022-05-30 18:00 26.23 µg/m3 0 µg/m3 83.84 µg/m3 49.97 µg/m3 12.65 µg/m3 0.26 mg/m3 26.67 °C 47.08 % 1,011.78 mbar 2.27 m/s 179.33 Deg 6.46 µg/m3 0.89 µg/m3
2022-05-30 17:00 30.25 µg/m3 -0.02 µg/m3 87.08 µg/m3 40.21 µg/m3 11.95 µg/m3 0.3 mg/m3 27.02 °C 46.85 % 1,011.94 mbar 2.54 m/s 159.38 Deg 9.63 µg/m3 1 µg/m3
2022-05-30 16:00 33.09 µg/m3 0.02 µg/m3 77.24 µg/m3 41.49 µg/m3 10.88 µg/m3 0.25 mg/m3 28.59 °C 34.79 % 1,012.05 mbar 2.41 m/s 188.38 Deg 7.58 µg/m3 1.39 µg/m3
2022-05-30 15:00 25.75 µg/m3 0.07 µg/m3 66.33 µg/m3 37.9 µg/m3 7.82 µg/m3 0.24 mg/m3 30.12 °C 25.12 % 1,011.95 mbar 3.03 m/s 163.03 Deg 15.15 µg/m3 0.89 µg/m3
2022-05-30 14:00 34.17 µg/m3 0.13 µg/m3 68.03 µg/m3 34.19 µg/m3 6.9 µg/m3 0.24 mg/m3 29.55 °C 28.47 % 1,012.41 mbar 2.88 m/s 158.55 Deg 17.75 µg/m3 1.21 µg/m3
2022-05-30 13:00 35.38 µg/m3 0.16 µg/m3 59.74 µg/m3 31.61 µg/m3 6.93 µg/m3 0.28 mg/m3 29.88 °C 26.89 % 1,012.48 mbar 2.6 m/s 149.97 Deg 25.34 µg/m3 2.59 µg/m3
2022-05-30 12:00 30.71 µg/m3 0.06 µg/m3 59.26 µg/m3 32.53 µg/m3 6.32 µg/m3 0.24 mg/m3 30.55 °C 23.33 % 1,012.42 mbar 2.44 m/s 167.15 Deg 17.72 µg/m3 0.68 µg/m3
2022-05-30 11:00 23.86 µg/m3 -0.05 µg/m3 65.69 µg/m3 34.85 µg/m3 6.89 µg/m3 0.14 mg/m3 29.6 °C 26.46 % 1,012.40 mbar 2.96 m/s 201.2 Deg 7.61 µg/m3 2.99 µg/m3
2022-05-30 10:00 26.72 µg/m3 -0.05 µg/m3 68.13 µg/m3 36.47 µg/m3 7.84 µg/m3 0.23 mg/m3 28.07 °C 33.36 % 1,012.40 mbar 2.49 m/s 200.25 Deg 7.42 µg/m3 1.76 µg/m3
2022-05-30 09:00 31.5 µg/m3 -0.07 µg/m3 62.66 µg/m3 36.38 µg/m3 8.05 µg/m3 0.2 mg/m3 26.56 °C 39.95 % 1,012.31 mbar 2.62 m/s 211.37 Deg 8.2 µg/m3 2.08 µg/m3
2022-05-30 08:00 38.22 µg/m3 -0.01 µg/m3 55 µg/m3 54.6 µg/m3 10.7 µg/m3 0.22 mg/m3 25.99 °C 38.61 % 1,011.88 mbar 2.73 m/s 221.07 Deg 10.15 µg/m3 2.28 µg/m3
2022-05-30 07:00 82.55 µg/m3 0.68 µg/m3 18 µg/m3 80.1 µg/m3 17.67 µg/m3 0.58 mg/m3 24.54 °C 44.67 % 1,011.36 mbar 0.95 m/s 230.32 Deg 55.98 µg/m3 6.27 µg/m3
2022-05-30 06:00 82.11 µg/m3 0.79 µg/m3 7.18 µg/m3 70.68 µg/m3 19.31 µg/m3 0.72 mg/m3 22.06 °C 56.73 % 1,010.82 mbar 0.69 m/s 229.53 Deg 68.51 µg/m3 6.51 µg/m3
2022-05-30 05:00 56.24 µg/m3 0.25 µg/m3 16.97 µg/m3 43.13 µg/m3 13.8 µg/m3 0.25 mg/m3 21.61 °C 61.67 % 1,010.43 mbar 0.51 m/s 224.3 Deg 28.36 µg/m3 1.99 µg/m3
2022-05-30 04:00 26.76 µg/m3 -0.04 µg/m3 54.87 µg/m3 18.79 µg/m3 7.86 µg/m3 0.18 mg/m3 21.85 °C 57.95 % 1,010.50 mbar 0.57 m/s 213.8 Deg 3.86 µg/m3 1.91 µg/m3
2022-05-30 03:00 20.33 µg/m3 -0.13 µg/m3 49.92 µg/m3 16.53 µg/m3 7.42 µg/m3 0.17 mg/m3 21.74 °C 52.48 % 1,010.57 mbar 0.65 m/s 265.9 Deg 1.54 µg/m3 1.76 µg/m3
2022-05-30 02:00 14.86 µg/m3 -0.19 µg/m3 56.99 µg/m3 19.41 µg/m3 8.9 µg/m3 0.15 mg/m3 21.96 °C 53.39 % 1,010.38 mbar 0.95 m/s 237.28 Deg 0.45 µg/m3 0.68 µg/m3
2022-05-30 01:00 22.15 µg/m3 -0.15 µg/m3 63.55 µg/m3 15.96 µg/m3 6.53 µg/m3 0.13 mg/m3 22 °C 55.22 % 1,010.57 mbar 1.47 m/s 247.63 Deg 7.01 µg/m3 0.63 µg/m3
2022-05-30 00:00 20.02 µg/m3 -0.25 µg/m3 66.72 µg/m3 20.34 µg/m3 7.69 µg/m3 0.17 mg/m3 22.27 °C 53.85 % 1,010.74 mbar 1.11 m/s 240.42 Deg 0.69 µg/m3 0.79 µg/m3
2022-05-29 23:00 16.29 µg/m3 -0.23 µg/m3 75.88 µg/m3 18.71 µg/m3 7.57 µg/m3 0.16 mg/m3 22.56 °C 53.96 % 1,010.77 mbar 1.94 m/s 224.28 Deg 0.78 µg/m3 0.42 µg/m3
2022-05-29 22:00 11.38 µg/m3 -0.25 µg/m3 83.17 µg/m3 18.26 µg/m3 7.89 µg/m3 0.15 mg/m3 22.41 °C 60.94 % 1,010.60 mbar 2.8 m/s 220.42 Deg 0.34 µg/m3 0.81 µg/m3
2022-05-29 21:00 18.58 µg/m3 -0.26 µg/m3 82.87 µg/m3 22.29 µg/m3 9.24 µg/m3 0.19 mg/m3 22.63 °C 59.02 % 1,010.05 mbar 1.74 m/s 215.42 Deg 0.48 µg/m3 0.82 µg/m3
2022-05-29 20:00 18.39 µg/m3 -0.27 µg/m3 85.49 µg/m3 23.96 µg/m3 9.35 µg/m3 0.19 mg/m3 23.21 °C 54.35 % 1,009.15 mbar 2.68 m/s 215.38 Deg 0.69 µg/m3 1.07 µg/m3
2022-05-29 19:00 20.81 µg/m3 -0.24 µg/m3 84.35 µg/m3 25.5 µg/m3 10.06 µg/m3 0.23 mg/m3 24.12 °C 51.32 % 1,008.80 mbar 2.97 m/s 242.43 Deg 2.18 µg/m3 0.92 µg/m3
2022-05-29 18:00 16.71 µg/m3 -0.3 µg/m3 87.95 µg/m3 24.55 µg/m3 9.69 µg/m3 0.21 mg/m3 24.47 °C 52.99 % 1,008.35 mbar 3.95 m/s 251.17 Deg 2.65 µg/m3 0.73 µg/m3
2022-05-29 17:00 13.66 µg/m3 -0.29 µg/m3 91.13 µg/m3 27.96 µg/m3 10.78 µg/m3 0.2 mg/m3 24.62 °C 52.93 % 1,008.21 mbar 4.2 m/s 253.52 Deg 2.52 µg/m3 0.47 µg/m3
2022-05-29 16:00 11.28 µg/m3 -0.26 µg/m3 92.31 µg/m3 32.33 µg/m3 11.43 µg/m3 0.17 mg/m3 24.41 °C 54.96 % 1,008.20 mbar 4.31 m/s 250.08 Deg 2.27 µg/m3 0.44 µg/m3
2022-05-29 15:00 10.67 µg/m3 -0.28 µg/m3 96.02 µg/m3 30.48 µg/m3 11.88 µg/m3 0.17 mg/m3 24 °C 60.2 % 1,008.23 mbar 4.01 m/s 247.33 Deg 1.9 µg/m3 0.42 µg/m3
2022-05-29 14:00 10.48 µg/m3 -0.32 µg/m3 90.19 µg/m3 31.86 µg/m3 14.87 µg/m3 0.18 mg/m3 23.51 °C 67.06 % 1,008.26 mbar 3.37 m/s 251.92 Deg 2.2 µg/m3 0.39 µg/m3
2022-05-29 13:00 9.52 µg/m3 -0.34 µg/m3 90.1 µg/m3 32.21 µg/m3 16 µg/m3 0.16 mg/m3 23.25 °C 68.85 % 1,008.12 mbar 3.83 m/s 243.78 Deg 1.67 µg/m3 0.37 µg/m3
2022-05-29 12:00 11.44 µg/m3 -0.36 µg/m3 83.91 µg/m3 34.47 µg/m3 16.99 µg/m3 0.17 mg/m3 22.9 °C 69.41 % 1,008.03 mbar 3.73 m/s 250.38 Deg 2.65 µg/m3 1.31 µg/m3
2022-05-29 11:00 12.68 µg/m3 -0.34 µg/m3 76.13 µg/m3 37.03 µg/m3 17.26 µg/m3 0.16 mg/m3 22.78 °C 69.89 % 1,007.91 mbar 3.36 m/s 262.38 Deg 3.3 µg/m3 0.86 µg/m3
2022-05-29 10:00 13.29 µg/m3 -0.34 µg/m3 77.1 µg/m3 40.85 µg/m3 17.29 µg/m3 0.22 mg/m3 22.46 °C 71.22 % 1,007.65 mbar 3.42 m/s 256.57 Deg 2.78 µg/m3 0.89 µg/m3
2022-05-29 09:00 14.42 µg/m3 -0.3 µg/m3 82.06 µg/m3 34.02 µg/m3 12.13 µg/m3 0.21 mg/m3 22.16 °C 71.13 % 1,007.12 mbar 2.95 m/s 268.05 Deg 2.73 µg/m3 0.42 µg/m3
2022-05-29 08:00 15.64 µg/m3 -0.32 µg/m3 80.66 µg/m3 21.4 µg/m3 9.33 µg/m3 0.18 mg/m3 21.31 °C 75.31 % 1,006.63 mbar 2.67 m/s 278.48 Deg 2.6 µg/m3 0.34 µg/m3
2022-05-29 07:00 15.23 µg/m3 -0.32 µg/m3 73.95 µg/m3 14.54 µg/m3 9.54 µg/m3 0.19 mg/m3 20.63 °C 80.02 % 1,006.22 mbar 2.31 m/s 274.05 Deg 1.81 µg/m3 0.49 µg/m3
2022-05-29 06:00 12.92 µg/m3 -0.38 µg/m3 72.65 µg/m3 12.73 µg/m3 8.71 µg/m3 0.16 mg/m3 19.91 °C 82.4 % 1,005.83 mbar 2.15 m/s 257.38 Deg 1.12 µg/m3 0.37 µg/m3
2022-05-29 05:00 11.18 µg/m3 -0.32 µg/m3 71.24 µg/m3 12.67 µg/m3 8.86 µg/m3 0.15 mg/m3 19.79 °C 82.85 % 1,005.29 mbar 1.86 m/s 259.95 Deg 0.68 µg/m3 0.26 µg/m3
2022-05-29 04:00 6.23 µg/m3 -0.32 µg/m3 77.35 µg/m3 16.59 µg/m3 11.72 µg/m3 0.14 mg/m3 19.63 °C 84.14 % 1,004.89 mbar 2.23 m/s 252.98 Deg 0.27 µg/m3 0.31 µg/m3
2022-05-29 03:00 5.26 µg/m3 -0.3 µg/m3 75.13 µg/m3 18.99 µg/m3 13.61 µg/m3 0.14 mg/m3 19.93 °C 87.17 % 1,004.89 mbar 2.99 m/s 254.65 Deg 0.13 µg/m3 0.37 µg/m3
2022-05-29 02:00 5.38 µg/m3 -0.3 µg/m3 82.15 µg/m3 20.39 µg/m3 14.27 µg/m3 0.14 mg/m3 20.48 °C 84.04 % 1,005.25 mbar 2.73 m/s 232.13 Deg 0.14 µg/m3 0.34 µg/m3
2022-05-29 01:00 7.11 µg/m3 -0.34 µg/m3 88.05 µg/m3 22.62 µg/m3 15.45 µg/m3 0.15 mg/m3 21.24 °C 78.4 % 1,005.65 mbar 2.92 m/s 223.32 Deg 0.71 µg/m3 0.42 µg/m3
2022-05-29 00:00 8 µg/m3 -0.31 µg/m3 87.13 µg/m3 21.89 µg/m3 14.9 µg/m3 0.17 mg/m3 21.08 °C 78.1 % 1,006.02 mbar 3.34 m/s 229.93 Deg 0.66 µg/m3 0.65 µg/m3
2022-05-28 23:00 7.36 µg/m3 -0.3 µg/m3 82.07 µg/m3 16.25 µg/m3 11.04 µg/m3 0.15 mg/m3 21.24 °C 81.27 % 1,006.25 mbar 3.46 m/s 220.58 Deg 0.6 µg/m3 0.52 µg/m3
2022-05-28 22:00 6.64 µg/m3 -0.36 µg/m3 84.78 µg/m3 13.7 µg/m3 9.32 µg/m3 0.15 mg/m3 21.59 °C 78.94 % 1,006.66 mbar 3.52 m/s 215.62 Deg 0.28 µg/m3 0.47 µg/m3
2022-05-28 21:00 8.52 µg/m3 -0.31 µg/m3 83.33 µg/m3 12.91 µg/m3 8.74 µg/m3 0.17 mg/m3 21.61 °C 77.47 % 1,006.72 mbar 3.07 m/s 216.73 Deg 0.56 µg/m3 0.68 µg/m3
2022-05-28 20:00 12.32 µg/m3 -0.26 µg/m3 84.16 µg/m3 10.77 µg/m3 7.12 µg/m3 0.2 mg/m3 21.85 °C 74.8 % 1,006.51 mbar 2.6 m/s 211.9 Deg 0.88 µg/m3 0.97 µg/m3
2022-05-28 19:00 14 µg/m3 -0.29 µg/m3 82.8 µg/m3 16.41 µg/m3 7.19 µg/m3 0.2 mg/m3 22.09 °C 71.36 % 1,006.44 mbar 2.8 m/s 209.33 Deg 1.23 µg/m3 0.58 µg/m3
2022-05-28 18:00 10.41 µg/m3 -0.28 µg/m3 87.35 µg/m3 16.3 µg/m3 6.94 µg/m3 0.18 mg/m3 22.7 °C 67.14 % 1,006.52 mbar 2.96 m/s 218.07 Deg 1.54 µg/m3 0.44 µg/m3
2022-05-28 17:00 8.2 µg/m3 -0.3 µg/m3 89.5 µg/m3 18.12 µg/m3 7.24 µg/m3 0.17 mg/m3 22.89 °C 65.35 % 1,006.99 mbar 3.41 m/s 219.78 Deg 1.23 µg/m3 0.44 µg/m3
2022-05-28 16:00 9.96 µg/m3 -0.32 µg/m3 89.72 µg/m3 22.53 µg/m3 8.58 µg/m3 0.17 mg/m3 23.41 °C 62.14 % 1,007.32 mbar 3.01 m/s 225.87 Deg 1.57 µg/m3 0.44 µg/m3
2022-05-28 15:00 10.3 µg/m3 -0.25 µg/m3 87.26 µg/m3 28.58 µg/m3 10.33 µg/m3 0.17 mg/m3 23.86 °C 57.77 % 1,007.71 mbar 3.38 m/s 234.88 Deg 2.27 µg/m3 0.47 µg/m3
2022-05-28 14:00 13.07 µg/m3 -0.3 µg/m3 85.37 µg/m3 28.11 µg/m3 10.29 µg/m3 0.18 mg/m3 23.9 °C 56.93 % 1,008.16 mbar 3.48 m/s 245.8 Deg 3.54 µg/m3 0.58 µg/m3
2022-05-28 13:00 15.83 µg/m3 -0.26 µg/m3 83.67 µg/m3 36.75 µg/m3 10.41 µg/m3 0.2 mg/m3 24 °C 54.85 % 1,008.53 mbar 3.57 m/s 250.63 Deg 4.03 µg/m3 0.7 µg/m3
2022-05-28 12:00 22.11 µg/m3 -0.26 µg/m3 78.91 µg/m3 32.29 µg/m3 9.02 µg/m3 0.22 mg/m3 24.24 °C 52.92 % 1,008.77 mbar 3.21 m/s 262.83 Deg 6.25 µg/m3 0.68 µg/m3
2022-05-28 11:00 24.59 µg/m3 -0.23 µg/m3 81.34 µg/m3 28.83 µg/m3 8.04 µg/m3 0.17 mg/m3 23.94 °C 53.36 % 1,008.91 mbar 2.75 m/s 266 Deg 6.14 µg/m3 1.08 µg/m3
2022-05-28 10:00 28.97 µg/m3 -0.23 µg/m3 78.23 µg/m3 27.35 µg/m3 7.76 µg/m3 0.23 mg/m3 23.55 °C 56.72 % 1,008.90 mbar 2.49 m/s 272.13 Deg 9.25 µg/m3 0.73 µg/m3
2022-05-28 09:00 26.28 µg/m3 -0.24 µg/m3 74.79 µg/m3 30.19 µg/m3 7.54 µg/m3 0.21 mg/m3 22.81 °C 59.73 % 1,009.15 mbar 2.97 m/s 262.08 Deg 6.58 µg/m3 1.1 µg/m3
2022-05-28 08:00 28.97 µg/m3 -0.23 µg/m3 68.13 µg/m3 28.22 µg/m3 7.85 µg/m3 0.19 mg/m3 22.19 °C 62.09 % 1,009.19 mbar 2.39 m/s 266.08 Deg 7.12 µg/m3 0.73 µg/m3
2022-05-28 07:00 34.9 µg/m3 -0.23 µg/m3 65.77 µg/m3 34.56 µg/m3 9.65 µg/m3 0.24 mg/m3 21.11 °C 68.68 % 1,009.34 mbar 2.22 m/s 264.83 Deg 6.19 µg/m3 1.49 µg/m3
2022-05-28 06:00 26.22 µg/m3 -0.29 µg/m3 65.34 µg/m3 20.87 µg/m3 12.7 µg/m3 0.22 mg/m3 20.02 °C 80.2 % 1,009.31 mbar 2.31 m/s 252.53 Deg 3.7 µg/m3 0.52 µg/m3
2022-05-28 05:00 17.46 µg/m3 -0.35 µg/m3 65.63 µg/m3 31.79 µg/m3 21.6 µg/m3 0.14 mg/m3 20.06 °C 85.91 % 1,009.14 mbar 2.27 m/s 259.87 Deg 1.09 µg/m3 0.37 µg/m3
2022-05-28 04:00 14.57 µg/m3 -0.3 µg/m3 60.68 µg/m3 36.6 µg/m3 25.07 µg/m3 0.13 mg/m3 20.34 °C 86.76 % 1,009.09 mbar 2.45 m/s 256.25 Deg 0.7 µg/m3 0.34 µg/m3
2022-05-28 03:00 10.1 µg/m3 -0.37 µg/m3 68.61 µg/m3 32.27 µg/m3 22.09 µg/m3 0.13 mg/m3 20.39 °C 86.82 % 1,009.19 mbar 2.52 m/s 250.42 Deg 0.33 µg/m3 0.34 µg/m3
2022-05-28 02:00 13.03 µg/m3 -0.36 µg/m3 62.31 µg/m3 35.7 µg/m3 24.28 µg/m3 0.14 mg/m3 20.59 °C 87.23 % 1,009.48 mbar 1.78 m/s 243.32 Deg 1.02 µg/m3 0.39 µg/m3
2022-05-28 01:00 11.5 µg/m3 -0.35 µg/m3 68.84 µg/m3 29.92 µg/m3 20.13 µg/m3 0.16 mg/m3 20.89 °C 85.84 % 1,009.76 mbar 1.71 m/s 245.2 Deg 0.5 µg/m3 0.7 µg/m3
2022-05-28 00:00 14.12 µg/m3 -0.31 µg/m3 66.4 µg/m3 31.03 µg/m3 20.77 µg/m3 0.18 mg/m3 21.01 °C 85.2 % 1,010.13 mbar 1.88 m/s 251.27 Deg 0.87 µg/m3 0.76 µg/m3
2022-05-27 23:00 17.77 µg/m3 -0.29 µg/m3 62.85 µg/m3 32.78 µg/m3 21.99 µg/m3 0.21 mg/m3 21.2 °C 84.66 % 1,010.21 mbar 1.86 m/s 245.52 Deg 1.56 µg/m3 1.15 µg/m3
2022-05-27 22:00 18.85 µg/m3 -0.31 µg/m3 64.87 µg/m3 33.72 µg/m3 22.51 µg/m3 0.21 mg/m3 21.57 °C 81.91 % 1,010.26 mbar 1.68 m/s 243.82 Deg 1.97 µg/m3 1.61 µg/m3
2022-05-27 21:00 24.88 µg/m3 -0.29 µg/m3 63.16 µg/m3 38.38 µg/m3 25.61 µg/m3 0.26 mg/m3 22.03 °C 80.15 % 1,009.72 mbar 1.4 m/s 240.82 Deg 2.84 µg/m3 1.39 µg/m3
2022-05-27 20:00 17.88 µg/m3 -0.34 µg/m3 75.46 µg/m3 40.91 µg/m3 27.28 µg/m3 0.22 mg/m3 22.37 °C 79.99 % 1,009.33 mbar 1.8 m/s 215.35 Deg 1.69 µg/m3 1.12 µg/m3
2022-05-27 19:00 26.26 µg/m3 -0.24 µg/m3 71.28 µg/m3 40.28 µg/m3 26.75 µg/m3 0.29 mg/m3 23.05 °C 77.16 % 1,009.18 mbar 1.98 m/s 147.83 Deg 9.52 µg/m3 1.57 µg/m3
2022-05-27 18:00 35.57 µg/m3 -0.16 µg/m3 66.5 µg/m3 42.59 µg/m3 21.42 µg/m3 0.36 mg/m3 23.77 °C 71.09 % 1,009.04 mbar 2.59 m/s 162.78 Deg 20.08 µg/m3 1.82 µg/m3
2022-05-27 17:00 31.13 µg/m3 -0.08 µg/m3 65.7 µg/m3 35.49 µg/m3 18.26 µg/m3 0.35 mg/m3 24.21 °C 67.17 % 1,009.56 mbar 3.35 m/s 270.83 Deg 26.05 µg/m3 2.68 µg/m3
2022-05-27 16:00 30.15 µg/m3 0.01 µg/m3 69.48 µg/m3 33.52 µg/m3 17.39 µg/m3 0.32 mg/m3 24.53 °C 64.79 % 1,010.17 mbar 3.8 m/s 81.07 Deg 29.61 µg/m3 1.44 µg/m3
2022-05-27 15:00 31.19 µg/m3 -0.07 µg/m3 72.77 µg/m3 35.14 µg/m3 16.79 µg/m3 0.3 mg/m3 24.94 °C 61.23 % 1,010.70 mbar 3.83 m/s 69.87 Deg 27.84 µg/m3 1.63 µg/m3
2022-05-27 14:00 29.88 µg/m3 -0.08 µg/m3 74.97 µg/m3 39.79 µg/m3 15.8 µg/m3 0.32 mg/m3 25.41 °C 58.79 % 1,011.02 mbar 3.82 m/s 57.67 Deg 24.07 µg/m3 1.15 µg/m3
2022-05-27 13:00 31.12 µg/m3 -0.1 µg/m3 78.9 µg/m3 33.84 µg/m3 15.05 µg/m3 0.28 mg/m3 24.48 °C 62.26 % 1,011.02 mbar 5.37 m/s 65.95 Deg 21.66 µg/m3 1.42 µg/m3
2022-05-27 12:00 29.63 µg/m3 -0.07 µg/m3 72.66 µg/m3 35.59 µg/m3 14.72 µg/m3 0.27 mg/m3 23.9 °C 63.87 % 1,011.80 mbar 5.07 m/s 119.53 Deg 23.95 µg/m3 1.34 µg/m3
2022-05-27 11:00 25.37 µg/m3 -0.15 µg/m3 79.51 µg/m3 50.27 µg/m3 16.06 µg/m3 0.2 mg/m3 23.63 °C 66.86 % 1,011.31 mbar 6.59 m/s 61.18 Deg 18.94 µg/m3 0.87 µg/m3
2022-05-27 10:00 22.45 µg/m3 -0.08 µg/m3 75.13 µg/m3 29.44 µg/m3 14.52 µg/m3 0.22 mg/m3 22.43 °C 74.36 % 1,012.02 mbar 7.03 m/s 56.43 Deg 21.9 µg/m3 1.1 µg/m3
2022-05-27 09:00 32.95 µg/m3 0 µg/m3 64.21 µg/m3 36.93 µg/m3 16.87 µg/m3 0.33 mg/m3 22.71 °C 71.7 % 1,014.75 mbar 3.21 m/s 47.83 Deg 28.35 µg/m3 1.91 µg/m3
2022-05-27 08:00 29.33 µg/m3 -0.01 µg/m3 63.13 µg/m3 36.58 µg/m3 15.61 µg/m3 0.31 mg/m3 22.57 °C 71.77 % 1,013.47 mbar 3.66 m/s 49.83 Deg 29.37 µg/m3 3.78 µg/m3
2022-05-27 07:00 29.99 µg/m3 -0.04 µg/m3 68.05 µg/m3 27.09 µg/m3 15.18 µg/m3 0.3 mg/m3 22.21 °C 75.39 % 1,013.76 mbar 4.64 m/s 46.45 Deg 22.77 µg/m3 1.26 µg/m3
2022-05-27 06:00 31.96 µg/m3 -0.1 µg/m3 63.36 µg/m3 38.32 µg/m3 16.75 µg/m3 0.33 mg/m3 22.49 °C 73.19 % 1,013.91 mbar 2.08 m/s 171.17 Deg 16.9 µg/m3 3.94 µg/m3
2022-05-27 05:00 22.87 µg/m3 -0.19 µg/m3 75.58 µg/m3 32.82 µg/m3 14.45 µg/m3 0.17 mg/m3 22.43 °C 70.29 % 1,012.51 mbar 1.69 m/s 40.37 Deg 8.37 µg/m3 0.63 µg/m3
2022-05-27 04:00 9.45 µg/m3 -0.18 µg/m3 92.1 µg/m3 25.17 µg/m3 11.55 µg/m3 0.13 mg/m3 23.07 °C 63.03 % 1,012.50 mbar 2.3 m/s 45.15 Deg 2.22 µg/m3 0.37 µg/m3
2022-05-27 03:00 5.7 µg/m3 -0.3 µg/m3 92.63 µg/m3 27.75 µg/m3 11.33 µg/m3 0.13 mg/m3 22.88 °C 63.84 % 1,012.89 mbar 4.03 m/s 58.48 Deg 1.49 µg/m3 0.34 µg/m3
2022-05-27 02:00 18.16 µg/m3 -0.27 µg/m3 81.5 µg/m3 23.65 µg/m3 11.62 µg/m3 0.12 mg/m3 22.29 °C 71.02 % 1,014.06 mbar 2.85 m/s 103.68 Deg 1.57 µg/m3 0.39 µg/m3
2022-05-27 01:00 8.27 µg/m3 -0.23 µg/m3 82.08 µg/m3 18.08 µg/m3 12.23 µg/m3 0.19 mg/m3 21.81 °C 77.71 % 1,014.78 mbar 2.34 m/s 57.27 Deg 1.63 µg/m3 0.49 µg/m3
2022-05-27 00:00 10.93 µg/m3 -0.25 µg/m3 75.72 µg/m3 18.5 µg/m3 12.73 µg/m3 0.16 mg/m3 21.76 °C 80.71 % 1,015.12 mbar 3.46 m/s 51.15 Deg 5.01 µg/m3 0.89 µg/m3
2022-05-26 23:00 14.93 µg/m3 -0.2 µg/m3 72.91 µg/m3 19.6 µg/m3 13.34 µg/m3 0.21 mg/m3 22.06 °C 79.47 % 1,015.85 mbar 3.28 m/s 48.98 Deg 9.72 µg/m3 0.73 µg/m3
2022-05-26 22:00 32.26 µg/m3 -0.15 µg/m3 66.44 µg/m3 20.32 µg/m3 13.79 µg/m3 0.27 mg/m3 22.54 °C 76.91 % 1,015.94 mbar 2.73 m/s 54.22 Deg 12.93 µg/m3 0.86 µg/m3
2022-05-26 21:00 81.9 µg/m3 0.07 µg/m3 18.55 µg/m3 26.09 µg/m3 14.04 µg/m3 0.31 mg/m3 22.99 °C 72.57 % 1,015.76 mbar 2.51 m/s 57.57 Deg 29.04 µg/m3 1.52 µg/m3
2022-05-26 20:00 48.79 µg/m3 -0.02 µg/m3 50.24 µg/m3 28.22 µg/m3 13.5 µg/m3 0.33 mg/m3 23.2 °C 70.79 % 1,014.46 mbar 2.77 m/s 71.07 Deg 23.73 µg/m3 2.31 µg/m3
2022-05-26 19:00 67.94 µg/m3 0.05 µg/m3 29 µg/m3 26.63 µg/m3 13.15 µg/m3 0.31 mg/m3 23.24 °C 72.06 % 1,014.16 mbar 4.33 m/s 64.13 Deg 31.22 µg/m3 1.29 µg/m3
2022-05-26 18:00 64.88 µg/m3 0.17 µg/m3 35.88 µg/m3 25.15 µg/m3 12.15 µg/m3 0.31 mg/m3 23.99 °C 68.95 % 1,014.87 mbar 4.21 m/s 56.08 Deg 36.87 µg/m3 2.03 µg/m3
2022-05-26 17:00 63.71 µg/m3 0.19 µg/m3 40.72 µg/m3 26.67 µg/m3 11.4 µg/m3 0.38 mg/m3 25.28 °C 59.34 % 1,015.88 mbar 3.32 m/s 71.05 Deg 38.5 µg/m3 0.94 µg/m3
2022-05-26 16:00 48.9 µg/m3 0.16 µg/m3 52.91 µg/m3 28.85 µg/m3 11.33 µg/m3 0.32 mg/m3 26.78 °C 48.86 % 1,016.10 mbar 3.48 m/s 163.7 Deg 35.86 µg/m3 0.77 µg/m3
2022-05-26 15:00 65.22 µg/m3 0.37 µg/m3 43.82 µg/m3 27.42 µg/m3 10.61 µg/m3 0.34 mg/m3 27.02 °C 45.82 % 1,016.37 mbar 4.01 m/s 58.87 Deg 53.57 µg/m3 0.66 µg/m3
2022-05-26 14:00 73.15 µg/m3 0.38 µg/m3 42.08 µg/m3 30.2 µg/m3 9.33 µg/m3 0.3 mg/m3 27.61 °C 41.87 % 1,016.75 mbar 4.19 m/s 56.53 Deg 53.34 µg/m3 3.36 µg/m3
2022-05-26 13:00 58.38 µg/m3 0.25 µg/m3 52.66 µg/m3 31.47 µg/m3 10.66 µg/m3 0.35 mg/m3 26.76 °C 48.27 % 1,016.99 mbar 3.47 m/s 48.82 Deg 48.1 µg/m3 1.71 µg/m3
2022-05-26 12:00 45.95 µg/m3 0.09 µg/m3 66.52 µg/m3 31.44 µg/m3 11.1 µg/m3 0.33 mg/m3 25.92 °C 53.43 % 1,017.26 mbar 3.19 m/s 49.95 Deg 34.05 µg/m3 1.84 µg/m3

It is to be noted that the data is provisional and subject to quality assurance procedures. For validated data kindly refer your request to contact.air@era.org.mt